<?xml version="1.0" encoding="UTF-8" standalone="no" ?>
<gpx xmlns="http://www.topografix.com/GPX/1/1" xmlns:xsi="http://www.w3.org/2001/XMLSchema-instance" xsi:schemaLocation="http://www.topografix.com/GPX/1/1 http://www.topografix.com/GPX/1/1/gpx.xsd" version="1.1" creator="VisuGPX - https://www.visugpx.com">
  <metadata>
    <name>Sortie du 6 janvier 2013 ncmtb </name>
    <desc><![CDATA[Trace gps de la premier sortie de l\'année lors de la sortie hebdomadaire du nord cotentin mountain bike ]]></desc>
  </metadata>
  <trk>
    <name><![CDATA[13-01-06]]></name>
    <trkseg>
      <trkpt lat="49.6412" lon="-1.66558">
        <ele>71.76</ele>
        <time>2013-01-06T07:59:02Z</time>
      </trkpt>
      <trkpt lat="49.6412" lon="-1.66559">
        <ele>70.79</ele>
        <time>2013-01-06T07:59:10Z</time>
      </trkpt>
      <trkpt lat="49.64121" lon="-1.66557">
        <ele>70.79</ele>
        <time>2013-01-06T07:59:28Z</time>
      </trkpt>
      <trkpt lat="49.64123" lon="-1.66555">
        <ele>70.79</ele>
        <time>2013-01-06T07:59:52Z</time>
      </trkpt>
      <trkpt lat="49.6412" lon="-1.66555">
        <ele>71.76</ele>
        <time>2013-01-06T08:00:07Z</time>
      </trkpt>
      <trkpt lat="49.64121" lon="-1.66559">
        <ele>70.79</ele>
        <time>2013-01-06T08:00:18Z</time>
      </trkpt>
      <trkpt lat="49.6412" lon="-1.66559">
        <ele>71.76</ele>
        <time>2013-01-06T08:00:39Z</time>
      </trkpt>
      <trkpt lat="49.6412" lon="-1.66559">
        <ele>71.27</ele>
        <time>2013-01-06T08:00:55Z</time>
      </trkpt>
      <trkpt lat="49.64119" lon="-1.66559">
        <ele>71.76</ele>
        <time>2013-01-06T08:01:08Z</time>
      </trkpt>
      <trkpt lat="49.64119" lon="-1.66559">
        <ele>71.27</ele>
        <time>2013-01-06T08:01:33Z</time>
      </trkpt>
      <trkpt lat="49.64119" lon="-1.66559">
        <ele>71.27</ele>
        <time>2013-01-06T08:01:46Z</time>
      </trkpt>
      <trkpt lat="49.64118" lon="-1.66558">
        <ele>71.76</ele>
        <time>2013-01-06T08:02:06Z</time>
      </trkpt>
      <trkpt lat="49.64119" lon="-1.66557">
        <ele>71.27</ele>
        <time>2013-01-06T08:02:19Z</time>
      </trkpt>
      <trkpt lat="49.64119" lon="-1.66555">
        <ele>71.76</ele>
        <time>2013-01-06T08:02:40Z</time>
      </trkpt>
      <trkpt lat="49.64117" lon="-1.66552">
        <ele>71.76</ele>
        <time>2013-01-06T08:02:43Z</time>
      </trkpt>
      <trkpt lat="49.64115" lon="-1.66546">
        <ele>72.24</ele>
        <time>2013-01-06T08:02:46Z</time>
      </trkpt>
      <trkpt lat="49.64111" lon="-1.66524">
        <ele>72.24</ele>
        <time>2013-01-06T08:02:53Z</time>
      </trkpt>
      <trkpt lat="49.64122" lon="-1.66501">
        <ele>72.24</ele>
        <time>2013-01-06T08:03:09Z</time>
      </trkpt>
      <trkpt lat="49.64122" lon="-1.66501">
        <ele>72.24</ele>
        <time>2013-01-06T08:03:37Z</time>
      </trkpt>
      <trkpt lat="49.64122" lon="-1.665">
        <ele>72.24</ele>
        <time>2013-01-06T08:04:01Z</time>
      </trkpt>
      <trkpt lat="49.64122" lon="-1.66499">
        <ele>72.24</ele>
        <time>2013-01-06T08:04:28Z</time>
      </trkpt>
      <trkpt lat="49.64122" lon="-1.66498">
        <ele>72.24</ele>
        <time>2013-01-06T08:04:46Z</time>
      </trkpt>
      <trkpt lat="49.64119" lon="-1.66489">
        <ele>72.72</ele>
        <time>2013-01-06T08:04:52Z</time>
      </trkpt>
      <trkpt lat="49.64102" lon="-1.66469">
        <ele>72.72</ele>
        <time>2013-01-06T08:05:03Z</time>
      </trkpt>
      <trkpt lat="49.64092" lon="-1.66399">
        <ele>72.72</ele>
        <time>2013-01-06T08:05:20Z</time>
      </trkpt>
      <trkpt lat="49.641" lon="-1.66355">
        <ele>72.72</ele>
        <time>2013-01-06T08:05:33Z</time>
      </trkpt>
      <trkpt lat="49.64082" lon="-1.66303">
        <ele>73.68</ele>
        <time>2013-01-06T08:05:49Z</time>
      </trkpt>
      <trkpt lat="49.64057" lon="-1.66253">
        <ele>73.68</ele>
        <time>2013-01-06T08:06:05Z</time>
      </trkpt>
      <trkpt lat="49.64042" lon="-1.66184">
        <ele>72.72</ele>
        <time>2013-01-06T08:06:21Z</time>
      </trkpt>
      <trkpt lat="49.64044" lon="-1.6614">
        <ele>72.24</ele>
        <time>2013-01-06T08:06:29Z</time>
      </trkpt>
      <trkpt lat="49.6405" lon="-1.66108">
        <ele>71.76</ele>
        <time>2013-01-06T08:06:34Z</time>
      </trkpt>
      <trkpt lat="49.64084" lon="-1.66014">
        <ele>68.87</ele>
        <time>2013-01-06T08:06:50Z</time>
      </trkpt>
      <trkpt lat="49.64085" lon="-1.66008">
        <ele>68.87</ele>
        <time>2013-01-06T08:06:51Z</time>
      </trkpt>
      <trkpt lat="49.64085" lon="-1.65995">
        <ele>68.87</ele>
        <time>2013-01-06T08:06:53Z</time>
      </trkpt>
      <trkpt lat="49.64086" lon="-1.65988">
        <ele>68.39</ele>
        <time>2013-01-06T08:06:54Z</time>
      </trkpt>
      <trkpt lat="49.64088" lon="-1.6598">
        <ele>67.43</ele>
        <time>2013-01-06T08:06:55Z</time>
      </trkpt>
      <trkpt lat="49.64091" lon="-1.65973">
        <ele>67.91</ele>
        <time>2013-01-06T08:06:56Z</time>
      </trkpt>
      <trkpt lat="49.64094" lon="-1.65966">
        <ele>66.95</ele>
        <time>2013-01-06T08:06:57Z</time>
      </trkpt>
      <trkpt lat="49.641" lon="-1.65952">
        <ele>66.47</ele>
        <time>2013-01-06T08:06:59Z</time>
      </trkpt>
      <trkpt lat="49.64115" lon="-1.65914">
        <ele>64.55</ele>
        <time>2013-01-06T08:07:04Z</time>
      </trkpt>
      <trkpt lat="49.6412" lon="-1.659">
        <ele>63.58</ele>
        <time>2013-01-06T08:07:06Z</time>
      </trkpt>
      <trkpt lat="49.64121" lon="-1.65894">
        <ele>63.58</ele>
        <time>2013-01-06T08:07:07Z</time>
      </trkpt>
      <trkpt lat="49.6412" lon="-1.65888">
        <ele>63.1</ele>
        <time>2013-01-06T08:07:08Z</time>
      </trkpt>
      <trkpt lat="49.64118" lon="-1.65883">
        <ele>63.1</ele>
        <time>2013-01-06T08:07:09Z</time>
      </trkpt>
      <trkpt lat="49.64115" lon="-1.65879">
        <ele>63.58</ele>
        <time>2013-01-06T08:07:10Z</time>
      </trkpt>
      <trkpt lat="49.6407" lon="-1.65811">
        <ele>60.7</ele>
        <time>2013-01-06T08:07:24Z</time>
      </trkpt>
      <trkpt lat="49.64062" lon="-1.658">
        <ele>59.74</ele>
        <time>2013-01-06T08:07:26Z</time>
      </trkpt>
      <trkpt lat="49.64051" lon="-1.65782">
        <ele>57.82</ele>
        <time>2013-01-06T08:07:29Z</time>
      </trkpt>
      <trkpt lat="49.64048" lon="-1.65776">
        <ele>57.34</ele>
        <time>2013-01-06T08:07:30Z</time>
      </trkpt>
      <trkpt lat="49.64046" lon="-1.65769">
        <ele>56.86</ele>
        <time>2013-01-06T08:07:31Z</time>
      </trkpt>
      <trkpt lat="49.64045" lon="-1.6576">
        <ele>56.37</ele>
        <time>2013-01-06T08:07:32Z</time>
      </trkpt>
      <trkpt lat="49.64045" lon="-1.65751">
        <ele>56.37</ele>
        <time>2013-01-06T08:07:33Z</time>
      </trkpt>
      <trkpt lat="49.64046" lon="-1.65742">
        <ele>55.41</ele>
        <time>2013-01-06T08:07:34Z</time>
      </trkpt>
      <trkpt lat="49.64046" lon="-1.65704">
        <ele>52.53</ele>
        <time>2013-01-06T08:07:38Z</time>
      </trkpt>
      <trkpt lat="49.64046" lon="-1.65697">
        <ele>51.57</ele>
        <time>2013-01-06T08:07:39Z</time>
      </trkpt>
      <trkpt lat="49.64045" lon="-1.65691">
        <ele>51.57</ele>
        <time>2013-01-06T08:07:40Z</time>
      </trkpt>
      <trkpt lat="49.64044" lon="-1.65687">
        <ele>51.09</ele>
        <time>2013-01-06T08:07:41Z</time>
      </trkpt>
      <trkpt lat="49.64042" lon="-1.65684">
        <ele>51.09</ele>
        <time>2013-01-06T08:07:42Z</time>
      </trkpt>
      <trkpt lat="49.64042" lon="-1.65681">
        <ele>51.09</ele>
        <time>2013-01-06T08:07:43Z</time>
      </trkpt>
      <trkpt lat="49.64041" lon="-1.65678">
        <ele>50.61</ele>
        <time>2013-01-06T08:07:44Z</time>
      </trkpt>
      <trkpt lat="49.64041" lon="-1.65675">
        <ele>50.61</ele>
        <time>2013-01-06T08:07:45Z</time>
      </trkpt>
      <trkpt lat="49.64042" lon="-1.6567">
        <ele>50.61</ele>
        <time>2013-01-06T08:07:48Z</time>
      </trkpt>
      <trkpt lat="49.64045" lon="-1.65666">
        <ele>50.61</ele>
        <time>2013-01-06T08:07:53Z</time>
      </trkpt>
      <trkpt lat="49.64047" lon="-1.65664">
        <ele>51.09</ele>
        <time>2013-01-06T08:07:55Z</time>
      </trkpt>
      <trkpt lat="49.64047" lon="-1.65663">
        <ele>51.09</ele>
        <time>2013-01-06T08:07:56Z</time>
      </trkpt>
      <trkpt lat="49.64048" lon="-1.65658">
        <ele>50.61</ele>
        <time>2013-01-06T08:08:00Z</time>
      </trkpt>
      <trkpt lat="49.64044" lon="-1.65645">
        <ele>47.72</ele>
        <time>2013-01-06T08:08:07Z</time>
      </trkpt>
      <trkpt lat="49.64045" lon="-1.65636">
        <ele>46.28</ele>
        <time>2013-01-06T08:08:10Z</time>
      </trkpt>
      <trkpt lat="49.64044" lon="-1.65631">
        <ele>45.32</ele>
        <time>2013-01-06T08:08:12Z</time>
      </trkpt>
      <trkpt lat="49.64042" lon="-1.6563">
        <ele>44.36</ele>
        <time>2013-01-06T08:08:13Z</time>
      </trkpt>
      <trkpt lat="49.6404" lon="-1.6563">
        <ele>43.88</ele>
        <time>2013-01-06T08:08:14Z</time>
      </trkpt>
      <trkpt lat="49.64035" lon="-1.65629">
        <ele>42.92</ele>
        <time>2013-01-06T08:08:17Z</time>
      </trkpt>
      <trkpt lat="49.64031" lon="-1.65628">
        <ele>41.47</ele>
        <time>2013-01-06T08:08:20Z</time>
      </trkpt>
      <trkpt lat="49.64025" lon="-1.65628">
        <ele>39.07</ele>
        <time>2013-01-06T08:08:24Z</time>
      </trkpt>
      <trkpt lat="49.64022" lon="-1.65627">
        <ele>37.15</ele>
        <time>2013-01-06T08:08:25Z</time>
      </trkpt>
      <trkpt lat="49.6402" lon="-1.65624">
        <ele>37.15</ele>
        <time>2013-01-06T08:08:26Z</time>
      </trkpt>
      <trkpt lat="49.64018" lon="-1.65621">
        <ele>36.67</ele>
        <time>2013-01-06T08:08:27Z</time>
      </trkpt>
      <trkpt lat="49.64016" lon="-1.65616">
        <ele>36.19</ele>
        <time>2013-01-06T08:08:28Z</time>
      </trkpt>
      <trkpt lat="49.64013" lon="-1.6561">
        <ele>36.19</ele>
        <time>2013-01-06T08:08:29Z</time>
      </trkpt>
      <trkpt lat="49.64011" lon="-1.65605">
        <ele>36.19</ele>
        <time>2013-01-06T08:08:30Z</time>
      </trkpt>
      <trkpt lat="49.6399" lon="-1.65565">
        <ele>35.23</ele>
        <time>2013-01-06T08:08:40Z</time>
      </trkpt>
      <trkpt lat="49.63982" lon="-1.65549">
        <ele>35.23</ele>
        <time>2013-01-06T08:08:45Z</time>
      </trkpt>
      <trkpt lat="49.63968" lon="-1.65552">
        <ele>35.23</ele>
        <time>2013-01-06T08:08:50Z</time>
      </trkpt>
      <trkpt lat="49.63965" lon="-1.65557">
        <ele>35.23</ele>
        <time>2013-01-06T08:08:51Z</time>
      </trkpt>
      <trkpt lat="49.63961" lon="-1.65561">
        <ele>35.23</ele>
        <time>2013-01-06T08:08:52Z</time>
      </trkpt>
      <trkpt lat="49.63958" lon="-1.65565">
        <ele>34.74</ele>
        <time>2013-01-06T08:08:53Z</time>
      </trkpt>
      <trkpt lat="49.63954" lon="-1.65569">
        <ele>35.23</ele>
        <time>2013-01-06T08:08:54Z</time>
      </trkpt>
      <trkpt lat="49.6395" lon="-1.65573">
        <ele>35.23</ele>
        <time>2013-01-06T08:08:55Z</time>
      </trkpt>
      <trkpt lat="49.63939" lon="-1.65587">
        <ele>35.71</ele>
        <time>2013-01-06T08:08:58Z</time>
      </trkpt>
      <trkpt lat="49.63931" lon="-1.65596">
        <ele>36.67</ele>
        <time>2013-01-06T08:09:00Z</time>
      </trkpt>
      <trkpt lat="49.63928" lon="-1.656">
        <ele>36.19</ele>
        <time>2013-01-06T08:09:01Z</time>
      </trkpt>
      <trkpt lat="49.63925" lon="-1.65605">
        <ele>36.67</ele>
        <time>2013-01-06T08:09:02Z</time>
      </trkpt>
      <trkpt lat="49.63923" lon="-1.65609">
        <ele>36.67</ele>
        <time>2013-01-06T08:09:03Z</time>
      </trkpt>
      <trkpt lat="49.63921" lon="-1.65612">
        <ele>36.67</ele>
        <time>2013-01-06T08:09:04Z</time>
      </trkpt>
      <trkpt lat="49.63919" lon="-1.65617">
        <ele>36.67</ele>
        <time>2013-01-06T08:09:05Z</time>
      </trkpt>
      <trkpt lat="49.63904" lon="-1.65656">
        <ele>38.11</ele>
        <time>2013-01-06T08:09:16Z</time>
      </trkpt>
      <trkpt lat="49.63879" lon="-1.65677">
        <ele>39.55</ele>
        <time>2013-01-06T08:09:28Z</time>
      </trkpt>
      <trkpt lat="49.63867" lon="-1.65704">
        <ele>40.51</ele>
        <time>2013-01-06T08:09:39Z</time>
      </trkpt>
      <trkpt lat="49.63852" lon="-1.6574">
        <ele>41.95</ele>
        <time>2013-01-06T08:09:48Z</time>
      </trkpt>
      <trkpt lat="49.63838" lon="-1.65769">
        <ele>42.44</ele>
        <time>2013-01-06T08:09:57Z</time>
      </trkpt>
      <trkpt lat="49.63821" lon="-1.65807">
        <ele>42.44</ele>
        <time>2013-01-06T08:10:08Z</time>
      </trkpt>
      <trkpt lat="49.63802" lon="-1.65839">
        <ele>42.92</ele>
        <time>2013-01-06T08:10:16Z</time>
      </trkpt>
      <trkpt lat="49.6378" lon="-1.65882">
        <ele>44.36</ele>
        <time>2013-01-06T08:10:28Z</time>
      </trkpt>
      <trkpt lat="49.6376" lon="-1.65916">
        <ele>44.36</ele>
        <time>2013-01-06T08:10:37Z</time>
      </trkpt>
      <trkpt lat="49.63751" lon="-1.65929">
        <ele>45.32</ele>
        <time>2013-01-06T08:10:42Z</time>
      </trkpt>
      <trkpt lat="49.63736" lon="-1.65967">
        <ele>46.76</ele>
        <time>2013-01-06T08:10:52Z</time>
      </trkpt>
      <trkpt lat="49.63727" lon="-1.65978">
        <ele>47.24</ele>
        <time>2013-01-06T08:11:04Z</time>
      </trkpt>
      <trkpt lat="49.63724" lon="-1.65982">
        <ele>47.72</ele>
        <time>2013-01-06T08:11:23Z</time>
      </trkpt>
      <trkpt lat="49.63717" lon="-1.65991">
        <ele>49.16</ele>
        <time>2013-01-06T08:11:31Z</time>
      </trkpt>
      <trkpt lat="49.63712" lon="-1.66002">
        <ele>50.61</ele>
        <time>2013-01-06T08:11:36Z</time>
      </trkpt>
      <trkpt lat="49.63706" lon="-1.66009">
        <ele>51.57</ele>
        <time>2013-01-06T08:11:40Z</time>
      </trkpt>
      <trkpt lat="49.63688" lon="-1.66041">
        <ele>53.49</ele>
        <time>2013-01-06T08:11:53Z</time>
      </trkpt>
      <trkpt lat="49.63662" lon="-1.6608">
        <ele>53.01</ele>
        <time>2013-01-06T08:12:03Z</time>
      </trkpt>
      <trkpt lat="49.63635" lon="-1.6611">
        <ele>53.01</ele>
        <time>2013-01-06T08:12:15Z</time>
      </trkpt>
      <trkpt lat="49.63631" lon="-1.6612">
        <ele>52.53</ele>
        <time>2013-01-06T08:12:18Z</time>
      </trkpt>
      <trkpt lat="49.6362" lon="-1.66149">
        <ele>53.01</ele>
        <time>2013-01-06T08:12:27Z</time>
      </trkpt>
      <trkpt lat="49.63619" lon="-1.66151">
        <ele>53.49</ele>
        <time>2013-01-06T08:12:28Z</time>
      </trkpt>
      <trkpt lat="49.63615" lon="-1.6616">
        <ele>54.45</ele>
        <time>2013-01-06T08:12:31Z</time>
      </trkpt>
      <trkpt lat="49.63613" lon="-1.66169">
        <ele>54.45</ele>
        <time>2013-01-06T08:12:35Z</time>
      </trkpt>
      <trkpt lat="49.63602" lon="-1.66203">
        <ele>53.97</ele>
        <time>2013-01-06T08:12:48Z</time>
      </trkpt>
      <trkpt lat="49.63594" lon="-1.66227">
        <ele>53.97</ele>
        <time>2013-01-06T08:12:56Z</time>
      </trkpt>
      <trkpt lat="49.63588" lon="-1.66238">
        <ele>53.49</ele>
        <time>2013-01-06T08:13:00Z</time>
      </trkpt>
      <trkpt lat="49.63587" lon="-1.66246">
        <ele>53.01</ele>
        <time>2013-01-06T08:13:03Z</time>
      </trkpt>
      <trkpt lat="49.63569" lon="-1.66281">
        <ele>54.93</ele>
        <time>2013-01-06T08:13:18Z</time>
      </trkpt>
      <trkpt lat="49.63562" lon="-1.66287">
        <ele>55.41</ele>
        <time>2013-01-06T08:13:25Z</time>
      </trkpt>
      <trkpt lat="49.6355" lon="-1.66292">
        <ele>57.34</ele>
        <time>2013-01-06T08:13:31Z</time>
      </trkpt>
      <trkpt lat="49.63546" lon="-1.66288">
        <ele>59.74</ele>
        <time>2013-01-06T08:13:35Z</time>
      </trkpt>
      <trkpt lat="49.63543" lon="-1.66286">
        <ele>61.66</ele>
        <time>2013-01-06T08:13:38Z</time>
      </trkpt>
      <trkpt lat="49.63522" lon="-1.66287">
        <ele>63.58</ele>
        <time>2013-01-06T08:13:52Z</time>
      </trkpt>
      <trkpt lat="49.63512" lon="-1.66293">
        <ele>64.07</ele>
        <time>2013-01-06T08:14:00Z</time>
      </trkpt>
      <trkpt lat="49.6351" lon="-1.66292">
        <ele>64.55</ele>
        <time>2013-01-06T08:14:02Z</time>
      </trkpt>
      <trkpt lat="49.63503" lon="-1.66292">
        <ele>65.99</ele>
        <time>2013-01-06T08:14:09Z</time>
      </trkpt>
      <trkpt lat="49.63502" lon="-1.6629">
        <ele>66.47</ele>
        <time>2013-01-06T08:14:11Z</time>
      </trkpt>
      <trkpt lat="49.63486" lon="-1.66292">
        <ele>68.39</ele>
        <time>2013-01-06T08:14:23Z</time>
      </trkpt>
      <trkpt lat="49.63481" lon="-1.66291">
        <ele>68.87</ele>
        <time>2013-01-06T08:14:35Z</time>
      </trkpt>
      <trkpt lat="49.63482" lon="-1.6632">
        <ele>69.35</ele>
        <time>2013-01-06T08:14:48Z</time>
      </trkpt>
      <trkpt lat="49.63482" lon="-1.66305">
        <ele>69.35</ele>
        <time>2013-01-06T08:14:59Z</time>
      </trkpt>
      <trkpt lat="49.63482" lon="-1.66304">
        <ele>69.35</ele>
        <time>2013-01-06T08:15:25Z</time>
      </trkpt>
      <trkpt lat="49.63482" lon="-1.66304">
        <ele>69.35</ele>
        <time>2013-01-06T08:15:47Z</time>
      </trkpt>
      <trkpt lat="49.63481" lon="-1.66302">
        <ele>69.83</ele>
        <time>2013-01-06T08:15:51Z</time>
      </trkpt>
      <trkpt lat="49.6348" lon="-1.66299">
        <ele>69.83</ele>
        <time>2013-01-06T08:16:03Z</time>
      </trkpt>
      <trkpt lat="49.63481" lon="-1.66299">
        <ele>69.35</ele>
        <time>2013-01-06T08:16:26Z</time>
      </trkpt>
      <trkpt lat="49.63481" lon="-1.66295">
        <ele>69.83</ele>
        <time>2013-01-06T08:16:30Z</time>
      </trkpt>
      <trkpt lat="49.63478" lon="-1.66283">
        <ele>70.31</ele>
        <time>2013-01-06T08:16:35Z</time>
      </trkpt>
      <trkpt lat="49.63483" lon="-1.66224">
        <ele>72.24</ele>
        <time>2013-01-06T08:16:46Z</time>
      </trkpt>
      <trkpt lat="49.63494" lon="-1.66172">
        <ele>73.2</ele>
        <time>2013-01-06T08:16:57Z</time>
      </trkpt>
      <trkpt lat="49.63495" lon="-1.6617">
        <ele>73.68</ele>
        <time>2013-01-06T08:17:08Z</time>
      </trkpt>
      <trkpt lat="49.63495" lon="-1.66164">
        <ele>73.2</ele>
        <time>2013-01-06T08:17:21Z</time>
      </trkpt>
      <trkpt lat="49.63495" lon="-1.66161">
        <ele>73.2</ele>
        <time>2013-01-06T08:17:22Z</time>
      </trkpt>
      <trkpt lat="49.63496" lon="-1.66156">
        <ele>73.68</ele>
        <time>2013-01-06T08:17:23Z</time>
      </trkpt>
      <trkpt lat="49.63498" lon="-1.66152">
        <ele>73.2</ele>
        <time>2013-01-06T08:17:24Z</time>
      </trkpt>
      <trkpt lat="49.635" lon="-1.66148">
        <ele>73.68</ele>
        <time>2013-01-06T08:17:25Z</time>
      </trkpt>
      <trkpt lat="49.63502" lon="-1.66144">
        <ele>73.68</ele>
        <time>2013-01-06T08:17:26Z</time>
      </trkpt>
      <trkpt lat="49.63504" lon="-1.66139">
        <ele>74.16</ele>
        <time>2013-01-06T08:17:27Z</time>
      </trkpt>
      <trkpt lat="49.63529" lon="-1.66078">
        <ele>75.12</ele>
        <time>2013-01-06T08:17:42Z</time>
      </trkpt>
      <trkpt lat="49.63553" lon="-1.65998">
        <ele>76.56</ele>
        <time>2013-01-06T08:18:00Z</time>
      </trkpt>
      <trkpt lat="49.63564" lon="-1.65908">
        <ele>78</ele>
        <time>2013-01-06T08:18:18Z</time>
      </trkpt>
      <trkpt lat="49.63558" lon="-1.65805">
        <ele>76.56</ele>
        <time>2013-01-06T08:18:35Z</time>
      </trkpt>
      <trkpt lat="49.6354" lon="-1.65695">
        <ele>74.16</ele>
        <time>2013-01-06T08:18:49Z</time>
      </trkpt>
      <trkpt lat="49.6352" lon="-1.65578">
        <ele>71.76</ele>
        <time>2013-01-06T08:19:04Z</time>
      </trkpt>
      <trkpt lat="49.63512" lon="-1.6553">
        <ele>70.79</ele>
        <time>2013-01-06T08:19:17Z</time>
      </trkpt>
      <trkpt lat="49.63511" lon="-1.65525">
        <ele>70.79</ele>
        <time>2013-01-06T08:19:19Z</time>
      </trkpt>
      <trkpt lat="49.63504" lon="-1.65513">
        <ele>71.27</ele>
        <time>2013-01-06T08:19:23Z</time>
      </trkpt>
      <trkpt lat="49.63502" lon="-1.65507">
        <ele>71.27</ele>
        <time>2013-01-06T08:19:24Z</time>
      </trkpt>
      <trkpt lat="49.635" lon="-1.65501">
        <ele>70.31</ele>
        <time>2013-01-06T08:19:25Z</time>
      </trkpt>
      <trkpt lat="49.635" lon="-1.65496">
        <ele>70.79</ele>
        <time>2013-01-06T08:19:26Z</time>
      </trkpt>
      <trkpt lat="49.63499" lon="-1.65491">
        <ele>70.79</ele>
        <time>2013-01-06T08:19:27Z</time>
      </trkpt>
      <trkpt lat="49.63498" lon="-1.65488">
        <ele>70.31</ele>
        <time>2013-01-06T08:19:28Z</time>
      </trkpt>
      <trkpt lat="49.63496" lon="-1.65487">
        <ele>70.31</ele>
        <time>2013-01-06T08:19:29Z</time>
      </trkpt>
      <trkpt lat="49.63493" lon="-1.65486">
        <ele>70.31</ele>
        <time>2013-01-06T08:19:30Z</time>
      </trkpt>
      <trkpt lat="49.63491" lon="-1.65487">
        <ele>69.83</ele>
        <time>2013-01-06T08:19:31Z</time>
      </trkpt>
      <trkpt lat="49.63489" lon="-1.6549">
        <ele>69.83</ele>
        <time>2013-01-06T08:19:32Z</time>
      </trkpt>
      <trkpt lat="49.63489" lon="-1.65492">
        <ele>69.83</ele>
        <time>2013-01-06T08:19:33Z</time>
      </trkpt>
      <trkpt lat="49.63487" lon="-1.65496">
        <ele>70.31</ele>
        <time>2013-01-06T08:19:34Z</time>
      </trkpt>
      <trkpt lat="49.63486" lon="-1.65499">
        <ele>69.83</ele>
        <time>2013-01-06T08:19:35Z</time>
      </trkpt>
      <trkpt lat="49.63485" lon="-1.65504">
        <ele>70.31</ele>
        <time>2013-01-06T08:19:36Z</time>
      </trkpt>
      <trkpt lat="49.63465" lon="-1.65536">
        <ele>70.79</ele>
        <time>2013-01-06T08:19:44Z</time>
      </trkpt>
      <trkpt lat="49.63462" lon="-1.65536">
        <ele>70.79</ele>
        <time>2013-01-06T08:19:45Z</time>
      </trkpt>
      <trkpt lat="49.63459" lon="-1.65533">
        <ele>71.76</ele>
        <time>2013-01-06T08:19:46Z</time>
      </trkpt>
      <trkpt lat="49.63456" lon="-1.65529">
        <ele>71.76</ele>
        <time>2013-01-06T08:19:47Z</time>
      </trkpt>
      <trkpt lat="49.63454" lon="-1.65525">
        <ele>71.76</ele>
        <time>2013-01-06T08:19:48Z</time>
      </trkpt>
      <trkpt lat="49.63427" lon="-1.65475">
        <ele>75.12</ele>
        <time>2013-01-06T08:20:03Z</time>
      </trkpt>
      <trkpt lat="49.63411" lon="-1.65452">
        <ele>75.6</ele>
        <time>2013-01-06T08:20:14Z</time>
      </trkpt>
      <trkpt lat="49.63404" lon="-1.65456">
        <ele>76.08</ele>
        <time>2013-01-06T08:20:18Z</time>
      </trkpt>
      <trkpt lat="49.63376" lon="-1.65498">
        <ele>78</ele>
        <time>2013-01-06T08:20:33Z</time>
      </trkpt>
      <trkpt lat="49.63332" lon="-1.65572">
        <ele>80.41</ele>
        <time>2013-01-06T08:20:53Z</time>
      </trkpt>
      <trkpt lat="49.63301" lon="-1.65621">
        <ele>82.33</ele>
        <time>2013-01-06T08:21:09Z</time>
      </trkpt>
      <trkpt lat="49.633" lon="-1.65659">
        <ele>81.85</ele>
        <time>2013-01-06T08:21:19Z</time>
      </trkpt>
      <trkpt lat="49.63301" lon="-1.65665">
        <ele>81.37</ele>
        <time>2013-01-06T08:21:20Z</time>
      </trkpt>
      <trkpt lat="49.63301" lon="-1.65672">
        <ele>80.89</ele>
        <time>2013-01-06T08:21:21Z</time>
      </trkpt>
      <trkpt lat="49.63295" lon="-1.65782">
        <ele>77.04</ele>
        <time>2013-01-06T08:21:34Z</time>
      </trkpt>
      <trkpt lat="49.63293" lon="-1.65793">
        <ele>77.04</ele>
        <time>2013-01-06T08:21:35Z</time>
      </trkpt>
      <trkpt lat="49.6328" lon="-1.65848">
        <ele>74.64</ele>
        <time>2013-01-06T08:21:40Z</time>
      </trkpt>
      <trkpt lat="49.63278" lon="-1.65859">
        <ele>74.16</ele>
        <time>2013-01-06T08:21:41Z</time>
      </trkpt>
      <trkpt lat="49.63274" lon="-1.65905">
        <ele>73.68</ele>
        <time>2013-01-06T08:21:46Z</time>
      </trkpt>
      <trkpt lat="49.63274" lon="-1.65913">
        <ele>74.16</ele>
        <time>2013-01-06T08:21:47Z</time>
      </trkpt>
      <trkpt lat="49.63275" lon="-1.6592">
        <ele>73.68</ele>
        <time>2013-01-06T08:21:48Z</time>
      </trkpt>
      <trkpt lat="49.63276" lon="-1.65974">
        <ele>74.64</ele>
        <time>2013-01-06T08:21:59Z</time>
      </trkpt>
      <trkpt lat="49.63273" lon="-1.65987">
        <ele>74.16</ele>
        <time>2013-01-06T08:22:03Z</time>
      </trkpt>
      <trkpt lat="49.63278" lon="-1.66041">
        <ele>77.52</ele>
        <time>2013-01-06T08:22:14Z</time>
      </trkpt>
      <trkpt lat="49.63277" lon="-1.66095">
        <ele>78.97</ele>
        <time>2013-01-06T08:22:26Z</time>
      </trkpt>
      <trkpt lat="49.63277" lon="-1.66099">
        <ele>79.45</ele>
        <time>2013-01-06T08:22:27Z</time>
      </trkpt>
      <trkpt lat="49.63277" lon="-1.66102">
        <ele>79.93</ele>
        <time>2013-01-06T08:22:28Z</time>
      </trkpt>
      <trkpt lat="49.63277" lon="-1.66152">
        <ele>81.85</ele>
        <time>2013-01-06T08:22:40Z</time>
      </trkpt>
      <trkpt lat="49.63273" lon="-1.66209">
        <ele>83.29</ele>
        <time>2013-01-06T08:22:52Z</time>
      </trkpt>
      <trkpt lat="49.63269" lon="-1.66247">
        <ele>83.29</ele>
        <time>2013-01-06T08:23:01Z</time>
      </trkpt>
      <trkpt lat="49.63266" lon="-1.6625">
        <ele>82.81</ele>
        <time>2013-01-06T08:23:02Z</time>
      </trkpt>
      <trkpt lat="49.63263" lon="-1.66253">
        <ele>82.81</ele>
        <time>2013-01-06T08:23:03Z</time>
      </trkpt>
      <trkpt lat="49.63228" lon="-1.66273">
        <ele>83.29</ele>
        <time>2013-01-06T08:23:14Z</time>
      </trkpt>
      <trkpt lat="49.63196" lon="-1.6629">
        <ele>83.77</ele>
        <time>2013-01-06T08:23:25Z</time>
      </trkpt>
      <trkpt lat="49.63173" lon="-1.66297">
        <ele>84.73</ele>
        <time>2013-01-06T08:23:34Z</time>
      </trkpt>
      <trkpt lat="49.63171" lon="-1.663">
        <ele>84.73</ele>
        <time>2013-01-06T08:23:35Z</time>
      </trkpt>
      <trkpt lat="49.6317" lon="-1.66304">
        <ele>84.25</ele>
        <time>2013-01-06T08:23:36Z</time>
      </trkpt>
      <trkpt lat="49.63169" lon="-1.66307">
        <ele>84.73</ele>
        <time>2013-01-06T08:23:37Z</time>
      </trkpt>
      <trkpt lat="49.63168" lon="-1.6631">
        <ele>84.73</ele>
        <time>2013-01-06T08:23:38Z</time>
      </trkpt>
      <trkpt lat="49.63168" lon="-1.66314">
        <ele>84.25</ele>
        <time>2013-01-06T08:23:39Z</time>
      </trkpt>
      <trkpt lat="49.63166" lon="-1.66348">
        <ele>82.81</ele>
        <time>2013-01-06T08:23:45Z</time>
      </trkpt>
      <trkpt lat="49.63164" lon="-1.66355">
        <ele>82.81</ele>
        <time>2013-01-06T08:23:46Z</time>
      </trkpt>
      <trkpt lat="49.63161" lon="-1.66361">
        <ele>83.29</ele>
        <time>2013-01-06T08:23:47Z</time>
      </trkpt>
      <trkpt lat="49.63158" lon="-1.66367">
        <ele>82.81</ele>
        <time>2013-01-06T08:23:48Z</time>
      </trkpt>
      <trkpt lat="49.63155" lon="-1.66373">
        <ele>82.33</ele>
        <time>2013-01-06T08:23:49Z</time>
      </trkpt>
      <trkpt lat="49.63151" lon="-1.6638">
        <ele>81.85</ele>
        <time>2013-01-06T08:23:50Z</time>
      </trkpt>
      <trkpt lat="49.63147" lon="-1.66387">
        <ele>81.37</ele>
        <time>2013-01-06T08:23:51Z</time>
      </trkpt>
      <trkpt lat="49.6311" lon="-1.66452">
        <ele>77.52</ele>
        <time>2013-01-06T08:24:00Z</time>
      </trkpt>
      <trkpt lat="49.63096" lon="-1.66478">
        <ele>76.56</ele>
        <time>2013-01-06T08:24:03Z</time>
      </trkpt>
      <trkpt lat="49.63093" lon="-1.66488">
        <ele>75.6</ele>
        <time>2013-01-06T08:24:04Z</time>
      </trkpt>
      <trkpt lat="49.63082" lon="-1.66513">
        <ele>72.24</ele>
        <time>2013-01-06T08:24:07Z</time>
      </trkpt>
      <trkpt lat="49.63071" lon="-1.66536">
        <ele>70.31</ele>
        <time>2013-01-06T08:24:10Z</time>
      </trkpt>
      <trkpt lat="49.63065" lon="-1.66554">
        <ele>69.83</ele>
        <time>2013-01-06T08:24:12Z</time>
      </trkpt>
      <trkpt lat="49.63063" lon="-1.66564">
        <ele>68.39</ele>
        <time>2013-01-06T08:24:13Z</time>
      </trkpt>
      <trkpt lat="49.6306" lon="-1.66575">
        <ele>67.91</ele>
        <time>2013-01-06T08:24:14Z</time>
      </trkpt>
      <trkpt lat="49.63057" lon="-1.66586">
        <ele>66.95</ele>
        <time>2013-01-06T08:24:15Z</time>
      </trkpt>
      <trkpt lat="49.63053" lon="-1.66595">
        <ele>66.47</ele>
        <time>2013-01-06T08:24:16Z</time>
      </trkpt>
      <trkpt lat="49.63049" lon="-1.66603">
        <ele>66.95</ele>
        <time>2013-01-06T08:24:17Z</time>
      </trkpt>
      <trkpt lat="49.63044" lon="-1.66609">
        <ele>65.99</ele>
        <time>2013-01-06T08:24:18Z</time>
      </trkpt>
      <trkpt lat="49.63038" lon="-1.66619">
        <ele>65.03</ele>
        <time>2013-01-06T08:24:21Z</time>
      </trkpt>
      <trkpt lat="49.63038" lon="-1.66621">
        <ele>65.03</ele>
        <time>2013-01-06T08:24:22Z</time>
      </trkpt>
      <trkpt lat="49.63038" lon="-1.66624">
        <ele>65.51</ele>
        <time>2013-01-06T08:24:23Z</time>
      </trkpt>
      <trkpt lat="49.63035" lon="-1.66651">
        <ele>65.03</ele>
        <time>2013-01-06T08:24:32Z</time>
      </trkpt>
      <trkpt lat="49.63035" lon="-1.66655">
        <ele>65.51</ele>
        <time>2013-01-06T08:24:33Z</time>
      </trkpt>
      <trkpt lat="49.63035" lon="-1.66659">
        <ele>65.51</ele>
        <time>2013-01-06T08:24:34Z</time>
      </trkpt>
      <trkpt lat="49.63036" lon="-1.66673">
        <ele>67.43</ele>
        <time>2013-01-06T08:24:41Z</time>
      </trkpt>
      <trkpt lat="49.63035" lon="-1.66674">
        <ele>67.91</ele>
        <time>2013-01-06T08:24:42Z</time>
      </trkpt>
      <trkpt lat="49.63034" lon="-1.66677">
        <ele>68.39</ele>
        <time>2013-01-06T08:24:48Z</time>
      </trkpt>
      <trkpt lat="49.63025" lon="-1.66692">
        <ele>70.79</ele>
        <time>2013-01-06T08:24:57Z</time>
      </trkpt>
      <trkpt lat="49.63015" lon="-1.66708">
        <ele>73.2</ele>
        <time>2013-01-06T08:25:07Z</time>
      </trkpt>
      <trkpt lat="49.62994" lon="-1.66722">
        <ele>75.6</ele>
        <time>2013-01-06T08:25:19Z</time>
      </trkpt>
      <trkpt lat="49.6298" lon="-1.66731">
        <ele>75.6</ele>
        <time>2013-01-06T08:25:28Z</time>
      </trkpt>
      <trkpt lat="49.62969" lon="-1.66732">
        <ele>76.08</ele>
        <time>2013-01-06T08:25:34Z</time>
      </trkpt>
      <trkpt lat="49.62966" lon="-1.66731">
        <ele>76.08</ele>
        <time>2013-01-06T08:25:35Z</time>
      </trkpt>
      <trkpt lat="49.62962" lon="-1.66732">
        <ele>75.12</ele>
        <time>2013-01-06T08:25:36Z</time>
      </trkpt>
      <trkpt lat="49.62959" lon="-1.66733">
        <ele>75.6</ele>
        <time>2013-01-06T08:25:37Z</time>
      </trkpt>
      <trkpt lat="49.62956" lon="-1.66733">
        <ele>75.12</ele>
        <time>2013-01-06T08:25:38Z</time>
      </trkpt>
      <trkpt lat="49.62953" lon="-1.66734">
        <ele>75.12</ele>
        <time>2013-01-06T08:25:39Z</time>
      </trkpt>
      <trkpt lat="49.6295" lon="-1.66735">
        <ele>75.6</ele>
        <time>2013-01-06T08:25:40Z</time>
      </trkpt>
      <trkpt lat="49.6294" lon="-1.6674">
        <ele>75.6</ele>
        <time>2013-01-06T08:25:44Z</time>
      </trkpt>
      <trkpt lat="49.62938" lon="-1.66741">
        <ele>75.6</ele>
        <time>2013-01-06T08:25:45Z</time>
      </trkpt>
      <trkpt lat="49.62901" lon="-1.66759">
        <ele>76.08</ele>
        <time>2013-01-06T08:25:56Z</time>
      </trkpt>
      <trkpt lat="49.6286" lon="-1.66766">
        <ele>75.6</ele>
        <time>2013-01-06T08:26:08Z</time>
      </trkpt>
      <trkpt lat="49.62855" lon="-1.66766">
        <ele>75.6</ele>
        <time>2013-01-06T08:26:09Z</time>
      </trkpt>
      <trkpt lat="49.62811" lon="-1.66772">
        <ele>75.6</ele>
        <time>2013-01-06T08:26:23Z</time>
      </trkpt>
      <trkpt lat="49.62771" lon="-1.66771">
        <ele>78</ele>
        <time>2013-01-06T08:26:36Z</time>
      </trkpt>
      <trkpt lat="49.62741" lon="-1.66776">
        <ele>77.52</ele>
        <time>2013-01-06T08:26:45Z</time>
      </trkpt>
      <trkpt lat="49.62735" lon="-1.66775">
        <ele>77.04</ele>
        <time>2013-01-06T08:26:48Z</time>
      </trkpt>
      <trkpt lat="49.62733" lon="-1.66774">
        <ele>76.08</ele>
        <time>2013-01-06T08:26:49Z</time>
      </trkpt>
      <trkpt lat="49.62731" lon="-1.66774">
        <ele>76.08</ele>
        <time>2013-01-06T08:26:50Z</time>
      </trkpt>
      <trkpt lat="49.6273" lon="-1.66776">
        <ele>76.56</ele>
        <time>2013-01-06T08:26:51Z</time>
      </trkpt>
      <trkpt lat="49.62729" lon="-1.66778">
        <ele>76.56</ele>
        <time>2013-01-06T08:26:52Z</time>
      </trkpt>
      <trkpt lat="49.62728" lon="-1.66781">
        <ele>76.56</ele>
        <time>2013-01-06T08:26:53Z</time>
      </trkpt>
      <trkpt lat="49.62727" lon="-1.66783">
        <ele>76.56</ele>
        <time>2013-01-06T08:26:54Z</time>
      </trkpt>
      <trkpt lat="49.62726" lon="-1.66785">
        <ele>76.56</ele>
        <time>2013-01-06T08:26:55Z</time>
      </trkpt>
      <trkpt lat="49.62715" lon="-1.66821">
        <ele>76.56</ele>
        <time>2013-01-06T08:27:08Z</time>
      </trkpt>
      <trkpt lat="49.62703" lon="-1.66868">
        <ele>77.52</ele>
        <time>2013-01-06T08:27:22Z</time>
      </trkpt>
      <trkpt lat="49.62692" lon="-1.6691">
        <ele>78.97</ele>
        <time>2013-01-06T08:27:37Z</time>
      </trkpt>
      <trkpt lat="49.62688" lon="-1.66924">
        <ele>78.97</ele>
        <time>2013-01-06T08:27:42Z</time>
      </trkpt>
      <trkpt lat="49.62687" lon="-1.66926">
        <ele>79.45</ele>
        <time>2013-01-06T08:27:43Z</time>
      </trkpt>
      <trkpt lat="49.62683" lon="-1.66968">
        <ele>80.89</ele>
        <time>2013-01-06T08:27:55Z</time>
      </trkpt>
      <trkpt lat="49.62683" lon="-1.67024">
        <ele>83.29</ele>
        <time>2013-01-06T08:28:09Z</time>
      </trkpt>
      <trkpt lat="49.62682" lon="-1.67036">
        <ele>83.77</ele>
        <time>2013-01-06T08:28:13Z</time>
      </trkpt>
      <trkpt lat="49.62679" lon="-1.67044">
        <ele>84.25</ele>
        <time>2013-01-06T08:28:16Z</time>
      </trkpt>
      <trkpt lat="49.62677" lon="-1.67044">
        <ele>84.25</ele>
        <time>2013-01-06T08:28:17Z</time>
      </trkpt>
      <trkpt lat="49.62676" lon="-1.67046">
        <ele>83.77</ele>
        <time>2013-01-06T08:28:18Z</time>
      </trkpt>
      <trkpt lat="49.62675" lon="-1.67047">
        <ele>83.77</ele>
        <time>2013-01-06T08:28:19Z</time>
      </trkpt>
      <trkpt lat="49.62673" lon="-1.67048">
        <ele>83.77</ele>
        <time>2013-01-06T08:28:20Z</time>
      </trkpt>
      <trkpt lat="49.62672" lon="-1.67048">
        <ele>83.77</ele>
        <time>2013-01-06T08:28:21Z</time>
      </trkpt>
      <trkpt lat="49.62658" lon="-1.6705">
        <ele>83.77</ele>
        <time>2013-01-06T08:28:33Z</time>
      </trkpt>
      <trkpt lat="49.6262" lon="-1.67057">
        <ele>84.73</ele>
        <time>2013-01-06T08:28:48Z</time>
      </trkpt>
      <trkpt lat="49.62583" lon="-1.67046">
        <ele>85.69</ele>
        <time>2013-01-06T08:29:01Z</time>
      </trkpt>
      <trkpt lat="49.62543" lon="-1.67035">
        <ele>88.1</ele>
        <time>2013-01-06T08:29:17Z</time>
      </trkpt>
      <trkpt lat="49.62534" lon="-1.67038">
        <ele>89.06</ele>
        <time>2013-01-06T08:29:29Z</time>
      </trkpt>
      <trkpt lat="49.62533" lon="-1.67038">
        <ele>89.06</ele>
        <time>2013-01-06T08:29:43Z</time>
      </trkpt>
      <trkpt lat="49.62532" lon="-1.6704">
        <ele>89.06</ele>
        <time>2013-01-06T08:29:50Z</time>
      </trkpt>
      <trkpt lat="49.62531" lon="-1.67041">
        <ele>89.06</ele>
        <time>2013-01-06T08:29:51Z</time>
      </trkpt>
      <trkpt lat="49.6253" lon="-1.67043">
        <ele>89.54</ele>
        <time>2013-01-06T08:29:52Z</time>
      </trkpt>
      <trkpt lat="49.62514" lon="-1.67065">
        <ele>90.5</ele>
        <time>2013-01-06T08:30:07Z</time>
      </trkpt>
      <trkpt lat="49.62499" lon="-1.67086">
        <ele>90.5</ele>
        <time>2013-01-06T08:30:20Z</time>
      </trkpt>
      <trkpt lat="49.62476" lon="-1.67113">
        <ele>92.9</ele>
        <time>2013-01-06T08:30:36Z</time>
      </trkpt>
      <trkpt lat="49.62447" lon="-1.67148">
        <ele>95.31</ele>
        <time>2013-01-06T08:30:51Z</time>
      </trkpt>
      <trkpt lat="49.62425" lon="-1.6717">
        <ele>98.19</ele>
        <time>2013-01-06T08:31:05Z</time>
      </trkpt>
      <trkpt lat="49.62403" lon="-1.67193">
        <ele>99.63</ele>
        <time>2013-01-06T08:31:16Z</time>
      </trkpt>
      <trkpt lat="49.62382" lon="-1.6722">
        <ele>103</ele>
        <time>2013-01-06T08:31:27Z</time>
      </trkpt>
      <trkpt lat="49.62369" lon="-1.67237">
        <ele>105.4</ele>
        <time>2013-01-06T08:31:37Z</time>
      </trkpt>
      <trkpt lat="49.62366" lon="-1.67238">
        <ele>105.88</ele>
        <time>2013-01-06T08:31:39Z</time>
      </trkpt>
      <trkpt lat="49.62349" lon="-1.67251">
        <ele>107.81</ele>
        <time>2013-01-06T08:31:51Z</time>
      </trkpt>
      <trkpt lat="49.62336" lon="-1.67264">
        <ele>108.77</ele>
        <time>2013-01-06T08:32:04Z</time>
      </trkpt>
      <trkpt lat="49.6233" lon="-1.67271">
        <ele>110.21</ele>
        <time>2013-01-06T08:32:09Z</time>
      </trkpt>
      <trkpt lat="49.62327" lon="-1.67274">
        <ele>109.73</ele>
        <time>2013-01-06T08:32:10Z</time>
      </trkpt>
      <trkpt lat="49.62325" lon="-1.67277">
        <ele>109.73</ele>
        <time>2013-01-06T08:32:11Z</time>
      </trkpt>
      <trkpt lat="49.62323" lon="-1.6728">
        <ele>109.73</ele>
        <time>2013-01-06T08:32:12Z</time>
      </trkpt>
      <trkpt lat="49.62322" lon="-1.67284">
        <ele>109.73</ele>
        <time>2013-01-06T08:32:13Z</time>
      </trkpt>
      <trkpt lat="49.62321" lon="-1.67286">
        <ele>110.21</ele>
        <time>2013-01-06T08:32:14Z</time>
      </trkpt>
      <trkpt lat="49.6232" lon="-1.67293">
        <ele>110.21</ele>
        <time>2013-01-06T08:32:16Z</time>
      </trkpt>
      <trkpt lat="49.62319" lon="-1.67297">
        <ele>110.69</ele>
        <time>2013-01-06T08:32:17Z</time>
      </trkpt>
      <trkpt lat="49.62318" lon="-1.67302">
        <ele>110.69</ele>
        <time>2013-01-06T08:32:18Z</time>
      </trkpt>
      <trkpt lat="49.62316" lon="-1.67308">
        <ele>110.69</ele>
        <time>2013-01-06T08:32:19Z</time>
      </trkpt>
      <trkpt lat="49.62314" lon="-1.67314">
        <ele>110.69</ele>
        <time>2013-01-06T08:32:20Z</time>
      </trkpt>
      <trkpt lat="49.62312" lon="-1.67319">
        <ele>111.17</ele>
        <time>2013-01-06T08:32:21Z</time>
      </trkpt>
      <trkpt lat="49.62311" lon="-1.67324">
        <ele>111.17</ele>
        <time>2013-01-06T08:32:22Z</time>
      </trkpt>
      <trkpt lat="49.62309" lon="-1.67329">
        <ele>111.17</ele>
        <time>2013-01-06T08:32:23Z</time>
      </trkpt>
      <trkpt lat="49.62307" lon="-1.67334">
        <ele>111.17</ele>
        <time>2013-01-06T08:32:24Z</time>
      </trkpt>
      <trkpt lat="49.62303" lon="-1.67353">
        <ele>111.65</ele>
        <time>2013-01-06T08:32:28Z</time>
      </trkpt>
      <trkpt lat="49.62301" lon="-1.67355">
        <ele>111.65</ele>
        <time>2013-01-06T08:32:29Z</time>
      </trkpt>
      <trkpt lat="49.623" lon="-1.67358">
        <ele>112.13</ele>
        <time>2013-01-06T08:32:30Z</time>
      </trkpt>
      <trkpt lat="49.62298" lon="-1.67362">
        <ele>112.13</ele>
        <time>2013-01-06T08:32:31Z</time>
      </trkpt>
      <trkpt lat="49.62298" lon="-1.67366">
        <ele>112.13</ele>
        <time>2013-01-06T08:32:32Z</time>
      </trkpt>
      <trkpt lat="49.62297" lon="-1.6737">
        <ele>111.65</ele>
        <time>2013-01-06T08:32:33Z</time>
      </trkpt>
      <trkpt lat="49.62296" lon="-1.67373">
        <ele>112.13</ele>
        <time>2013-01-06T08:32:34Z</time>
      </trkpt>
      <trkpt lat="49.62292" lon="-1.67395">
        <ele>113.09</ele>
        <time>2013-01-06T08:32:42Z</time>
      </trkpt>
      <trkpt lat="49.62293" lon="-1.67398">
        <ele>113.09</ele>
        <time>2013-01-06T08:32:43Z</time>
      </trkpt>
      <trkpt lat="49.62292" lon="-1.67402">
        <ele>114.05</ele>
        <time>2013-01-06T08:32:44Z</time>
      </trkpt>
      <trkpt lat="49.62291" lon="-1.67413">
        <ele>113.57</ele>
        <time>2013-01-06T08:32:47Z</time>
      </trkpt>
      <trkpt lat="49.6229" lon="-1.67417">
        <ele>114.05</ele>
        <time>2013-01-06T08:32:48Z</time>
      </trkpt>
      <trkpt lat="49.62289" lon="-1.67421">
        <ele>113.57</ele>
        <time>2013-01-06T08:32:49Z</time>
      </trkpt>
      <trkpt lat="49.62289" lon="-1.67424">
        <ele>114.05</ele>
        <time>2013-01-06T08:32:50Z</time>
      </trkpt>
      <trkpt lat="49.62288" lon="-1.67428">
        <ele>113.57</ele>
        <time>2013-01-06T08:32:51Z</time>
      </trkpt>
      <trkpt lat="49.62287" lon="-1.67431">
        <ele>114.53</ele>
        <time>2013-01-06T08:32:52Z</time>
      </trkpt>
      <trkpt lat="49.62286" lon="-1.67435">
        <ele>114.05</ele>
        <time>2013-01-06T08:32:53Z</time>
      </trkpt>
      <trkpt lat="49.62286" lon="-1.67441">
        <ele>114.53</ele>
        <time>2013-01-06T08:32:54Z</time>
      </trkpt>
      <trkpt lat="49.62286" lon="-1.67445">
        <ele>114.53</ele>
        <time>2013-01-06T08:32:55Z</time>
      </trkpt>
      <trkpt lat="49.62286" lon="-1.67447">
        <ele>114.53</ele>
        <time>2013-01-06T08:32:56Z</time>
      </trkpt>
      <trkpt lat="49.62283" lon="-1.67492">
        <ele>115.01</ele>
        <time>2013-01-06T08:33:07Z</time>
      </trkpt>
      <trkpt lat="49.62282" lon="-1.67496">
        <ele>115.01</ele>
        <time>2013-01-06T08:33:08Z</time>
      </trkpt>
      <trkpt lat="49.62281" lon="-1.67499">
        <ele>115.5</ele>
        <time>2013-01-06T08:33:09Z</time>
      </trkpt>
      <trkpt lat="49.62278" lon="-1.67502">
        <ele>115.98</ele>
        <time>2013-01-06T08:33:10Z</time>
      </trkpt>
      <trkpt lat="49.62276" lon="-1.67505">
        <ele>115.98</ele>
        <time>2013-01-06T08:33:11Z</time>
      </trkpt>
      <trkpt lat="49.62274" lon="-1.67507">
        <ele>115.98</ele>
        <time>2013-01-06T08:33:12Z</time>
      </trkpt>
      <trkpt lat="49.62266" lon="-1.67517">
        <ele>117.42</ele>
        <time>2013-01-06T08:33:17Z</time>
      </trkpt>
      <trkpt lat="49.62264" lon="-1.67521">
        <ele>117.9</ele>
        <time>2013-01-06T08:33:19Z</time>
      </trkpt>
      <trkpt lat="49.62263" lon="-1.67523">
        <ele>118.38</ele>
        <time>2013-01-06T08:33:20Z</time>
      </trkpt>
      <trkpt lat="49.62261" lon="-1.67524">
        <ele>118.38</ele>
        <time>2013-01-06T08:33:21Z</time>
      </trkpt>
      <trkpt lat="49.6225" lon="-1.67536">
        <ele>119.82</ele>
        <time>2013-01-06T08:33:28Z</time>
      </trkpt>
      <trkpt lat="49.62248" lon="-1.67538">
        <ele>120.3</ele>
        <time>2013-01-06T08:33:29Z</time>
      </trkpt>
      <trkpt lat="49.62238" lon="-1.67546">
        <ele>121.74</ele>
        <time>2013-01-06T08:33:34Z</time>
      </trkpt>
      <trkpt lat="49.62237" lon="-1.67548">
        <ele>121.74</ele>
        <time>2013-01-06T08:33:35Z</time>
      </trkpt>
      <trkpt lat="49.62238" lon="-1.6755">
        <ele>121.74</ele>
        <time>2013-01-06T08:33:36Z</time>
      </trkpt>
      <trkpt lat="49.62238" lon="-1.67553">
        <ele>121.74</ele>
        <time>2013-01-06T08:33:37Z</time>
      </trkpt>
      <trkpt lat="49.62238" lon="-1.67556">
        <ele>121.74</ele>
        <time>2013-01-06T08:33:38Z</time>
      </trkpt>
      <trkpt lat="49.62245" lon="-1.67598">
        <ele>122.22</ele>
        <time>2013-01-06T08:33:53Z</time>
      </trkpt>
      <trkpt lat="49.62253" lon="-1.67634">
        <ele>121.26</ele>
        <time>2013-01-06T08:34:06Z</time>
      </trkpt>
      <trkpt lat="49.62262" lon="-1.67675">
        <ele>118.86</ele>
        <time>2013-01-06T08:34:17Z</time>
      </trkpt>
      <trkpt lat="49.6226" lon="-1.67678">
        <ele>119.82</ele>
        <time>2013-01-06T08:34:18Z</time>
      </trkpt>
      <trkpt lat="49.62258" lon="-1.67681">
        <ele>119.34</ele>
        <time>2013-01-06T08:34:19Z</time>
      </trkpt>
      <trkpt lat="49.62256" lon="-1.67683">
        <ele>120.3</ele>
        <time>2013-01-06T08:34:20Z</time>
      </trkpt>
      <trkpt lat="49.62254" lon="-1.67685">
        <ele>120.3</ele>
        <time>2013-01-06T08:34:21Z</time>
      </trkpt>
      <trkpt lat="49.62253" lon="-1.67686">
        <ele>120.3</ele>
        <time>2013-01-06T08:34:22Z</time>
      </trkpt>
      <trkpt lat="49.62251" lon="-1.67687">
        <ele>120.78</ele>
        <time>2013-01-06T08:34:23Z</time>
      </trkpt>
      <trkpt lat="49.62249" lon="-1.67688">
        <ele>120.78</ele>
        <time>2013-01-06T08:34:24Z</time>
      </trkpt>
      <trkpt lat="49.62247" lon="-1.67689">
        <ele>121.26</ele>
        <time>2013-01-06T08:34:25Z</time>
      </trkpt>
      <trkpt lat="49.62239" lon="-1.67691">
        <ele>122.22</ele>
        <time>2013-01-06T08:34:30Z</time>
      </trkpt>
      <trkpt lat="49.62225" lon="-1.67695">
        <ele>125.59</ele>
        <time>2013-01-06T08:34:38Z</time>
      </trkpt>
      <trkpt lat="49.62223" lon="-1.67695">
        <ele>125.11</ele>
        <time>2013-01-06T08:34:39Z</time>
      </trkpt>
      <trkpt lat="49.62221" lon="-1.67697">
        <ele>126.07</ele>
        <time>2013-01-06T08:34:41Z</time>
      </trkpt>
      <trkpt lat="49.62218" lon="-1.67699">
        <ele>126.55</ele>
        <time>2013-01-06T08:34:44Z</time>
      </trkpt>
      <trkpt lat="49.62204" lon="-1.67708">
        <ele>128.95</ele>
        <time>2013-01-06T08:34:50Z</time>
      </trkpt>
      <trkpt lat="49.62185" lon="-1.67726">
        <ele>131.36</ele>
        <time>2013-01-06T08:34:59Z</time>
      </trkpt>
      <trkpt lat="49.62184" lon="-1.67727">
        <ele>131.36</ele>
        <time>2013-01-06T08:35:00Z</time>
      </trkpt>
      <trkpt lat="49.62182" lon="-1.6773">
        <ele>131.84</ele>
        <time>2013-01-06T08:35:01Z</time>
      </trkpt>
      <trkpt lat="49.6218" lon="-1.67732">
        <ele>132.32</ele>
        <time>2013-01-06T08:35:02Z</time>
      </trkpt>
      <trkpt lat="49.62177" lon="-1.67734">
        <ele>132.32</ele>
        <time>2013-01-06T08:35:03Z</time>
      </trkpt>
      <trkpt lat="49.62162" lon="-1.67748">
        <ele>136.16</ele>
        <time>2013-01-06T08:35:12Z</time>
      </trkpt>
      <trkpt lat="49.6216" lon="-1.6775">
        <ele>136.16</ele>
        <time>2013-01-06T08:35:13Z</time>
      </trkpt>
      <trkpt lat="49.62151" lon="-1.67756">
        <ele>137.61</ele>
        <time>2013-01-06T08:35:19Z</time>
      </trkpt>
      <trkpt lat="49.62149" lon="-1.67757">
        <ele>137.61</ele>
        <time>2013-01-06T08:35:20Z</time>
      </trkpt>
      <trkpt lat="49.62147" lon="-1.67758">
        <ele>138.09</ele>
        <time>2013-01-06T08:35:21Z</time>
      </trkpt>
      <trkpt lat="49.62145" lon="-1.67758">
        <ele>138.09</ele>
        <time>2013-01-06T08:35:22Z</time>
      </trkpt>
      <trkpt lat="49.62143" lon="-1.67759">
        <ele>138.57</ele>
        <time>2013-01-06T08:35:23Z</time>
      </trkpt>
      <trkpt lat="49.62141" lon="-1.67759">
        <ele>139.05</ele>
        <time>2013-01-06T08:35:24Z</time>
      </trkpt>
      <trkpt lat="49.62138" lon="-1.67759">
        <ele>139.53</ele>
        <time>2013-01-06T08:35:25Z</time>
      </trkpt>
      <trkpt lat="49.62135" lon="-1.6776">
        <ele>139.05</ele>
        <time>2013-01-06T08:35:26Z</time>
      </trkpt>
      <trkpt lat="49.62132" lon="-1.6776">
        <ele>140.01</ele>
        <time>2013-01-06T08:35:27Z</time>
      </trkpt>
      <trkpt lat="49.62121" lon="-1.67763">
        <ele>140.97</ele>
        <time>2013-01-06T08:35:31Z</time>
      </trkpt>
      <trkpt lat="49.62101" lon="-1.67776">
        <ele>144.34</ele>
        <time>2013-01-06T08:35:40Z</time>
      </trkpt>
      <trkpt lat="49.62077" lon="-1.67789">
        <ele>146.26</ele>
        <time>2013-01-06T08:35:51Z</time>
      </trkpt>
      <trkpt lat="49.62056" lon="-1.67804">
        <ele>147.22</ele>
        <time>2013-01-06T08:35:59Z</time>
      </trkpt>
      <trkpt lat="49.62055" lon="-1.67805">
        <ele>146.74</ele>
        <time>2013-01-06T08:36:00Z</time>
      </trkpt>
      <trkpt lat="49.62053" lon="-1.67807">
        <ele>147.22</ele>
        <time>2013-01-06T08:36:01Z</time>
      </trkpt>
      <trkpt lat="49.62051" lon="-1.67807">
        <ele>146.74</ele>
        <time>2013-01-06T08:36:02Z</time>
      </trkpt>
      <trkpt lat="49.62048" lon="-1.67807">
        <ele>147.7</ele>
        <time>2013-01-06T08:36:03Z</time>
      </trkpt>
      <trkpt lat="49.62013" lon="-1.67817">
        <ele>148.66</ele>
        <time>2013-01-06T08:36:14Z</time>
      </trkpt>
      <trkpt lat="49.62" lon="-1.67819">
        <ele>148.66</ele>
        <time>2013-01-06T08:36:19Z</time>
      </trkpt>
      <trkpt lat="49.61999" lon="-1.67821">
        <ele>149.14</ele>
        <time>2013-01-06T08:36:20Z</time>
      </trkpt>
      <trkpt lat="49.61959" lon="-1.67819">
        <ele>149.14</ele>
        <time>2013-01-06T08:36:32Z</time>
      </trkpt>
      <trkpt lat="49.61926" lon="-1.67817">
        <ele>149.62</ele>
        <time>2013-01-06T08:36:42Z</time>
      </trkpt>
      <trkpt lat="49.61886" lon="-1.67838">
        <ele>150.58</ele>
        <time>2013-01-06T08:36:53Z</time>
      </trkpt>
      <trkpt lat="49.61873" lon="-1.67852">
        <ele>150.58</ele>
        <time>2013-01-06T08:36:57Z</time>
      </trkpt>
      <trkpt lat="49.61869" lon="-1.67856">
        <ele>150.1</ele>
        <time>2013-01-06T08:36:58Z</time>
      </trkpt>
      <trkpt lat="49.6186" lon="-1.67864">
        <ele>150.58</ele>
        <time>2013-01-06T08:37:00Z</time>
      </trkpt>
      <trkpt lat="49.61805" lon="-1.6793">
        <ele>150.58</ele>
        <time>2013-01-06T08:37:11Z</time>
      </trkpt>
      <trkpt lat="49.61781" lon="-1.67951">
        <ele>150.58</ele>
        <time>2013-01-06T08:37:15Z</time>
      </trkpt>
      <trkpt lat="49.61756" lon="-1.67967">
        <ele>150.58</ele>
        <time>2013-01-06T08:37:19Z</time>
      </trkpt>
      <trkpt lat="49.61706" lon="-1.67991">
        <ele>149.14</ele>
        <time>2013-01-06T08:37:30Z</time>
      </trkpt>
      <trkpt lat="49.6169" lon="-1.67999">
        <ele>148.66</ele>
        <time>2013-01-06T08:37:38Z</time>
      </trkpt>
      <trkpt lat="49.61688" lon="-1.67998">
        <ele>148.18</ele>
        <time>2013-01-06T08:37:39Z</time>
      </trkpt>
      <trkpt lat="49.61686" lon="-1.67997">
        <ele>148.66</ele>
        <time>2013-01-06T08:37:40Z</time>
      </trkpt>
      <trkpt lat="49.61685" lon="-1.67996">
        <ele>148.66</ele>
        <time>2013-01-06T08:37:41Z</time>
      </trkpt>
      <trkpt lat="49.61685" lon="-1.67994">
        <ele>149.14</ele>
        <time>2013-01-06T08:37:42Z</time>
      </trkpt>
      <trkpt lat="49.61685" lon="-1.67991">
        <ele>148.18</ele>
        <time>2013-01-06T08:37:43Z</time>
      </trkpt>
      <trkpt lat="49.61686" lon="-1.67989">
        <ele>148.66</ele>
        <time>2013-01-06T08:37:44Z</time>
      </trkpt>
      <trkpt lat="49.61686" lon="-1.67987">
        <ele>149.14</ele>
        <time>2013-01-06T08:37:45Z</time>
      </trkpt>
      <trkpt lat="49.61687" lon="-1.67984">
        <ele>149.14</ele>
        <time>2013-01-06T08:37:46Z</time>
      </trkpt>
      <trkpt lat="49.61688" lon="-1.67981">
        <ele>149.14</ele>
        <time>2013-01-06T08:37:47Z</time>
      </trkpt>
      <trkpt lat="49.61688" lon="-1.67978">
        <ele>149.14</ele>
        <time>2013-01-06T08:37:48Z</time>
      </trkpt>
      <trkpt lat="49.61688" lon="-1.67975">
        <ele>149.14</ele>
        <time>2013-01-06T08:37:49Z</time>
      </trkpt>
      <trkpt lat="49.61688" lon="-1.67972">
        <ele>149.62</ele>
        <time>2013-01-06T08:37:50Z</time>
      </trkpt>
      <trkpt lat="49.61689" lon="-1.6797">
        <ele>149.14</ele>
        <time>2013-01-06T08:37:51Z</time>
      </trkpt>
      <trkpt lat="49.6169" lon="-1.6797">
        <ele>149.14</ele>
        <time>2013-01-06T08:37:52Z</time>
      </trkpt>
      <trkpt lat="49.61691" lon="-1.67971">
        <ele>149.14</ele>
        <time>2013-01-06T08:38:03Z</time>
      </trkpt>
      <trkpt lat="49.61691" lon="-1.6797">
        <ele>149.14</ele>
        <time>2013-01-06T08:38:18Z</time>
      </trkpt>
      <trkpt lat="49.6169" lon="-1.67969">
        <ele>149.14</ele>
        <time>2013-01-06T08:38:35Z</time>
      </trkpt>
      <trkpt lat="49.61689" lon="-1.67969">
        <ele>149.14</ele>
        <time>2013-01-06T08:38:46Z</time>
      </trkpt>
      <trkpt lat="49.61689" lon="-1.67969">
        <ele>149.14</ele>
        <time>2013-01-06T08:38:57Z</time>
      </trkpt>
      <trkpt lat="49.61689" lon="-1.6797">
        <ele>148.66</ele>
        <time>2013-01-06T08:39:11Z</time>
      </trkpt>
      <trkpt lat="49.61689" lon="-1.67971">
        <ele>149.14</ele>
        <time>2013-01-06T08:39:24Z</time>
      </trkpt>
      <trkpt lat="49.61689" lon="-1.67973">
        <ele>149.14</ele>
        <time>2013-01-06T08:39:39Z</time>
      </trkpt>
      <trkpt lat="49.61688" lon="-1.67974">
        <ele>149.14</ele>
        <time>2013-01-06T08:39:44Z</time>
      </trkpt>
      <trkpt lat="49.61687" lon="-1.67975">
        <ele>149.14</ele>
        <time>2013-01-06T08:39:45Z</time>
      </trkpt>
      <trkpt lat="49.61685" lon="-1.67976">
        <ele>149.14</ele>
        <time>2013-01-06T08:39:57Z</time>
      </trkpt>
      <trkpt lat="49.61685" lon="-1.67977">
        <ele>148.66</ele>
        <time>2013-01-06T08:40:16Z</time>
      </trkpt>
      <trkpt lat="49.61683" lon="-1.67976">
        <ele>148.66</ele>
        <time>2013-01-06T08:40:43Z</time>
      </trkpt>
      <trkpt lat="49.61683" lon="-1.67976">
        <ele>148.66</ele>
        <time>2013-01-06T08:40:53Z</time>
      </trkpt>
      <trkpt lat="49.61683" lon="-1.67976">
        <ele>149.62</ele>
        <time>2013-01-06T08:41:08Z</time>
      </trkpt>
      <trkpt lat="49.61683" lon="-1.67976">
        <ele>143.85</ele>
        <time>2013-01-06T08:41:11Z</time>
      </trkpt>
      <trkpt lat="49.61683" lon="-1.67976">
        <ele>148.66</ele>
        <time>2013-01-06T08:41:12Z</time>
      </trkpt>
      <trkpt lat="49.61683" lon="-1.67977">
        <ele>147.7</ele>
        <time>2013-01-06T08:41:16Z</time>
      </trkpt>
      <trkpt lat="49.61683" lon="-1.67977">
        <ele>149.14</ele>
        <time>2013-01-06T08:41:18Z</time>
      </trkpt>
      <trkpt lat="49.61683" lon="-1.67976">
        <ele>148.66</ele>
        <time>2013-01-06T08:41:30Z</time>
      </trkpt>
      <trkpt lat="49.61682" lon="-1.67975">
        <ele>148.66</ele>
        <time>2013-01-06T08:41:51Z</time>
      </trkpt>
      <trkpt lat="49.61682" lon="-1.67975">
        <ele>148.66</ele>
        <time>2013-01-06T08:42:24Z</time>
      </trkpt>
      <trkpt lat="49.61683" lon="-1.67975">
        <ele>148.66</ele>
        <time>2013-01-06T08:42:58Z</time>
      </trkpt>
      <trkpt lat="49.61683" lon="-1.67975">
        <ele>148.66</ele>
        <time>2013-01-06T08:43:24Z</time>
      </trkpt>
      <trkpt lat="49.61683" lon="-1.67975">
        <ele>148.66</ele>
        <time>2013-01-06T08:43:43Z</time>
      </trkpt>
      <trkpt lat="49.61683" lon="-1.67976">
        <ele>148.66</ele>
        <time>2013-01-06T08:44:02Z</time>
      </trkpt>
      <trkpt lat="49.61682" lon="-1.67977">
        <ele>148.66</ele>
        <time>2013-01-06T08:44:16Z</time>
      </trkpt>
      <trkpt lat="49.61683" lon="-1.67978">
        <ele>148.18</ele>
        <time>2013-01-06T08:44:36Z</time>
      </trkpt>
      <trkpt lat="49.61683" lon="-1.67978">
        <ele>149.14</ele>
        <time>2013-01-06T08:45:07Z</time>
      </trkpt>
      <trkpt lat="49.6168" lon="-1.67977">
        <ele>149.14</ele>
        <time>2013-01-06T08:45:10Z</time>
      </trkpt>
      <trkpt lat="49.61678" lon="-1.67976">
        <ele>149.14</ele>
        <time>2013-01-06T08:45:11Z</time>
      </trkpt>
      <trkpt lat="49.61676" lon="-1.67975">
        <ele>149.14</ele>
        <time>2013-01-06T08:45:12Z</time>
      </trkpt>
      <trkpt lat="49.61648" lon="-1.67957">
        <ele>147.7</ele>
        <time>2013-01-06T08:45:24Z</time>
      </trkpt>
      <trkpt lat="49.61611" lon="-1.67939">
        <ele>144.82</ele>
        <time>2013-01-06T08:45:32Z</time>
      </trkpt>
      <trkpt lat="49.61606" lon="-1.67936">
        <ele>145.3</ele>
        <time>2013-01-06T08:45:33Z</time>
      </trkpt>
      <trkpt lat="49.61587" lon="-1.67926">
        <ele>143.85</ele>
        <time>2013-01-06T08:45:36Z</time>
      </trkpt>
      <trkpt lat="49.61547" lon="-1.67909">
        <ele>140.49</ele>
        <time>2013-01-06T08:45:42Z</time>
      </trkpt>
      <trkpt lat="49.61542" lon="-1.6791">
        <ele>140.49</ele>
        <time>2013-01-06T08:45:43Z</time>
      </trkpt>
      <trkpt lat="49.61531" lon="-1.67913">
        <ele>139.53</ele>
        <time>2013-01-06T08:45:47Z</time>
      </trkpt>
      <trkpt lat="49.61529" lon="-1.67916">
        <ele>139.05</ele>
        <time>2013-01-06T08:45:48Z</time>
      </trkpt>
      <trkpt lat="49.61528" lon="-1.67919">
        <ele>139.05</ele>
        <time>2013-01-06T08:45:49Z</time>
      </trkpt>
      <trkpt lat="49.61527" lon="-1.67923">
        <ele>139.53</ele>
        <time>2013-01-06T08:45:50Z</time>
      </trkpt>
      <trkpt lat="49.61525" lon="-1.67927">
        <ele>139.53</ele>
        <time>2013-01-06T08:45:51Z</time>
      </trkpt>
      <trkpt lat="49.61512" lon="-1.67976">
        <ele>139.53</ele>
        <time>2013-01-06T08:46:01Z</time>
      </trkpt>
      <trkpt lat="49.61507" lon="-1.68024">
        <ele>139.05</ele>
        <time>2013-01-06T08:46:12Z</time>
      </trkpt>
      <trkpt lat="49.61508" lon="-1.68041">
        <ele>139.05</ele>
        <time>2013-01-06T08:46:16Z</time>
      </trkpt>
      <trkpt lat="49.61507" lon="-1.68045">
        <ele>139.53</ele>
        <time>2013-01-06T08:46:17Z</time>
      </trkpt>
      <trkpt lat="49.61499" lon="-1.68087">
        <ele>139.53</ele>
        <time>2013-01-06T08:46:27Z</time>
      </trkpt>
      <trkpt lat="49.61499" lon="-1.6809">
        <ele>139.53</ele>
        <time>2013-01-06T08:46:28Z</time>
      </trkpt>
      <trkpt lat="49.61499" lon="-1.68094">
        <ele>139.53</ele>
        <time>2013-01-06T08:46:29Z</time>
      </trkpt>
      <trkpt lat="49.61498" lon="-1.68098">
        <ele>139.53</ele>
        <time>2013-01-06T08:46:30Z</time>
      </trkpt>
      <trkpt lat="49.61498" lon="-1.68102">
        <ele>139.53</ele>
        <time>2013-01-06T08:46:31Z</time>
      </trkpt>
      <trkpt lat="49.61497" lon="-1.68106">
        <ele>139.53</ele>
        <time>2013-01-06T08:46:32Z</time>
      </trkpt>
      <trkpt lat="49.61497" lon="-1.6811">
        <ele>140.01</ele>
        <time>2013-01-06T08:46:33Z</time>
      </trkpt>
      <trkpt lat="49.61484" lon="-1.68146">
        <ele>140.49</ele>
        <time>2013-01-06T08:46:43Z</time>
      </trkpt>
      <trkpt lat="49.61473" lon="-1.68189">
        <ele>140.97</ele>
        <time>2013-01-06T08:46:53Z</time>
      </trkpt>
      <trkpt lat="49.61456" lon="-1.68232">
        <ele>142.41</ele>
        <time>2013-01-06T08:47:04Z</time>
      </trkpt>
      <trkpt lat="49.61435" lon="-1.68293">
        <ele>142.89</ele>
        <time>2013-01-06T08:47:18Z</time>
      </trkpt>
      <trkpt lat="49.6142" lon="-1.68328">
        <ele>142.41</ele>
        <time>2013-01-06T08:47:29Z</time>
      </trkpt>
      <trkpt lat="49.61411" lon="-1.68359">
        <ele>143.37</ele>
        <time>2013-01-06T08:47:39Z</time>
      </trkpt>
      <trkpt lat="49.6141" lon="-1.68361">
        <ele>143.37</ele>
        <time>2013-01-06T08:47:40Z</time>
      </trkpt>
      <trkpt lat="49.61408" lon="-1.68363">
        <ele>144.34</ele>
        <time>2013-01-06T08:47:41Z</time>
      </trkpt>
      <trkpt lat="49.61399" lon="-1.68384">
        <ele>144.34</ele>
        <time>2013-01-06T08:47:49Z</time>
      </trkpt>
      <trkpt lat="49.61375" lon="-1.68419">
        <ele>144.82</ele>
        <time>2013-01-06T08:48:00Z</time>
      </trkpt>
      <trkpt lat="49.61351" lon="-1.6846">
        <ele>144.82</ele>
        <time>2013-01-06T08:48:11Z</time>
      </trkpt>
      <trkpt lat="49.61326" lon="-1.68498">
        <ele>146.26</ele>
        <time>2013-01-06T08:48:24Z</time>
      </trkpt>
      <trkpt lat="49.61314" lon="-1.68531">
        <ele>146.26</ele>
        <time>2013-01-06T08:48:34Z</time>
      </trkpt>
      <trkpt lat="49.61313" lon="-1.68534">
        <ele>145.78</ele>
        <time>2013-01-06T08:48:35Z</time>
      </trkpt>
      <trkpt lat="49.61312" lon="-1.68536">
        <ele>146.74</ele>
        <time>2013-01-06T08:48:36Z</time>
      </trkpt>
      <trkpt lat="49.61302" lon="-1.6857">
        <ele>147.22</ele>
        <time>2013-01-06T08:48:48Z</time>
      </trkpt>
      <trkpt lat="49.61292" lon="-1.68607">
        <ele>147.22</ele>
        <time>2013-01-06T08:48:58Z</time>
      </trkpt>
      <trkpt lat="49.61289" lon="-1.68638">
        <ele>147.22</ele>
        <time>2013-01-06T08:49:05Z</time>
      </trkpt>
      <trkpt lat="49.61291" lon="-1.68646">
        <ele>147.7</ele>
        <time>2013-01-06T08:49:06Z</time>
      </trkpt>
      <trkpt lat="49.61291" lon="-1.68651">
        <ele>147.7</ele>
        <time>2013-01-06T08:49:07Z</time>
      </trkpt>
      <trkpt lat="49.61289" lon="-1.68657">
        <ele>148.18</ele>
        <time>2013-01-06T08:49:08Z</time>
      </trkpt>
      <trkpt lat="49.61288" lon="-1.68663">
        <ele>148.18</ele>
        <time>2013-01-06T08:49:09Z</time>
      </trkpt>
      <trkpt lat="49.61287" lon="-1.68666">
        <ele>148.66</ele>
        <time>2013-01-06T08:49:10Z</time>
      </trkpt>
      <trkpt lat="49.61286" lon="-1.6867">
        <ele>148.66</ele>
        <time>2013-01-06T08:49:11Z</time>
      </trkpt>
      <trkpt lat="49.61283" lon="-1.68735">
        <ele>149.62</ele>
        <time>2013-01-06T08:49:24Z</time>
      </trkpt>
      <trkpt lat="49.61274" lon="-1.68783">
        <ele>151.06</ele>
        <time>2013-01-06T08:49:32Z</time>
      </trkpt>
      <trkpt lat="49.61271" lon="-1.68789">
        <ele>150.1</ele>
        <time>2013-01-06T08:49:33Z</time>
      </trkpt>
      <trkpt lat="49.61268" lon="-1.68797">
        <ele>150.58</ele>
        <time>2013-01-06T08:49:34Z</time>
      </trkpt>
      <trkpt lat="49.61265" lon="-1.68805">
        <ele>151.06</ele>
        <time>2013-01-06T08:49:35Z</time>
      </trkpt>
      <trkpt lat="49.61263" lon="-1.68813">
        <ele>150.58</ele>
        <time>2013-01-06T08:49:36Z</time>
      </trkpt>
      <trkpt lat="49.61254" lon="-1.68839">
        <ele>151.06</ele>
        <time>2013-01-06T08:49:40Z</time>
      </trkpt>
      <trkpt lat="49.61238" lon="-1.68886">
        <ele>150.58</ele>
        <time>2013-01-06T08:49:51Z</time>
      </trkpt>
      <trkpt lat="49.61237" lon="-1.68892">
        <ele>150.58</ele>
        <time>2013-01-06T08:49:54Z</time>
      </trkpt>
      <trkpt lat="49.61236" lon="-1.68894">
        <ele>150.1</ele>
        <time>2013-01-06T08:49:55Z</time>
      </trkpt>
      <trkpt lat="49.61234" lon="-1.68897">
        <ele>150.1</ele>
        <time>2013-01-06T08:49:56Z</time>
      </trkpt>
      <trkpt lat="49.61233" lon="-1.68898">
        <ele>149.62</ele>
        <time>2013-01-06T08:49:57Z</time>
      </trkpt>
      <trkpt lat="49.61231" lon="-1.689">
        <ele>150.1</ele>
        <time>2013-01-06T08:49:58Z</time>
      </trkpt>
      <trkpt lat="49.61229" lon="-1.68901">
        <ele>150.1</ele>
        <time>2013-01-06T08:49:59Z</time>
      </trkpt>
      <trkpt lat="49.61228" lon="-1.68901">
        <ele>149.62</ele>
        <time>2013-01-06T08:50:00Z</time>
      </trkpt>
      <trkpt lat="49.61226" lon="-1.68903">
        <ele>149.62</ele>
        <time>2013-01-06T08:50:01Z</time>
      </trkpt>
      <trkpt lat="49.61227" lon="-1.68906">
        <ele>149.62</ele>
        <time>2013-01-06T08:50:14Z</time>
      </trkpt>
      <trkpt lat="49.61215" lon="-1.68925">
        <ele>150.58</ele>
        <time>2013-01-06T08:50:26Z</time>
      </trkpt>
      <trkpt lat="49.6121" lon="-1.68937">
        <ele>150.58</ele>
        <time>2013-01-06T08:50:29Z</time>
      </trkpt>
      <trkpt lat="49.61208" lon="-1.68939">
        <ele>150.1</ele>
        <time>2013-01-06T08:50:30Z</time>
      </trkpt>
      <trkpt lat="49.61206" lon="-1.68941">
        <ele>150.58</ele>
        <time>2013-01-06T08:50:31Z</time>
      </trkpt>
      <trkpt lat="49.61175" lon="-1.68986">
        <ele>151.06</ele>
        <time>2013-01-06T08:50:48Z</time>
      </trkpt>
      <trkpt lat="49.61154" lon="-1.69016">
        <ele>151.54</ele>
        <time>2013-01-06T08:50:58Z</time>
      </trkpt>
      <trkpt lat="49.61125" lon="-1.69046">
        <ele>152.03</ele>
        <time>2013-01-06T08:51:12Z</time>
      </trkpt>
      <trkpt lat="49.61097" lon="-1.69075">
        <ele>152.51</ele>
        <time>2013-01-06T08:51:24Z</time>
      </trkpt>
      <trkpt lat="49.61051" lon="-1.69107">
        <ele>154.91</ele>
        <time>2013-01-06T08:51:40Z</time>
      </trkpt>
      <trkpt lat="49.61025" lon="-1.69127">
        <ele>157.31</ele>
        <time>2013-01-06T08:51:51Z</time>
      </trkpt>
      <trkpt lat="49.61011" lon="-1.69145">
        <ele>157.31</ele>
        <time>2013-01-06T08:52:01Z</time>
      </trkpt>
      <trkpt lat="49.60984" lon="-1.69169">
        <ele>159.24</ele>
        <time>2013-01-06T08:52:13Z</time>
      </trkpt>
      <trkpt lat="49.60976" lon="-1.6917">
        <ele>161.16</ele>
        <time>2013-01-06T08:52:16Z</time>
      </trkpt>
      <trkpt lat="49.60951" lon="-1.69173">
        <ele>163.56</ele>
        <time>2013-01-06T08:52:26Z</time>
      </trkpt>
      <trkpt lat="49.60931" lon="-1.6918">
        <ele>166.45</ele>
        <time>2013-01-06T08:52:35Z</time>
      </trkpt>
      <trkpt lat="49.60928" lon="-1.69181">
        <ele>166.45</ele>
        <time>2013-01-06T08:52:36Z</time>
      </trkpt>
      <trkpt lat="49.60923" lon="-1.69183">
        <ele>167.89</ele>
        <time>2013-01-06T08:52:38Z</time>
      </trkpt>
      <trkpt lat="49.60899" lon="-1.69207">
        <ele>170.29</ele>
        <time>2013-01-06T08:52:49Z</time>
      </trkpt>
      <trkpt lat="49.60878" lon="-1.69231">
        <ele>172.69</ele>
        <time>2013-01-06T08:52:59Z</time>
      </trkpt>
      <trkpt lat="49.60853" lon="-1.69264">
        <ele>172.69</ele>
        <time>2013-01-06T08:53:11Z</time>
      </trkpt>
      <trkpt lat="49.60827" lon="-1.69293">
        <ele>173.17</ele>
        <time>2013-01-06T08:53:22Z</time>
      </trkpt>
      <trkpt lat="49.60803" lon="-1.69323">
        <ele>173.66</ele>
        <time>2013-01-06T08:53:33Z</time>
      </trkpt>
      <trkpt lat="49.60762" lon="-1.69371">
        <ele>174.62</ele>
        <time>2013-01-06T08:53:47Z</time>
      </trkpt>
      <trkpt lat="49.6074" lon="-1.69408">
        <ele>173.17</ele>
        <time>2013-01-06T08:53:58Z</time>
      </trkpt>
      <trkpt lat="49.60712" lon="-1.69454">
        <ele>171.73</ele>
        <time>2013-01-06T08:54:09Z</time>
      </trkpt>
      <trkpt lat="49.60692" lon="-1.69484">
        <ele>169.81</ele>
        <time>2013-01-06T08:54:15Z</time>
      </trkpt>
      <trkpt lat="49.60689" lon="-1.6949">
        <ele>169.81</ele>
        <time>2013-01-06T08:54:16Z</time>
      </trkpt>
      <trkpt lat="49.60685" lon="-1.69495">
        <ele>169.33</ele>
        <time>2013-01-06T08:54:17Z</time>
      </trkpt>
      <trkpt lat="49.60682" lon="-1.695">
        <ele>168.85</ele>
        <time>2013-01-06T08:54:18Z</time>
      </trkpt>
      <trkpt lat="49.60678" lon="-1.69506">
        <ele>169.33</ele>
        <time>2013-01-06T08:54:19Z</time>
      </trkpt>
      <trkpt lat="49.60675" lon="-1.69512">
        <ele>168.85</ele>
        <time>2013-01-06T08:54:20Z</time>
      </trkpt>
      <trkpt lat="49.60671" lon="-1.69518">
        <ele>168.37</ele>
        <time>2013-01-06T08:54:21Z</time>
      </trkpt>
      <trkpt lat="49.60663" lon="-1.6953">
        <ele>167.41</ele>
        <time>2013-01-06T08:54:23Z</time>
      </trkpt>
      <trkpt lat="49.60659" lon="-1.69536">
        <ele>166.93</ele>
        <time>2013-01-06T08:54:24Z</time>
      </trkpt>
      <trkpt lat="49.60629" lon="-1.69581">
        <ele>164.52</ele>
        <time>2013-01-06T08:54:31Z</time>
      </trkpt>
      <trkpt lat="49.60624" lon="-1.69586">
        <ele>164.04</ele>
        <time>2013-01-06T08:54:32Z</time>
      </trkpt>
      <trkpt lat="49.60604" lon="-1.69608">
        <ele>161.64</ele>
        <time>2013-01-06T08:54:36Z</time>
      </trkpt>
      <trkpt lat="49.60547" lon="-1.69661">
        <ele>158.27</ele>
        <time>2013-01-06T08:54:44Z</time>
      </trkpt>
      <trkpt lat="49.60539" lon="-1.69669">
        <ele>158.27</ele>
        <time>2013-01-06T08:54:45Z</time>
      </trkpt>
      <trkpt lat="49.60506" lon="-1.69704">
        <ele>156.35</ele>
        <time>2013-01-06T08:54:49Z</time>
      </trkpt>
      <trkpt lat="49.60443" lon="-1.69765">
        <ele>153.95</ele>
        <time>2013-01-06T08:54:57Z</time>
      </trkpt>
      <trkpt lat="49.60423" lon="-1.69784">
        <ele>151.06</ele>
        <time>2013-01-06T08:55:01Z</time>
      </trkpt>
      <trkpt lat="49.60421" lon="-1.69786">
        <ele>151.06</ele>
        <time>2013-01-06T08:55:02Z</time>
      </trkpt>
      <trkpt lat="49.60421" lon="-1.69789">
        <ele>151.06</ele>
        <time>2013-01-06T08:55:04Z</time>
      </trkpt>
      <trkpt lat="49.60422" lon="-1.69791">
        <ele>150.58</ele>
        <time>2013-01-06T08:55:05Z</time>
      </trkpt>
      <trkpt lat="49.60424" lon="-1.69792">
        <ele>150.58</ele>
        <time>2013-01-06T08:55:06Z</time>
      </trkpt>
      <trkpt lat="49.60462" lon="-1.69808">
        <ele>149.62</ele>
        <time>2013-01-06T08:55:18Z</time>
      </trkpt>
      <trkpt lat="49.605" lon="-1.69825">
        <ele>148.66</ele>
        <time>2013-01-06T08:55:32Z</time>
      </trkpt>
      <trkpt lat="49.60534" lon="-1.69846">
        <ele>148.66</ele>
        <time>2013-01-06T08:55:44Z</time>
      </trkpt>
      <trkpt lat="49.60565" lon="-1.69859">
        <ele>148.66</ele>
        <time>2013-01-06T08:55:57Z</time>
      </trkpt>
      <trkpt lat="49.60613" lon="-1.69881">
        <ele>150.1</ele>
        <time>2013-01-06T08:56:12Z</time>
      </trkpt>
      <trkpt lat="49.60662" lon="-1.6991">
        <ele>151.06</ele>
        <time>2013-01-06T08:56:27Z</time>
      </trkpt>
      <trkpt lat="49.60719" lon="-1.69942">
        <ele>152.99</ele>
        <time>2013-01-06T08:56:46Z</time>
      </trkpt>
      <trkpt lat="49.6076" lon="-1.69968">
        <ele>153.95</ele>
        <time>2013-01-06T08:57:02Z</time>
      </trkpt>
      <trkpt lat="49.60775" lon="-1.69981">
        <ele>153.95</ele>
        <time>2013-01-06T08:57:09Z</time>
      </trkpt>
      <trkpt lat="49.60775" lon="-1.69985">
        <ele>153.95</ele>
        <time>2013-01-06T08:57:10Z</time>
      </trkpt>
      <trkpt lat="49.60775" lon="-1.69988">
        <ele>153.95</ele>
        <time>2013-01-06T08:57:11Z</time>
      </trkpt>
      <trkpt lat="49.60773" lon="-1.69992">
        <ele>153.95</ele>
        <time>2013-01-06T08:57:12Z</time>
      </trkpt>
      <trkpt lat="49.60772" lon="-1.69995">
        <ele>153.47</ele>
        <time>2013-01-06T08:57:13Z</time>
      </trkpt>
      <trkpt lat="49.60741" lon="-1.70052">
        <ele>152.99</ele>
        <time>2013-01-06T08:57:29Z</time>
      </trkpt>
      <trkpt lat="49.60721" lon="-1.70087">
        <ele>152.51</ele>
        <time>2013-01-06T08:57:39Z</time>
      </trkpt>
      <trkpt lat="49.60684" lon="-1.70158">
        <ele>149.62</ele>
        <time>2013-01-06T08:57:52Z</time>
      </trkpt>
      <trkpt lat="49.60642" lon="-1.70243">
        <ele>148.18</ele>
        <time>2013-01-06T08:58:05Z</time>
      </trkpt>
      <trkpt lat="49.60642" lon="-1.7025">
        <ele>147.7</ele>
        <time>2013-01-06T08:58:06Z</time>
      </trkpt>
      <trkpt lat="49.60642" lon="-1.70256">
        <ele>147.7</ele>
        <time>2013-01-06T08:58:07Z</time>
      </trkpt>
      <trkpt lat="49.60644" lon="-1.70262">
        <ele>147.22</ele>
        <time>2013-01-06T08:58:08Z</time>
      </trkpt>
      <trkpt lat="49.60645" lon="-1.70267">
        <ele>147.22</ele>
        <time>2013-01-06T08:58:09Z</time>
      </trkpt>
      <trkpt lat="49.60646" lon="-1.70271">
        <ele>147.7</ele>
        <time>2013-01-06T08:58:10Z</time>
      </trkpt>
      <trkpt lat="49.60659" lon="-1.70329">
        <ele>148.66</ele>
        <time>2013-01-06T08:58:21Z</time>
      </trkpt>
      <trkpt lat="49.60674" lon="-1.70398">
        <ele>148.66</ele>
        <time>2013-01-06T08:58:33Z</time>
      </trkpt>
      <trkpt lat="49.60679" lon="-1.70416">
        <ele>149.14</ele>
        <time>2013-01-06T08:58:36Z</time>
      </trkpt>
      <trkpt lat="49.60681" lon="-1.70423">
        <ele>148.18</ele>
        <time>2013-01-06T08:58:37Z</time>
      </trkpt>
      <trkpt lat="49.60702" lon="-1.70542">
        <ele>145.3</ele>
        <time>2013-01-06T08:58:51Z</time>
      </trkpt>
      <trkpt lat="49.60712" lon="-1.70618">
        <ele>141.93</ele>
        <time>2013-01-06T08:58:57Z</time>
      </trkpt>
      <trkpt lat="49.60721" lon="-1.70676">
        <ele>138.57</ele>
        <time>2013-01-06T08:59:01Z</time>
      </trkpt>
      <trkpt lat="49.60729" lon="-1.70737">
        <ele>135.2</ele>
        <time>2013-01-06T08:59:05Z</time>
      </trkpt>
      <trkpt lat="49.60736" lon="-1.70783">
        <ele>133.28</ele>
        <time>2013-01-06T08:59:08Z</time>
      </trkpt>
      <trkpt lat="49.60742" lon="-1.70829">
        <ele>129.92</ele>
        <time>2013-01-06T08:59:11Z</time>
      </trkpt>
      <trkpt lat="49.60743" lon="-1.70845">
        <ele>128.95</ele>
        <time>2013-01-06T08:59:12Z</time>
      </trkpt>
      <trkpt lat="49.60743" lon="-1.70861">
        <ele>128.47</ele>
        <time>2013-01-06T08:59:13Z</time>
      </trkpt>
      <trkpt lat="49.60743" lon="-1.70893">
        <ele>124.63</ele>
        <time>2013-01-06T08:59:15Z</time>
      </trkpt>
      <trkpt lat="49.60743" lon="-1.70927">
        <ele>120.3</ele>
        <time>2013-01-06T08:59:18Z</time>
      </trkpt>
      <trkpt lat="49.60744" lon="-1.70942">
        <ele>118.38</ele>
        <time>2013-01-06T08:59:20Z</time>
      </trkpt>
      <trkpt lat="49.60747" lon="-1.70948">
        <ele>117.42</ele>
        <time>2013-01-06T08:59:21Z</time>
      </trkpt>
      <trkpt lat="49.60752" lon="-1.70954">
        <ele>116.94</ele>
        <time>2013-01-06T08:59:22Z</time>
      </trkpt>
      <trkpt lat="49.60758" lon="-1.7096">
        <ele>116.46</ele>
        <time>2013-01-06T08:59:23Z</time>
      </trkpt>
      <trkpt lat="49.60791" lon="-1.70985">
        <ele>114.53</ele>
        <time>2013-01-06T08:59:27Z</time>
      </trkpt>
      <trkpt lat="49.60836" lon="-1.71016">
        <ele>111.65</ele>
        <time>2013-01-06T08:59:32Z</time>
      </trkpt>
      <trkpt lat="49.60843" lon="-1.71023">
        <ele>111.17</ele>
        <time>2013-01-06T08:59:33Z</time>
      </trkpt>
      <trkpt lat="49.60849" lon="-1.71031">
        <ele>109.73</ele>
        <time>2013-01-06T08:59:34Z</time>
      </trkpt>
      <trkpt lat="49.60861" lon="-1.71046">
        <ele>108.29</ele>
        <time>2013-01-06T08:59:36Z</time>
      </trkpt>
      <trkpt lat="49.60865" lon="-1.71054">
        <ele>107.81</ele>
        <time>2013-01-06T08:59:37Z</time>
      </trkpt>
      <trkpt lat="49.60877" lon="-1.71083">
        <ele>103.96</ele>
        <time>2013-01-06T08:59:40Z</time>
      </trkpt>
      <trkpt lat="49.60885" lon="-1.71108">
        <ele>101.56</ele>
        <time>2013-01-06T08:59:42Z</time>
      </trkpt>
      <trkpt lat="49.60889" lon="-1.71123">
        <ele>98.67</ele>
        <time>2013-01-06T08:59:43Z</time>
      </trkpt>
      <trkpt lat="49.60897" lon="-1.71153">
        <ele>94.35</ele>
        <time>2013-01-06T08:59:45Z</time>
      </trkpt>
      <trkpt lat="49.60909" lon="-1.71191">
        <ele>90.98</ele>
        <time>2013-01-06T08:59:48Z</time>
      </trkpt>
      <trkpt lat="49.60923" lon="-1.71222">
        <ele>86.66</ele>
        <time>2013-01-06T08:59:51Z</time>
      </trkpt>
      <trkpt lat="49.60927" lon="-1.71228">
        <ele>86.18</ele>
        <time>2013-01-06T08:59:52Z</time>
      </trkpt>
      <trkpt lat="49.60933" lon="-1.71234">
        <ele>85.69</ele>
        <time>2013-01-06T08:59:53Z</time>
      </trkpt>
      <trkpt lat="49.60938" lon="-1.71238">
        <ele>84.73</ele>
        <time>2013-01-06T08:59:54Z</time>
      </trkpt>
      <trkpt lat="49.60945" lon="-1.7124">
        <ele>84.73</ele>
        <time>2013-01-06T08:59:55Z</time>
      </trkpt>
      <trkpt lat="49.60951" lon="-1.7124">
        <ele>85.21</ele>
        <time>2013-01-06T08:59:56Z</time>
      </trkpt>
      <trkpt lat="49.60972" lon="-1.71242">
        <ele>84.25</ele>
        <time>2013-01-06T08:59:59Z</time>
      </trkpt>
      <trkpt lat="49.60979" lon="-1.71244">
        <ele>83.77</ele>
        <time>2013-01-06T09:00:00Z</time>
      </trkpt>
      <trkpt lat="49.61008" lon="-1.7125">
        <ele>83.29</ele>
        <time>2013-01-06T09:00:05Z</time>
      </trkpt>
      <trkpt lat="49.61013" lon="-1.71248">
        <ele>83.29</ele>
        <time>2013-01-06T09:00:06Z</time>
      </trkpt>
      <trkpt lat="49.61068" lon="-1.71208">
        <ele>85.21</ele>
        <time>2013-01-06T09:00:19Z</time>
      </trkpt>
      <trkpt lat="49.61086" lon="-1.71192">
        <ele>86.66</ele>
        <time>2013-01-06T09:00:30Z</time>
      </trkpt>
      <trkpt lat="49.61104" lon="-1.71189">
        <ele>86.18</ele>
        <time>2013-01-06T09:00:42Z</time>
      </trkpt>
      <trkpt lat="49.61115" lon="-1.7122">
        <ele>85.21</ele>
        <time>2013-01-06T09:00:57Z</time>
      </trkpt>
      <trkpt lat="49.61121" lon="-1.71227">
        <ele>85.69</ele>
        <time>2013-01-06T09:01:10Z</time>
      </trkpt>
      <trkpt lat="49.61122" lon="-1.71228">
        <ele>85.69</ele>
        <time>2013-01-06T09:01:12Z</time>
      </trkpt>
      <trkpt lat="49.61123" lon="-1.71227">
        <ele>85.69</ele>
        <time>2013-01-06T09:01:13Z</time>
      </trkpt>
      <trkpt lat="49.61124" lon="-1.71226">
        <ele>86.18</ele>
        <time>2013-01-06T09:01:14Z</time>
      </trkpt>
      <trkpt lat="49.61125" lon="-1.71224">
        <ele>85.69</ele>
        <time>2013-01-06T09:01:15Z</time>
      </trkpt>
      <trkpt lat="49.61127" lon="-1.71222">
        <ele>86.18</ele>
        <time>2013-01-06T09:01:16Z</time>
      </trkpt>
      <trkpt lat="49.61129" lon="-1.71221">
        <ele>86.18</ele>
        <time>2013-01-06T09:01:17Z</time>
      </trkpt>
      <trkpt lat="49.61131" lon="-1.71219">
        <ele>86.66</ele>
        <time>2013-01-06T09:01:18Z</time>
      </trkpt>
      <trkpt lat="49.61149" lon="-1.712">
        <ele>87.62</ele>
        <time>2013-01-06T09:01:29Z</time>
      </trkpt>
      <trkpt lat="49.61155" lon="-1.71193">
        <ele>89.06</ele>
        <time>2013-01-06T09:01:33Z</time>
      </trkpt>
      <trkpt lat="49.61156" lon="-1.7119">
        <ele>88.58</ele>
        <time>2013-01-06T09:01:34Z</time>
      </trkpt>
      <trkpt lat="49.61158" lon="-1.71188">
        <ele>89.06</ele>
        <time>2013-01-06T09:01:35Z</time>
      </trkpt>
      <trkpt lat="49.61183" lon="-1.71148">
        <ele>91.94</ele>
        <time>2013-01-06T09:01:51Z</time>
      </trkpt>
      <trkpt lat="49.61203" lon="-1.71104">
        <ele>90.98</ele>
        <time>2013-01-06T09:02:04Z</time>
      </trkpt>
      <trkpt lat="49.61249" lon="-1.71051">
        <ele>90.02</ele>
        <time>2013-01-06T09:02:18Z</time>
      </trkpt>
      <trkpt lat="49.61273" lon="-1.71044">
        <ele>90.5</ele>
        <time>2013-01-06T09:02:23Z</time>
      </trkpt>
      <trkpt lat="49.61281" lon="-1.71044">
        <ele>90.5</ele>
        <time>2013-01-06T09:02:25Z</time>
      </trkpt>
      <trkpt lat="49.6129" lon="-1.71046">
        <ele>90.5</ele>
        <time>2013-01-06T09:02:27Z</time>
      </trkpt>
      <trkpt lat="49.61306" lon="-1.71048">
        <ele>90.5</ele>
        <time>2013-01-06T09:02:31Z</time>
      </trkpt>
      <trkpt lat="49.61311" lon="-1.71047">
        <ele>90.02</ele>
        <time>2013-01-06T09:02:32Z</time>
      </trkpt>
      <trkpt lat="49.61315" lon="-1.71045">
        <ele>90.5</ele>
        <time>2013-01-06T09:02:33Z</time>
      </trkpt>
      <trkpt lat="49.61354" lon="-1.7102">
        <ele>91.46</ele>
        <time>2013-01-06T09:02:45Z</time>
      </trkpt>
      <trkpt lat="49.61378" lon="-1.70976">
        <ele>94.83</ele>
        <time>2013-01-06T09:02:57Z</time>
      </trkpt>
      <trkpt lat="49.61379" lon="-1.70973">
        <ele>94.83</ele>
        <time>2013-01-06T09:02:58Z</time>
      </trkpt>
      <trkpt lat="49.6139" lon="-1.70947">
        <ele>97.23</ele>
        <time>2013-01-06T09:03:04Z</time>
      </trkpt>
      <trkpt lat="49.61413" lon="-1.70911">
        <ele>100.11</ele>
        <time>2013-01-06T09:03:15Z</time>
      </trkpt>
      <trkpt lat="49.61446" lon="-1.70888">
        <ele>103</ele>
        <time>2013-01-06T09:03:24Z</time>
      </trkpt>
      <trkpt lat="49.61476" lon="-1.70882">
        <ele>105.88</ele>
        <time>2013-01-06T09:03:31Z</time>
      </trkpt>
      <trkpt lat="49.61509" lon="-1.70879">
        <ele>109.25</ele>
        <time>2013-01-06T09:03:40Z</time>
      </trkpt>
      <trkpt lat="49.61524" lon="-1.70869">
        <ele>110.69</ele>
        <time>2013-01-06T09:03:49Z</time>
      </trkpt>
      <trkpt lat="49.61525" lon="-1.70869">
        <ele>110.69</ele>
        <time>2013-01-06T09:03:50Z</time>
      </trkpt>
      <trkpt lat="49.61526" lon="-1.7087">
        <ele>111.17</ele>
        <time>2013-01-06T09:03:51Z</time>
      </trkpt>
      <trkpt lat="49.61528" lon="-1.70871">
        <ele>110.69</ele>
        <time>2013-01-06T09:03:52Z</time>
      </trkpt>
      <trkpt lat="49.61529" lon="-1.70873">
        <ele>111.17</ele>
        <time>2013-01-06T09:03:53Z</time>
      </trkpt>
      <trkpt lat="49.61529" lon="-1.70874">
        <ele>110.69</ele>
        <time>2013-01-06T09:03:54Z</time>
      </trkpt>
      <trkpt lat="49.6153" lon="-1.70875">
        <ele>110.69</ele>
        <time>2013-01-06T09:03:55Z</time>
      </trkpt>
      <trkpt lat="49.61532" lon="-1.70878">
        <ele>111.17</ele>
        <time>2013-01-06T09:03:57Z</time>
      </trkpt>
      <trkpt lat="49.61533" lon="-1.70879">
        <ele>111.17</ele>
        <time>2013-01-06T09:03:58Z</time>
      </trkpt>
      <trkpt lat="49.61534" lon="-1.70881">
        <ele>111.65</ele>
        <time>2013-01-06T09:03:59Z</time>
      </trkpt>
      <trkpt lat="49.61535" lon="-1.70882">
        <ele>111.17</ele>
        <time>2013-01-06T09:04:00Z</time>
      </trkpt>
      <trkpt lat="49.61537" lon="-1.70883">
        <ele>111.17</ele>
        <time>2013-01-06T09:04:01Z</time>
      </trkpt>
      <trkpt lat="49.61539" lon="-1.70883">
        <ele>111.65</ele>
        <time>2013-01-06T09:04:02Z</time>
      </trkpt>
      <trkpt lat="49.61541" lon="-1.70882">
        <ele>112.13</ele>
        <time>2013-01-06T09:04:03Z</time>
      </trkpt>
      <trkpt lat="49.61543" lon="-1.70881">
        <ele>112.13</ele>
        <time>2013-01-06T09:04:04Z</time>
      </trkpt>
      <trkpt lat="49.61546" lon="-1.7088">
        <ele>111.65</ele>
        <time>2013-01-06T09:04:05Z</time>
      </trkpt>
      <trkpt lat="49.61573" lon="-1.7087">
        <ele>115.01</ele>
        <time>2013-01-06T09:04:15Z</time>
      </trkpt>
      <trkpt lat="49.61606" lon="-1.70854">
        <ele>118.38</ele>
        <time>2013-01-06T09:04:27Z</time>
      </trkpt>
      <trkpt lat="49.61636" lon="-1.70834">
        <ele>122.22</ele>
        <time>2013-01-06T09:04:38Z</time>
      </trkpt>
      <trkpt lat="49.61663" lon="-1.70813">
        <ele>125.11</ele>
        <time>2013-01-06T09:04:49Z</time>
      </trkpt>
      <trkpt lat="49.61707" lon="-1.70774">
        <ele>126.55</ele>
        <time>2013-01-06T09:05:04Z</time>
      </trkpt>
      <trkpt lat="49.61737" lon="-1.7075">
        <ele>127.99</ele>
        <time>2013-01-06T09:05:16Z</time>
      </trkpt>
      <trkpt lat="49.6178" lon="-1.70712">
        <ele>129.43</ele>
        <time>2013-01-06T09:05:30Z</time>
      </trkpt>
      <trkpt lat="49.61825" lon="-1.70676">
        <ele>131.36</ele>
        <time>2013-01-06T09:05:42Z</time>
      </trkpt>
      <trkpt lat="49.61903" lon="-1.70622">
        <ele>130.88</ele>
        <time>2013-01-06T09:06:00Z</time>
      </trkpt>
      <trkpt lat="49.61921" lon="-1.70611">
        <ele>130.4</ele>
        <time>2013-01-06T09:06:04Z</time>
      </trkpt>
      <trkpt lat="49.61926" lon="-1.70609">
        <ele>130.88</ele>
        <time>2013-01-06T09:06:05Z</time>
      </trkpt>
      <trkpt lat="49.62011" lon="-1.70573">
        <ele>131.36</ele>
        <time>2013-01-06T09:06:23Z</time>
      </trkpt>
      <trkpt lat="49.62025" lon="-1.70572">
        <ele>131.36</ele>
        <time>2013-01-06T09:06:26Z</time>
      </trkpt>
      <trkpt lat="49.62048" lon="-1.7058">
        <ele>131.84</ele>
        <time>2013-01-06T09:06:35Z</time>
      </trkpt>
      <trkpt lat="49.62044" lon="-1.70582">
        <ele>132.8</ele>
        <time>2013-01-06T09:06:47Z</time>
      </trkpt>
      <trkpt lat="49.62044" lon="-1.70579">
        <ele>132.8</ele>
        <time>2013-01-06T09:06:59Z</time>
      </trkpt>
      <trkpt lat="49.62045" lon="-1.70578">
        <ele>132.32</ele>
        <time>2013-01-06T09:07:00Z</time>
      </trkpt>
      <trkpt lat="49.62047" lon="-1.70578">
        <ele>131.84</ele>
        <time>2013-01-06T09:07:01Z</time>
      </trkpt>
      <trkpt lat="49.62048" lon="-1.7058">
        <ele>132.32</ele>
        <time>2013-01-06T09:07:02Z</time>
      </trkpt>
      <trkpt lat="49.62048" lon="-1.70583">
        <ele>131.84</ele>
        <time>2013-01-06T09:07:03Z</time>
      </trkpt>
      <trkpt lat="49.62047" lon="-1.70586">
        <ele>132.32</ele>
        <time>2013-01-06T09:07:04Z</time>
      </trkpt>
      <trkpt lat="49.62046" lon="-1.7059">
        <ele>132.8</ele>
        <time>2013-01-06T09:07:05Z</time>
      </trkpt>
      <trkpt lat="49.62045" lon="-1.70595">
        <ele>132.8</ele>
        <time>2013-01-06T09:07:06Z</time>
      </trkpt>
      <trkpt lat="49.62038" lon="-1.70639">
        <ele>135.68</ele>
        <time>2013-01-06T09:07:16Z</time>
      </trkpt>
      <trkpt lat="49.62031" lon="-1.70734">
        <ele>137.13</ele>
        <time>2013-01-06T09:07:32Z</time>
      </trkpt>
      <trkpt lat="49.62037" lon="-1.70825">
        <ele>138.57</ele>
        <time>2013-01-06T09:07:47Z</time>
      </trkpt>
      <trkpt lat="49.62038" lon="-1.70832">
        <ele>139.05</ele>
        <time>2013-01-06T09:07:48Z</time>
      </trkpt>
      <trkpt lat="49.62039" lon="-1.709">
        <ele>140.01</ele>
        <time>2013-01-06T09:08:00Z</time>
      </trkpt>
      <trkpt lat="49.62046" lon="-1.70958">
        <ele>141.93</ele>
        <time>2013-01-06T09:08:11Z</time>
      </trkpt>
      <trkpt lat="49.62046" lon="-1.70963">
        <ele>141.45</ele>
        <time>2013-01-06T09:08:12Z</time>
      </trkpt>
      <trkpt lat="49.62049" lon="-1.7103">
        <ele>142.89</ele>
        <time>2013-01-06T09:08:23Z</time>
      </trkpt>
      <trkpt lat="49.62048" lon="-1.71098">
        <ele>143.37</ele>
        <time>2013-01-06T09:08:35Z</time>
      </trkpt>
      <trkpt lat="49.62043" lon="-1.71164">
        <ele>144.82</ele>
        <time>2013-01-06T09:08:45Z</time>
      </trkpt>
      <trkpt lat="49.62041" lon="-1.71241">
        <ele>146.74</ele>
        <time>2013-01-06T09:08:58Z</time>
      </trkpt>
      <trkpt lat="49.62042" lon="-1.71308">
        <ele>148.18</ele>
        <time>2013-01-06T09:09:09Z</time>
      </trkpt>
      <trkpt lat="49.6205" lon="-1.71411">
        <ele>150.58</ele>
        <time>2013-01-06T09:09:26Z</time>
      </trkpt>
      <trkpt lat="49.62073" lon="-1.71494">
        <ele>153.47</ele>
        <time>2013-01-06T09:09:41Z</time>
      </trkpt>
      <trkpt lat="49.6208" lon="-1.71539">
        <ele>154.91</ele>
        <time>2013-01-06T09:09:51Z</time>
      </trkpt>
      <trkpt lat="49.62087" lon="-1.71599">
        <ele>155.87</ele>
        <time>2013-01-06T09:10:01Z</time>
      </trkpt>
      <trkpt lat="49.62092" lon="-1.71666">
        <ele>155.87</ele>
        <time>2013-01-06T09:10:12Z</time>
      </trkpt>
      <trkpt lat="49.62096" lon="-1.71737">
        <ele>156.83</ele>
        <time>2013-01-06T09:10:25Z</time>
      </trkpt>
      <trkpt lat="49.62093" lon="-1.71773">
        <ele>156.83</ele>
        <time>2013-01-06T09:10:38Z</time>
      </trkpt>
      <trkpt lat="49.62094" lon="-1.71777">
        <ele>156.83</ele>
        <time>2013-01-06T09:10:39Z</time>
      </trkpt>
      <trkpt lat="49.62097" lon="-1.71785">
        <ele>156.83</ele>
        <time>2013-01-06T09:10:41Z</time>
      </trkpt>
      <trkpt lat="49.62097" lon="-1.71787">
        <ele>156.35</ele>
        <time>2013-01-06T09:10:42Z</time>
      </trkpt>
      <trkpt lat="49.621" lon="-1.71815">
        <ele>156.83</ele>
        <time>2013-01-06T09:10:53Z</time>
      </trkpt>
      <trkpt lat="49.62102" lon="-1.71826">
        <ele>157.31</ele>
        <time>2013-01-06T09:10:57Z</time>
      </trkpt>
      <trkpt lat="49.62104" lon="-1.71829">
        <ele>157.79</ele>
        <time>2013-01-06T09:10:58Z</time>
      </trkpt>
      <trkpt lat="49.62106" lon="-1.71837">
        <ele>157.31</ele>
        <time>2013-01-06T09:11:02Z</time>
      </trkpt>
      <trkpt lat="49.62099" lon="-1.71816">
        <ele>156.83</ele>
        <time>2013-01-06T09:11:14Z</time>
      </trkpt>
      <trkpt lat="49.621" lon="-1.71816">
        <ele>156.83</ele>
        <time>2013-01-06T09:11:38Z</time>
      </trkpt>
      <trkpt lat="49.62099" lon="-1.71815">
        <ele>156.83</ele>
        <time>2013-01-06T09:11:49Z</time>
      </trkpt>
      <trkpt lat="49.62099" lon="-1.71817">
        <ele>157.31</ele>
        <time>2013-01-06T09:12:17Z</time>
      </trkpt>
      <trkpt lat="49.62099" lon="-1.71818">
        <ele>156.83</ele>
        <time>2013-01-06T09:12:40Z</time>
      </trkpt>
      <trkpt lat="49.62097" lon="-1.71816">
        <ele>156.83</ele>
        <time>2013-01-06T09:12:42Z</time>
      </trkpt>
      <trkpt lat="49.62095" lon="-1.71804">
        <ele>156.83</ele>
        <time>2013-01-06T09:12:46Z</time>
      </trkpt>
      <trkpt lat="49.62094" lon="-1.71796">
        <ele>157.31</ele>
        <time>2013-01-06T09:12:49Z</time>
      </trkpt>
      <trkpt lat="49.62098" lon="-1.71797">
        <ele>156.83</ele>
        <time>2013-01-06T09:13:01Z</time>
      </trkpt>
      <trkpt lat="49.62098" lon="-1.71796">
        <ele>156.83</ele>
        <time>2013-01-06T09:13:18Z</time>
      </trkpt>
      <trkpt lat="49.62098" lon="-1.71795">
        <ele>156.83</ele>
        <time>2013-01-06T09:13:52Z</time>
      </trkpt>
      <trkpt lat="49.62098" lon="-1.71794">
        <ele>156.83</ele>
        <time>2013-01-06T09:14:03Z</time>
      </trkpt>
      <trkpt lat="49.62105" lon="-1.71839">
        <ele>158.75</ele>
        <time>2013-01-06T09:14:17Z</time>
      </trkpt>
      <trkpt lat="49.62129" lon="-1.7191">
        <ele>160.2</ele>
        <time>2013-01-06T09:14:34Z</time>
      </trkpt>
      <trkpt lat="49.62148" lon="-1.71994">
        <ele>162.12</ele>
        <time>2013-01-06T09:14:50Z</time>
      </trkpt>
      <trkpt lat="49.62175" lon="-1.72073">
        <ele>165.48</ele>
        <time>2013-01-06T09:15:06Z</time>
      </trkpt>
      <trkpt lat="49.62204" lon="-1.72129">
        <ele>167.89</ele>
        <time>2013-01-06T09:15:20Z</time>
      </trkpt>
      <trkpt lat="49.62267" lon="-1.72159">
        <ele>169.81</ele>
        <time>2013-01-06T09:15:37Z</time>
      </trkpt>
      <trkpt lat="49.62272" lon="-1.7216">
        <ele>170.29</ele>
        <time>2013-01-06T09:15:38Z</time>
      </trkpt>
      <trkpt lat="49.62306" lon="-1.72142">
        <ele>170.77</ele>
        <time>2013-01-06T09:15:48Z</time>
      </trkpt>
      <trkpt lat="49.62319" lon="-1.72125">
        <ele>170.77</ele>
        <time>2013-01-06T09:15:52Z</time>
      </trkpt>
      <trkpt lat="49.6233" lon="-1.72108">
        <ele>170.29</ele>
        <time>2013-01-06T09:15:56Z</time>
      </trkpt>
      <trkpt lat="49.62334" lon="-1.72104">
        <ele>169.33</ele>
        <time>2013-01-06T09:15:57Z</time>
      </trkpt>
      <trkpt lat="49.62337" lon="-1.721">
        <ele>170.29</ele>
        <time>2013-01-06T09:15:58Z</time>
      </trkpt>
      <trkpt lat="49.6234" lon="-1.72096">
        <ele>169.81</ele>
        <time>2013-01-06T09:15:59Z</time>
      </trkpt>
      <trkpt lat="49.62343" lon="-1.72091">
        <ele>169.81</ele>
        <time>2013-01-06T09:16:00Z</time>
      </trkpt>
      <trkpt lat="49.62346" lon="-1.72086">
        <ele>169.33</ele>
        <time>2013-01-06T09:16:01Z</time>
      </trkpt>
      <trkpt lat="49.6235" lon="-1.72081">
        <ele>168.85</ele>
        <time>2013-01-06T09:16:02Z</time>
      </trkpt>
      <trkpt lat="49.62366" lon="-1.72052">
        <ele>168.85</ele>
        <time>2013-01-06T09:16:07Z</time>
      </trkpt>
      <trkpt lat="49.62383" lon="-1.72016">
        <ele>168.37</ele>
        <time>2013-01-06T09:16:12Z</time>
      </trkpt>
      <trkpt lat="49.62387" lon="-1.72009">
        <ele>168.37</ele>
        <time>2013-01-06T09:16:13Z</time>
      </trkpt>
      <trkpt lat="49.6239" lon="-1.72002">
        <ele>167.89</ele>
        <time>2013-01-06T09:16:14Z</time>
      </trkpt>
      <trkpt lat="49.62417" lon="-1.71944">
        <ele>165.48</ele>
        <time>2013-01-06T09:16:22Z</time>
      </trkpt>
      <trkpt lat="49.6242" lon="-1.71938">
        <ele>165.48</ele>
        <time>2013-01-06T09:16:23Z</time>
      </trkpt>
      <trkpt lat="49.62424" lon="-1.71936">
        <ele>165.48</ele>
        <time>2013-01-06T09:16:24Z</time>
      </trkpt>
      <trkpt lat="49.62431" lon="-1.71939">
        <ele>165.48</ele>
        <time>2013-01-06T09:16:26Z</time>
      </trkpt>
      <trkpt lat="49.62434" lon="-1.71944">
        <ele>166.45</ele>
        <time>2013-01-06T09:16:27Z</time>
      </trkpt>
      <trkpt lat="49.62435" lon="-1.71948">
        <ele>165.96</ele>
        <time>2013-01-06T09:16:28Z</time>
      </trkpt>
      <trkpt lat="49.62453" lon="-1.71996">
        <ele>167.89</ele>
        <time>2013-01-06T09:16:40Z</time>
      </trkpt>
      <trkpt lat="49.62478" lon="-1.72055">
        <ele>170.77</ele>
        <time>2013-01-06T09:16:54Z</time>
      </trkpt>
      <trkpt lat="49.62495" lon="-1.72099">
        <ele>172.69</ele>
        <time>2013-01-06T09:17:05Z</time>
      </trkpt>
      <trkpt lat="49.62498" lon="-1.72105">
        <ele>172.69</ele>
        <time>2013-01-06T09:17:07Z</time>
      </trkpt>
      <trkpt lat="49.625" lon="-1.72108">
        <ele>172.69</ele>
        <time>2013-01-06T09:17:08Z</time>
      </trkpt>
      <trkpt lat="49.62501" lon="-1.72112">
        <ele>172.21</ele>
        <time>2013-01-06T09:17:09Z</time>
      </trkpt>
      <trkpt lat="49.62504" lon="-1.72115">
        <ele>173.17</ele>
        <time>2013-01-06T09:17:10Z</time>
      </trkpt>
      <trkpt lat="49.62506" lon="-1.72119">
        <ele>173.66</ele>
        <time>2013-01-06T09:17:11Z</time>
      </trkpt>
      <trkpt lat="49.62508" lon="-1.72123">
        <ele>173.66</ele>
        <time>2013-01-06T09:17:12Z</time>
      </trkpt>
      <trkpt lat="49.6251" lon="-1.72128">
        <ele>173.17</ele>
        <time>2013-01-06T09:17:13Z</time>
      </trkpt>
      <trkpt lat="49.62512" lon="-1.72132">
        <ele>174.14</ele>
        <time>2013-01-06T09:17:14Z</time>
      </trkpt>
      <trkpt lat="49.62514" lon="-1.72136">
        <ele>174.14</ele>
        <time>2013-01-06T09:17:15Z</time>
      </trkpt>
      <trkpt lat="49.62516" lon="-1.7214">
        <ele>174.62</ele>
        <time>2013-01-06T09:17:16Z</time>
      </trkpt>
      <trkpt lat="49.62534" lon="-1.72179">
        <ele>175.58</ele>
        <time>2013-01-06T09:17:28Z</time>
      </trkpt>
      <trkpt lat="49.62552" lon="-1.7223">
        <ele>177.5</ele>
        <time>2013-01-06T09:17:41Z</time>
      </trkpt>
      <trkpt lat="49.62566" lon="-1.7228">
        <ele>179.42</ele>
        <time>2013-01-06T09:17:55Z</time>
      </trkpt>
      <trkpt lat="49.62577" lon="-1.72332">
        <ele>179.9</ele>
        <time>2013-01-06T09:18:06Z</time>
      </trkpt>
      <trkpt lat="49.62586" lon="-1.72377">
        <ele>180.38</ele>
        <time>2013-01-06T09:18:17Z</time>
      </trkpt>
      <trkpt lat="49.62598" lon="-1.72441">
        <ele>180.87</ele>
        <time>2013-01-06T09:18:28Z</time>
      </trkpt>
      <trkpt lat="49.62614" lon="-1.72545">
        <ele>179.42</ele>
        <time>2013-01-06T09:18:45Z</time>
      </trkpt>
      <trkpt lat="49.62622" lon="-1.72591">
        <ele>177.5</ele>
        <time>2013-01-06T09:18:53Z</time>
      </trkpt>
      <trkpt lat="49.62643" lon="-1.72699">
        <ele>177.5</ele>
        <time>2013-01-06T09:19:06Z</time>
      </trkpt>
      <trkpt lat="49.62655" lon="-1.72761">
        <ele>177.5</ele>
        <time>2013-01-06T09:19:13Z</time>
      </trkpt>
      <trkpt lat="49.62657" lon="-1.7277">
        <ele>177.5</ele>
        <time>2013-01-06T09:19:14Z</time>
      </trkpt>
      <trkpt lat="49.62683" lon="-1.7291">
        <ele>176.54</ele>
        <time>2013-01-06T09:19:30Z</time>
      </trkpt>
      <trkpt lat="49.62706" lon="-1.73035">
        <ele>176.54</ele>
        <time>2013-01-06T09:19:46Z</time>
      </trkpt>
      <trkpt lat="49.62722" lon="-1.73126">
        <ele>177.5</ele>
        <time>2013-01-06T09:19:59Z</time>
      </trkpt>
      <trkpt lat="49.62739" lon="-1.73205">
        <ele>178.94</ele>
        <time>2013-01-06T09:20:12Z</time>
      </trkpt>
      <trkpt lat="49.62759" lon="-1.73303">
        <ele>181.83</ele>
        <time>2013-01-06T09:20:28Z</time>
      </trkpt>
      <trkpt lat="49.62777" lon="-1.734">
        <ele>183.27</ele>
        <time>2013-01-06T09:20:44Z</time>
      </trkpt>
      <trkpt lat="49.62793" lon="-1.73486">
        <ele>184.23</ele>
        <time>2013-01-06T09:20:59Z</time>
      </trkpt>
      <trkpt lat="49.62805" lon="-1.7355">
        <ele>184.71</ele>
        <time>2013-01-06T09:21:09Z</time>
      </trkpt>
      <trkpt lat="49.62806" lon="-1.73557">
        <ele>184.71</ele>
        <time>2013-01-06T09:21:10Z</time>
      </trkpt>
      <trkpt lat="49.62818" lon="-1.73615">
        <ele>184.23</ele>
        <time>2013-01-06T09:21:19Z</time>
      </trkpt>
      <trkpt lat="49.62842" lon="-1.73735">
        <ele>183.27</ele>
        <time>2013-01-06T09:21:35Z</time>
      </trkpt>
      <trkpt lat="49.62862" lon="-1.7383">
        <ele>182.31</ele>
        <time>2013-01-06T09:21:49Z</time>
      </trkpt>
      <trkpt lat="49.62863" lon="-1.73837">
        <ele>181.83</ele>
        <time>2013-01-06T09:21:59Z</time>
      </trkpt>
      <trkpt lat="49.62863" lon="-1.73838">
        <ele>182.31</ele>
        <time>2013-01-06T09:22:17Z</time>
      </trkpt>
      <trkpt lat="49.62862" lon="-1.73838">
        <ele>181.83</ele>
        <time>2013-01-06T09:22:29Z</time>
      </trkpt>
      <trkpt lat="49.62862" lon="-1.73838">
        <ele>181.35</ele>
        <time>2013-01-06T09:22:47Z</time>
      </trkpt>
      <trkpt lat="49.62862" lon="-1.73838">
        <ele>181.35</ele>
        <time>2013-01-06T09:23:09Z</time>
      </trkpt>
      <trkpt lat="49.62862" lon="-1.73837">
        <ele>180.87</ele>
        <time>2013-01-06T09:23:38Z</time>
      </trkpt>
      <trkpt lat="49.62862" lon="-1.73837">
        <ele>181.35</ele>
        <time>2013-01-06T09:23:56Z</time>
      </trkpt>
      <trkpt lat="49.62862" lon="-1.73836">
        <ele>180.87</ele>
        <time>2013-01-06T09:24:20Z</time>
      </trkpt>
      <trkpt lat="49.62863" lon="-1.73836">
        <ele>180.87</ele>
        <time>2013-01-06T09:24:38Z</time>
      </trkpt>
      <trkpt lat="49.62863" lon="-1.73835">
        <ele>177.02</ele>
        <time>2013-01-06T09:24:57Z</time>
      </trkpt>
      <trkpt lat="49.62863" lon="-1.73835">
        <ele>178.46</ele>
        <time>2013-01-06T09:24:58Z</time>
      </trkpt>
      <trkpt lat="49.62864" lon="-1.73835">
        <ele>180.87</ele>
        <time>2013-01-06T09:25:00Z</time>
      </trkpt>
      <trkpt lat="49.62863" lon="-1.73835">
        <ele>180.87</ele>
        <time>2013-01-06T09:25:22Z</time>
      </trkpt>
      <trkpt lat="49.62863" lon="-1.73836">
        <ele>180.87</ele>
        <time>2013-01-06T09:25:34Z</time>
      </trkpt>
      <trkpt lat="49.62864" lon="-1.73836">
        <ele>180.87</ele>
        <time>2013-01-06T09:25:52Z</time>
      </trkpt>
      <trkpt lat="49.62863" lon="-1.73832">
        <ele>180.87</ele>
        <time>2013-01-06T09:26:06Z</time>
      </trkpt>
      <trkpt lat="49.62862" lon="-1.7383">
        <ele>180.38</ele>
        <time>2013-01-06T09:26:08Z</time>
      </trkpt>
      <trkpt lat="49.62861" lon="-1.73829">
        <ele>181.35</ele>
        <time>2013-01-06T09:26:09Z</time>
      </trkpt>
      <trkpt lat="49.6286" lon="-1.73828">
        <ele>180.87</ele>
        <time>2013-01-06T09:26:10Z</time>
      </trkpt>
      <trkpt lat="49.62859" lon="-1.73827">
        <ele>181.35</ele>
        <time>2013-01-06T09:26:11Z</time>
      </trkpt>
      <trkpt lat="49.62859" lon="-1.73826">
        <ele>180.38</ele>
        <time>2013-01-06T09:26:27Z</time>
      </trkpt>
      <trkpt lat="49.62859" lon="-1.73825">
        <ele>180.87</ele>
        <time>2013-01-06T09:26:51Z</time>
      </trkpt>
      <trkpt lat="49.62862" lon="-1.73828">
        <ele>180.87</ele>
        <time>2013-01-06T09:27:07Z</time>
      </trkpt>
      <trkpt lat="49.62863" lon="-1.73833">
        <ele>180.38</ele>
        <time>2013-01-06T09:27:19Z</time>
      </trkpt>
      <trkpt lat="49.62864" lon="-1.73836">
        <ele>180.87</ele>
        <time>2013-01-06T09:27:29Z</time>
      </trkpt>
      <trkpt lat="49.62864" lon="-1.73836">
        <ele>180.87</ele>
        <time>2013-01-06T09:27:39Z</time>
      </trkpt>
      <trkpt lat="49.62864" lon="-1.73837">
        <ele>180.38</ele>
        <time>2013-01-06T09:27:58Z</time>
      </trkpt>
      <trkpt lat="49.62864" lon="-1.73838">
        <ele>179.9</ele>
        <time>2013-01-06T09:28:26Z</time>
      </trkpt>
      <trkpt lat="49.62866" lon="-1.73838">
        <ele>179.9</ele>
        <time>2013-01-06T09:28:58Z</time>
      </trkpt>
      <trkpt lat="49.62866" lon="-1.73838">
        <ele>180.38</ele>
        <time>2013-01-06T09:29:35Z</time>
      </trkpt>
      <trkpt lat="49.62866" lon="-1.73838">
        <ele>179.9</ele>
        <time>2013-01-06T09:30:01Z</time>
      </trkpt>
      <trkpt lat="49.62866" lon="-1.73838">
        <ele>179.9</ele>
        <time>2013-01-06T09:30:26Z</time>
      </trkpt>
      <trkpt lat="49.62866" lon="-1.73839">
        <ele>179.9</ele>
        <time>2013-01-06T09:30:59Z</time>
      </trkpt>
      <trkpt lat="49.62866" lon="-1.73839">
        <ele>179.42</ele>
        <time>2013-01-06T09:31:34Z</time>
      </trkpt>
      <trkpt lat="49.62864" lon="-1.73841">
        <ele>178.94</ele>
        <time>2013-01-06T09:32:10Z</time>
      </trkpt>
      <trkpt lat="49.62864" lon="-1.73841">
        <ele>179.42</ele>
        <time>2013-01-06T09:32:42Z</time>
      </trkpt>
      <trkpt lat="49.62865" lon="-1.73843">
        <ele>178.94</ele>
        <time>2013-01-06T09:33:19Z</time>
      </trkpt>
      <trkpt lat="49.62865" lon="-1.73843">
        <ele>178.94</ele>
        <time>2013-01-06T09:33:52Z</time>
      </trkpt>
      <trkpt lat="49.62865" lon="-1.73843">
        <ele>179.42</ele>
        <time>2013-01-06T09:34:21Z</time>
      </trkpt>
      <trkpt lat="49.62865" lon="-1.73842">
        <ele>179.9</ele>
        <time>2013-01-06T09:34:54Z</time>
      </trkpt>
      <trkpt lat="49.62865" lon="-1.73841">
        <ele>179.42</ele>
        <time>2013-01-06T09:35:14Z</time>
      </trkpt>
      <trkpt lat="49.62865" lon="-1.73841">
        <ele>179.42</ele>
        <time>2013-01-06T09:35:46Z</time>
      </trkpt>
      <trkpt lat="49.62865" lon="-1.73841">
        <ele>179.42</ele>
        <time>2013-01-06T09:36:23Z</time>
      </trkpt>
      <trkpt lat="49.62865" lon="-1.73841">
        <ele>178.94</ele>
        <time>2013-01-06T09:36:54Z</time>
      </trkpt>
      <trkpt lat="49.62865" lon="-1.73841">
        <ele>178.94</ele>
        <time>2013-01-06T09:37:33Z</time>
      </trkpt>
      <trkpt lat="49.62866" lon="-1.73841">
        <ele>179.9</ele>
        <time>2013-01-06T09:38:12Z</time>
      </trkpt>
      <trkpt lat="49.62866" lon="-1.73841">
        <ele>179.42</ele>
        <time>2013-01-06T09:38:49Z</time>
      </trkpt>
      <trkpt lat="49.62865" lon="-1.7384">
        <ele>178.94</ele>
        <time>2013-01-06T09:39:15Z</time>
      </trkpt>
      <trkpt lat="49.62866" lon="-1.7384">
        <ele>179.42</ele>
        <time>2013-01-06T09:39:49Z</time>
      </trkpt>
      <trkpt lat="49.62866" lon="-1.7384">
        <ele>179.42</ele>
        <time>2013-01-06T09:40:11Z</time>
      </trkpt>
      <trkpt lat="49.62864" lon="-1.7384">
        <ele>178.94</ele>
        <time>2013-01-06T09:40:41Z</time>
      </trkpt>
      <trkpt lat="49.62863" lon="-1.7384">
        <ele>179.42</ele>
        <time>2013-01-06T09:41:10Z</time>
      </trkpt>
      <trkpt lat="49.62862" lon="-1.73839">
        <ele>178.94</ele>
        <time>2013-01-06T09:41:48Z</time>
      </trkpt>
      <trkpt lat="49.62862" lon="-1.73839">
        <ele>178.94</ele>
        <time>2013-01-06T09:42:14Z</time>
      </trkpt>
      <trkpt lat="49.62862" lon="-1.7384">
        <ele>178.46</ele>
        <time>2013-01-06T09:42:49Z</time>
      </trkpt>
      <trkpt lat="49.62862" lon="-1.7384">
        <ele>178.94</ele>
        <time>2013-01-06T09:43:10Z</time>
      </trkpt>
      <trkpt lat="49.62864" lon="-1.73845">
        <ele>179.42</ele>
        <time>2013-01-06T09:43:15Z</time>
      </trkpt>
      <trkpt lat="49.62874" lon="-1.73895">
        <ele>178.94</ele>
        <time>2013-01-06T09:43:30Z</time>
      </trkpt>
      <trkpt lat="49.62894" lon="-1.73973">
        <ele>178.46</ele>
        <time>2013-01-06T09:43:45Z</time>
      </trkpt>
      <trkpt lat="49.6292" lon="-1.74072">
        <ele>177.5</ele>
        <time>2013-01-06T09:44:01Z</time>
      </trkpt>
      <trkpt lat="49.62922" lon="-1.74078">
        <ele>177.5</ele>
        <time>2013-01-06T09:44:02Z</time>
      </trkpt>
      <trkpt lat="49.62924" lon="-1.74084">
        <ele>177.98</ele>
        <time>2013-01-06T09:44:03Z</time>
      </trkpt>
      <trkpt lat="49.62925" lon="-1.7409">
        <ele>177.98</ele>
        <time>2013-01-06T09:44:04Z</time>
      </trkpt>
      <trkpt lat="49.62937" lon="-1.74123">
        <ele>177.5</ele>
        <time>2013-01-06T09:44:10Z</time>
      </trkpt>
      <trkpt lat="49.62963" lon="-1.74221">
        <ele>177.5</ele>
        <time>2013-01-06T09:44:25Z</time>
      </trkpt>
      <trkpt lat="49.62992" lon="-1.7432">
        <ele>178.94</ele>
        <time>2013-01-06T09:44:38Z</time>
      </trkpt>
      <trkpt lat="49.63037" lon="-1.74456">
        <ele>179.42</ele>
        <time>2013-01-06T09:44:52Z</time>
      </trkpt>
      <trkpt lat="49.6308" lon="-1.74555">
        <ele>179.42</ele>
        <time>2013-01-06T09:45:04Z</time>
      </trkpt>
      <trkpt lat="49.63091" lon="-1.74578">
        <ele>179.42</ele>
        <time>2013-01-06T09:45:07Z</time>
      </trkpt>
      <trkpt lat="49.63131" lon="-1.74658">
        <ele>180.87</ele>
        <time>2013-01-06T09:45:19Z</time>
      </trkpt>
      <trkpt lat="49.63137" lon="-1.74673">
        <ele>180.87</ele>
        <time>2013-01-06T09:45:21Z</time>
      </trkpt>
      <trkpt lat="49.63141" lon="-1.7468">
        <ele>180.87</ele>
        <time>2013-01-06T09:45:22Z</time>
      </trkpt>
      <trkpt lat="49.63203" lon="-1.74773">
        <ele>180.87</ele>
        <time>2013-01-06T09:45:37Z</time>
      </trkpt>
      <trkpt lat="49.63248" lon="-1.74849">
        <ele>179.9</ele>
        <time>2013-01-06T09:45:47Z</time>
      </trkpt>
      <trkpt lat="49.63308" lon="-1.74918">
        <ele>177.02</ele>
        <time>2013-01-06T09:45:58Z</time>
      </trkpt>
      <trkpt lat="49.6331" lon="-1.74923">
        <ele>176.06</ele>
        <time>2013-01-06T09:45:59Z</time>
      </trkpt>
      <trkpt lat="49.6331" lon="-1.74929">
        <ele>176.06</ele>
        <time>2013-01-06T09:46:00Z</time>
      </trkpt>
      <trkpt lat="49.63308" lon="-1.74937">
        <ele>176.06</ele>
        <time>2013-01-06T09:46:01Z</time>
      </trkpt>
      <trkpt lat="49.63306" lon="-1.74944">
        <ele>176.54</ele>
        <time>2013-01-06T09:46:02Z</time>
      </trkpt>
      <trkpt lat="49.63303" lon="-1.74953">
        <ele>176.54</ele>
        <time>2013-01-06T09:46:03Z</time>
      </trkpt>
      <trkpt lat="49.633" lon="-1.74961">
        <ele>177.5</ele>
        <time>2013-01-06T09:46:04Z</time>
      </trkpt>
      <trkpt lat="49.63296" lon="-1.7497">
        <ele>177.02</ele>
        <time>2013-01-06T09:46:05Z</time>
      </trkpt>
      <trkpt lat="49.63257" lon="-1.75076">
        <ele>177.5</ele>
        <time>2013-01-06T09:46:18Z</time>
      </trkpt>
      <trkpt lat="49.63216" lon="-1.75188">
        <ele>178.46</ele>
        <time>2013-01-06T09:46:33Z</time>
      </trkpt>
      <trkpt lat="49.63205" lon="-1.75216">
        <ele>179.42</ele>
        <time>2013-01-06T09:46:37Z</time>
      </trkpt>
      <trkpt lat="49.63196" lon="-1.75243">
        <ele>178.94</ele>
        <time>2013-01-06T09:46:41Z</time>
      </trkpt>
      <trkpt lat="49.63164" lon="-1.75328">
        <ele>180.38</ele>
        <time>2013-01-06T09:46:54Z</time>
      </trkpt>
      <trkpt lat="49.63143" lon="-1.7539">
        <ele>181.35</ele>
        <time>2013-01-06T09:47:03Z</time>
      </trkpt>
      <trkpt lat="49.63139" lon="-1.75406">
        <ele>180.87</ele>
        <time>2013-01-06T09:47:05Z</time>
      </trkpt>
      <trkpt lat="49.63112" lon="-1.75474">
        <ele>180.87</ele>
        <time>2013-01-06T09:47:14Z</time>
      </trkpt>
      <trkpt lat="49.63078" lon="-1.75565">
        <ele>179.9</ele>
        <time>2013-01-06T09:47:26Z</time>
      </trkpt>
      <trkpt lat="49.6305" lon="-1.75642">
        <ele>178.46</ele>
        <time>2013-01-06T09:47:38Z</time>
      </trkpt>
      <trkpt lat="49.63033" lon="-1.75692">
        <ele>177.5</ele>
        <time>2013-01-06T09:47:50Z</time>
      </trkpt>
      <trkpt lat="49.63027" lon="-1.75703">
        <ele>177.98</ele>
        <time>2013-01-06T09:47:54Z</time>
      </trkpt>
      <trkpt lat="49.63022" lon="-1.75713">
        <ele>176.54</ele>
        <time>2013-01-06T09:48:02Z</time>
      </trkpt>
      <trkpt lat="49.63023" lon="-1.75715">
        <ele>177.02</ele>
        <time>2013-01-06T09:48:03Z</time>
      </trkpt>
      <trkpt lat="49.63024" lon="-1.75715">
        <ele>177.5</ele>
        <time>2013-01-06T09:48:04Z</time>
      </trkpt>
      <trkpt lat="49.63027" lon="-1.75709">
        <ele>177.5</ele>
        <time>2013-01-06T09:48:13Z</time>
      </trkpt>
      <trkpt lat="49.63025" lon="-1.7571">
        <ele>177.02</ele>
        <time>2013-01-06T09:48:41Z</time>
      </trkpt>
      <trkpt lat="49.63025" lon="-1.7571">
        <ele>177.02</ele>
        <time>2013-01-06T09:49:05Z</time>
      </trkpt>
      <trkpt lat="49.63025" lon="-1.7571">
        <ele>177.02</ele>
        <time>2013-01-06T09:49:18Z</time>
      </trkpt>
      <trkpt lat="49.63025" lon="-1.75709">
        <ele>176.54</ele>
        <time>2013-01-06T09:49:33Z</time>
      </trkpt>
      <trkpt lat="49.63025" lon="-1.7571">
        <ele>177.5</ele>
        <time>2013-01-06T09:49:59Z</time>
      </trkpt>
      <trkpt lat="49.63026" lon="-1.7571">
        <ele>176.54</ele>
        <time>2013-01-06T09:50:20Z</time>
      </trkpt>
      <trkpt lat="49.63026" lon="-1.75709">
        <ele>177.02</ele>
        <time>2013-01-06T09:50:32Z</time>
      </trkpt>
      <trkpt lat="49.63027" lon="-1.75711">
        <ele>177.5</ele>
        <time>2013-01-06T09:51:02Z</time>
      </trkpt>
      <trkpt lat="49.63027" lon="-1.75711">
        <ele>177.98</ele>
        <time>2013-01-06T09:51:04Z</time>
      </trkpt>
      <trkpt lat="49.63012" lon="-1.75744">
        <ele>177.02</ele>
        <time>2013-01-06T09:51:14Z</time>
      </trkpt>
      <trkpt lat="49.62995" lon="-1.75792">
        <ele>177.02</ele>
        <time>2013-01-06T09:51:25Z</time>
      </trkpt>
      <trkpt lat="49.62966" lon="-1.75881">
        <ele>176.54</ele>
        <time>2013-01-06T09:51:37Z</time>
      </trkpt>
      <trkpt lat="49.62956" lon="-1.75911">
        <ele>175.58</ele>
        <time>2013-01-06T09:51:42Z</time>
      </trkpt>
      <trkpt lat="49.62952" lon="-1.75928">
        <ele>175.58</ele>
        <time>2013-01-06T09:51:44Z</time>
      </trkpt>
      <trkpt lat="49.62898" lon="-1.7606">
        <ele>173.17</ele>
        <time>2013-01-06T09:51:58Z</time>
      </trkpt>
      <trkpt lat="49.62861" lon="-1.76137">
        <ele>171.73</ele>
        <time>2013-01-06T09:52:09Z</time>
      </trkpt>
      <trkpt lat="49.62831" lon="-1.76237">
        <ele>170.29</ele>
        <time>2013-01-06T09:52:19Z</time>
      </trkpt>
      <trkpt lat="49.62795" lon="-1.76331">
        <ele>169.33</ele>
        <time>2013-01-06T09:52:29Z</time>
      </trkpt>
      <trkpt lat="49.62793" lon="-1.7634">
        <ele>169.33</ele>
        <time>2013-01-06T09:52:30Z</time>
      </trkpt>
      <trkpt lat="49.6279" lon="-1.76349">
        <ele>168.85</ele>
        <time>2013-01-06T09:52:31Z</time>
      </trkpt>
      <trkpt lat="49.62785" lon="-1.76367">
        <ele>168.37</ele>
        <time>2013-01-06T09:52:33Z</time>
      </trkpt>
      <trkpt lat="49.62756" lon="-1.7644">
        <ele>167.41</ele>
        <time>2013-01-06T09:52:42Z</time>
      </trkpt>
      <trkpt lat="49.62717" lon="-1.76536">
        <ele>164.52</ele>
        <time>2013-01-06T09:52:52Z</time>
      </trkpt>
      <trkpt lat="49.62706" lon="-1.76564">
        <ele>164.04</ele>
        <time>2013-01-06T09:52:55Z</time>
      </trkpt>
      <trkpt lat="49.62702" lon="-1.76572">
        <ele>163.08</ele>
        <time>2013-01-06T09:52:56Z</time>
      </trkpt>
      <trkpt lat="49.62692" lon="-1.76596">
        <ele>162.6</ele>
        <time>2013-01-06T09:53:00Z</time>
      </trkpt>
      <trkpt lat="49.62692" lon="-1.766">
        <ele>162.12</ele>
        <time>2013-01-06T09:53:01Z</time>
      </trkpt>
      <trkpt lat="49.62691" lon="-1.76605">
        <ele>162.6</ele>
        <time>2013-01-06T09:53:02Z</time>
      </trkpt>
      <trkpt lat="49.62691" lon="-1.7661">
        <ele>162.6</ele>
        <time>2013-01-06T09:53:03Z</time>
      </trkpt>
      <trkpt lat="49.6269" lon="-1.76615">
        <ele>162.12</ele>
        <time>2013-01-06T09:53:04Z</time>
      </trkpt>
      <trkpt lat="49.62689" lon="-1.7662">
        <ele>162.12</ele>
        <time>2013-01-06T09:53:05Z</time>
      </trkpt>
      <trkpt lat="49.62684" lon="-1.76638">
        <ele>161.16</ele>
        <time>2013-01-06T09:53:08Z</time>
      </trkpt>
      <trkpt lat="49.62675" lon="-1.76657">
        <ele>161.16</ele>
        <time>2013-01-06T09:53:10Z</time>
      </trkpt>
      <trkpt lat="49.62635" lon="-1.76751">
        <ele>159.72</ele>
        <time>2013-01-06T09:53:23Z</time>
      </trkpt>
      <trkpt lat="49.62593" lon="-1.76855">
        <ele>158.75</ele>
        <time>2013-01-06T09:53:36Z</time>
      </trkpt>
      <trkpt lat="49.62569" lon="-1.76903">
        <ele>158.75</ele>
        <time>2013-01-06T09:53:42Z</time>
      </trkpt>
      <trkpt lat="49.62499" lon="-1.76993">
        <ele>155.87</ele>
        <time>2013-01-06T09:53:55Z</time>
      </trkpt>
      <trkpt lat="49.62469" lon="-1.77032">
        <ele>153.95</ele>
        <time>2013-01-06T09:54:00Z</time>
      </trkpt>
      <trkpt lat="49.6246" lon="-1.7705">
        <ele>153.47</ele>
        <time>2013-01-06T09:54:02Z</time>
      </trkpt>
      <trkpt lat="49.62456" lon="-1.7706">
        <ele>152.51</ele>
        <time>2013-01-06T09:54:03Z</time>
      </trkpt>
      <trkpt lat="49.62454" lon="-1.7707">
        <ele>152.03</ele>
        <time>2013-01-06T09:54:04Z</time>
      </trkpt>
      <trkpt lat="49.62452" lon="-1.77081">
        <ele>152.03</ele>
        <time>2013-01-06T09:54:05Z</time>
      </trkpt>
      <trkpt lat="49.62451" lon="-1.77091">
        <ele>152.03</ele>
        <time>2013-01-06T09:54:06Z</time>
      </trkpt>
      <trkpt lat="49.62449" lon="-1.77157">
        <ele>149.62</ele>
        <time>2013-01-06T09:54:12Z</time>
      </trkpt>
      <trkpt lat="49.6245" lon="-1.77168">
        <ele>149.14</ele>
        <time>2013-01-06T09:54:13Z</time>
      </trkpt>
      <trkpt lat="49.62453" lon="-1.77179">
        <ele>148.66</ele>
        <time>2013-01-06T09:54:14Z</time>
      </trkpt>
      <trkpt lat="49.62456" lon="-1.7719">
        <ele>147.7</ele>
        <time>2013-01-06T09:54:15Z</time>
      </trkpt>
      <trkpt lat="49.6246" lon="-1.77201">
        <ele>147.7</ele>
        <time>2013-01-06T09:54:16Z</time>
      </trkpt>
      <trkpt lat="49.62465" lon="-1.7721">
        <ele>146.74</ele>
        <time>2013-01-06T09:54:17Z</time>
      </trkpt>
      <trkpt lat="49.6247" lon="-1.77219">
        <ele>145.78</ele>
        <time>2013-01-06T09:54:18Z</time>
      </trkpt>
      <trkpt lat="49.62476" lon="-1.77226">
        <ele>145.3</ele>
        <time>2013-01-06T09:54:19Z</time>
      </trkpt>
      <trkpt lat="49.62483" lon="-1.77232">
        <ele>144.82</ele>
        <time>2013-01-06T09:54:20Z</time>
      </trkpt>
      <trkpt lat="49.6249" lon="-1.77237">
        <ele>142.89</ele>
        <time>2013-01-06T09:54:21Z</time>
      </trkpt>
      <trkpt lat="49.62514" lon="-1.77251">
        <ele>139.53</ele>
        <time>2013-01-06T09:54:24Z</time>
      </trkpt>
      <trkpt lat="49.62522" lon="-1.77255">
        <ele>138.09</ele>
        <time>2013-01-06T09:54:25Z</time>
      </trkpt>
      <trkpt lat="49.62545" lon="-1.77265">
        <ele>134.24</ele>
        <time>2013-01-06T09:54:28Z</time>
      </trkpt>
      <trkpt lat="49.62552" lon="-1.7727">
        <ele>133.76</ele>
        <time>2013-01-06T09:54:29Z</time>
      </trkpt>
      <trkpt lat="49.62572" lon="-1.77288">
        <ele>133.28</ele>
        <time>2013-01-06T09:54:34Z</time>
      </trkpt>
      <trkpt lat="49.62574" lon="-1.77289">
        <ele>133.76</ele>
        <time>2013-01-06T09:54:35Z</time>
      </trkpt>
      <trkpt lat="49.62587" lon="-1.77293">
        <ele>136.64</ele>
        <time>2013-01-06T09:54:42Z</time>
      </trkpt>
      <trkpt lat="49.62599" lon="-1.77302">
        <ele>138.09</ele>
        <time>2013-01-06T09:54:54Z</time>
      </trkpt>
      <trkpt lat="49.62603" lon="-1.77304">
        <ele>137.13</ele>
        <time>2013-01-06T09:55:11Z</time>
      </trkpt>
      <trkpt lat="49.62603" lon="-1.77306">
        <ele>137.61</ele>
        <time>2013-01-06T09:55:28Z</time>
      </trkpt>
      <trkpt lat="49.62604" lon="-1.77306">
        <ele>138.09</ele>
        <time>2013-01-06T09:55:52Z</time>
      </trkpt>
      <trkpt lat="49.62604" lon="-1.77306">
        <ele>135.68</ele>
        <time>2013-01-06T09:56:05Z</time>
      </trkpt>
      <trkpt lat="49.62603" lon="-1.77305">
        <ele>138.09</ele>
        <time>2013-01-06T09:56:16Z</time>
      </trkpt>
      <trkpt lat="49.62602" lon="-1.77305">
        <ele>137.61</ele>
        <time>2013-01-06T09:56:32Z</time>
      </trkpt>
      <trkpt lat="49.62601" lon="-1.77304">
        <ele>138.09</ele>
        <time>2013-01-06T09:56:42Z</time>
      </trkpt>
      <trkpt lat="49.626" lon="-1.77302">
        <ele>137.13</ele>
        <time>2013-01-06T09:56:55Z</time>
      </trkpt>
      <trkpt lat="49.626" lon="-1.77303">
        <ele>137.13</ele>
        <time>2013-01-06T09:57:09Z</time>
      </trkpt>
      <trkpt lat="49.62598" lon="-1.77302">
        <ele>137.13</ele>
        <time>2013-01-06T09:57:10Z</time>
      </trkpt>
      <trkpt lat="49.62596" lon="-1.77301">
        <ele>137.13</ele>
        <time>2013-01-06T09:57:11Z</time>
      </trkpt>
      <trkpt lat="49.62575" lon="-1.77298">
        <ele>135.2</ele>
        <time>2013-01-06T09:57:16Z</time>
      </trkpt>
      <trkpt lat="49.62562" lon="-1.77293">
        <ele>134.24</ele>
        <time>2013-01-06T09:57:18Z</time>
      </trkpt>
      <trkpt lat="49.62532" lon="-1.77271">
        <ele>134.24</ele>
        <time>2013-01-06T09:57:24Z</time>
      </trkpt>
      <trkpt lat="49.62514" lon="-1.77262">
        <ele>136.64</ele>
        <time>2013-01-06T09:57:29Z</time>
      </trkpt>
      <trkpt lat="49.62496" lon="-1.7725">
        <ele>140.01</ele>
        <time>2013-01-06T09:57:36Z</time>
      </trkpt>
      <trkpt lat="49.62491" lon="-1.77247">
        <ele>140.49</ele>
        <time>2013-01-06T09:57:38Z</time>
      </trkpt>
      <trkpt lat="49.62481" lon="-1.77239">
        <ele>142.89</ele>
        <time>2013-01-06T09:57:42Z</time>
      </trkpt>
      <trkpt lat="49.62468" lon="-1.77223">
        <ele>144.34</ele>
        <time>2013-01-06T09:57:48Z</time>
      </trkpt>
      <trkpt lat="49.62452" lon="-1.7718">
        <ele>146.74</ele>
        <time>2013-01-06T09:58:00Z</time>
      </trkpt>
      <trkpt lat="49.62448" lon="-1.77127">
        <ele>149.62</ele>
        <time>2013-01-06T09:58:12Z</time>
      </trkpt>
      <trkpt lat="49.6246" lon="-1.7705">
        <ele>151.54</ele>
        <time>2013-01-06T09:58:27Z</time>
      </trkpt>
      <trkpt lat="49.62492" lon="-1.76997">
        <ele>153.47</ele>
        <time>2013-01-06T09:58:41Z</time>
      </trkpt>
      <trkpt lat="49.62528" lon="-1.76957">
        <ele>155.87</ele>
        <time>2013-01-06T09:58:54Z</time>
      </trkpt>
      <trkpt lat="49.62563" lon="-1.76912">
        <ele>157.31</ele>
        <time>2013-01-06T09:59:07Z</time>
      </trkpt>
      <trkpt lat="49.62594" lon="-1.76852">
        <ele>159.24</ele>
        <time>2013-01-06T09:59:20Z</time>
      </trkpt>
      <trkpt lat="49.62621" lon="-1.7679">
        <ele>159.72</ele>
        <time>2013-01-06T09:59:33Z</time>
      </trkpt>
      <trkpt lat="49.62652" lon="-1.7671">
        <ele>161.16</ele>
        <time>2013-01-06T09:59:47Z</time>
      </trkpt>
      <trkpt lat="49.62678" lon="-1.76645">
        <ele>162.6</ele>
        <time>2013-01-06T09:59:59Z</time>
      </trkpt>
      <trkpt lat="49.62686" lon="-1.76618">
        <ele>163.08</ele>
        <time>2013-01-06T10:00:04Z</time>
      </trkpt>
      <trkpt lat="49.62689" lon="-1.76611">
        <ele>162.6</ele>
        <time>2013-01-06T10:00:05Z</time>
      </trkpt>
      <trkpt lat="49.62691" lon="-1.76605">
        <ele>163.56</ele>
        <time>2013-01-06T10:00:06Z</time>
      </trkpt>
      <trkpt lat="49.62693" lon="-1.76599">
        <ele>163.56</ele>
        <time>2013-01-06T10:00:07Z</time>
      </trkpt>
      <trkpt lat="49.62695" lon="-1.76594">
        <ele>163.56</ele>
        <time>2013-01-06T10:00:08Z</time>
      </trkpt>
      <trkpt lat="49.62719" lon="-1.76528">
        <ele>165.48</ele>
        <time>2013-01-06T10:00:19Z</time>
      </trkpt>
      <trkpt lat="49.62746" lon="-1.76462">
        <ele>167.41</ele>
        <time>2013-01-06T10:00:31Z</time>
      </trkpt>
      <trkpt lat="49.62767" lon="-1.76406">
        <ele>168.37</ele>
        <time>2013-01-06T10:00:43Z</time>
      </trkpt>
      <trkpt lat="49.62792" lon="-1.76346">
        <ele>169.81</ele>
        <time>2013-01-06T10:00:54Z</time>
      </trkpt>
      <trkpt lat="49.62794" lon="-1.76339">
        <ele>169.33</ele>
        <time>2013-01-06T10:00:55Z</time>
      </trkpt>
      <trkpt lat="49.62796" lon="-1.76331">
        <ele>169.33</ele>
        <time>2013-01-06T10:00:56Z</time>
      </trkpt>
      <trkpt lat="49.62802" lon="-1.76309">
        <ele>169.81</ele>
        <time>2013-01-06T10:00:59Z</time>
      </trkpt>
      <trkpt lat="49.62805" lon="-1.76303">
        <ele>169.81</ele>
        <time>2013-01-06T10:01:00Z</time>
      </trkpt>
      <trkpt lat="49.62813" lon="-1.7628">
        <ele>170.29</ele>
        <time>2013-01-06T10:01:04Z</time>
      </trkpt>
      <trkpt lat="49.62815" lon="-1.76272">
        <ele>170.29</ele>
        <time>2013-01-06T10:01:05Z</time>
      </trkpt>
      <trkpt lat="49.62817" lon="-1.76266">
        <ele>169.81</ele>
        <time>2013-01-06T10:01:06Z</time>
      </trkpt>
      <trkpt lat="49.62826" lon="-1.76245">
        <ele>170.29</ele>
        <time>2013-01-06T10:01:10Z</time>
      </trkpt>
      <trkpt lat="49.62828" lon="-1.76239">
        <ele>170.77</ele>
        <time>2013-01-06T10:01:11Z</time>
      </trkpt>
      <trkpt lat="49.6283" lon="-1.76234">
        <ele>170.77</ele>
        <time>2013-01-06T10:01:12Z</time>
      </trkpt>
      <trkpt lat="49.62853" lon="-1.76177">
        <ele>171.25</ele>
        <time>2013-01-06T10:01:23Z</time>
      </trkpt>
      <trkpt lat="49.62855" lon="-1.7617">
        <ele>171.73</ele>
        <time>2013-01-06T10:01:24Z</time>
      </trkpt>
      <trkpt lat="49.62857" lon="-1.76165">
        <ele>171.25</ele>
        <time>2013-01-06T10:01:25Z</time>
      </trkpt>
      <trkpt lat="49.62861" lon="-1.76154">
        <ele>171.73</ele>
        <time>2013-01-06T10:01:27Z</time>
      </trkpt>
      <trkpt lat="49.62876" lon="-1.7611">
        <ele>172.21</ele>
        <time>2013-01-06T10:01:34Z</time>
      </trkpt>
      <trkpt lat="49.62902" lon="-1.76039">
        <ele>174.14</ele>
        <time>2013-01-06T10:01:46Z</time>
      </trkpt>
      <trkpt lat="49.62905" lon="-1.76033">
        <ele>174.62</ele>
        <time>2013-01-06T10:01:47Z</time>
      </trkpt>
      <trkpt lat="49.62908" lon="-1.76027">
        <ele>174.62</ele>
        <time>2013-01-06T10:01:48Z</time>
      </trkpt>
      <trkpt lat="49.62913" lon="-1.76015">
        <ele>174.62</ele>
        <time>2013-01-06T10:01:50Z</time>
      </trkpt>
      <trkpt lat="49.62942" lon="-1.75939">
        <ele>176.06</ele>
        <time>2013-01-06T10:02:01Z</time>
      </trkpt>
      <trkpt lat="49.62972" lon="-1.75862">
        <ele>177.02</ele>
        <time>2013-01-06T10:02:14Z</time>
      </trkpt>
      <trkpt lat="49.62993" lon="-1.75792">
        <ele>177.98</ele>
        <time>2013-01-06T10:02:27Z</time>
      </trkpt>
      <trkpt lat="49.63015" lon="-1.7574">
        <ele>178.46</ele>
        <time>2013-01-06T10:02:38Z</time>
      </trkpt>
      <trkpt lat="49.63018" lon="-1.75727">
        <ele>178.46</ele>
        <time>2013-01-06T10:02:44Z</time>
      </trkpt>
      <trkpt lat="49.63019" lon="-1.75726">
        <ele>178.94</ele>
        <time>2013-01-06T10:02:45Z</time>
      </trkpt>
      <trkpt lat="49.6302" lon="-1.75725">
        <ele>178.46</ele>
        <time>2013-01-06T10:02:46Z</time>
      </trkpt>
      <trkpt lat="49.63021" lon="-1.75723">
        <ele>178.94</ele>
        <time>2013-01-06T10:02:47Z</time>
      </trkpt>
      <trkpt lat="49.63022" lon="-1.75714">
        <ele>178.46</ele>
        <time>2013-01-06T10:03:02Z</time>
      </trkpt>
      <trkpt lat="49.63022" lon="-1.75712">
        <ele>178.94</ele>
        <time>2013-01-06T10:03:25Z</time>
      </trkpt>
      <trkpt lat="49.63024" lon="-1.75708">
        <ele>179.42</ele>
        <time>2013-01-06T10:03:38Z</time>
      </trkpt>
      <trkpt lat="49.63024" lon="-1.75707">
        <ele>178.94</ele>
        <time>2013-01-06T10:04:00Z</time>
      </trkpt>
      <trkpt lat="49.63025" lon="-1.75706">
        <ele>178.94</ele>
        <time>2013-01-06T10:04:15Z</time>
      </trkpt>
      <trkpt lat="49.63032" lon="-1.75703">
        <ele>179.42</ele>
        <time>2013-01-06T10:04:18Z</time>
      </trkpt>
      <trkpt lat="49.63035" lon="-1.75704">
        <ele>179.42</ele>
        <time>2013-01-06T10:04:19Z</time>
      </trkpt>
      <trkpt lat="49.63092" lon="-1.75755">
        <ele>180.87</ele>
        <time>2013-01-06T10:04:35Z</time>
      </trkpt>
      <trkpt lat="49.63172" lon="-1.7583">
        <ele>180.87</ele>
        <time>2013-01-06T10:04:54Z</time>
      </trkpt>
      <trkpt lat="49.63265" lon="-1.75915">
        <ele>177.98</ele>
        <time>2013-01-06T10:05:10Z</time>
      </trkpt>
      <trkpt lat="49.63271" lon="-1.75922">
        <ele>177.5</ele>
        <time>2013-01-06T10:05:11Z</time>
      </trkpt>
      <trkpt lat="49.63326" lon="-1.75984">
        <ele>174.14</ele>
        <time>2013-01-06T10:05:19Z</time>
      </trkpt>
      <trkpt lat="49.6334" lon="-1.76004">
        <ele>173.17</ele>
        <time>2013-01-06T10:05:21Z</time>
      </trkpt>
      <trkpt lat="49.63381" lon="-1.76069">
        <ele>169.33</ele>
        <time>2013-01-06T10:05:27Z</time>
      </trkpt>
      <trkpt lat="49.63409" lon="-1.76116">
        <ele>166.45</ele>
        <time>2013-01-06T10:05:31Z</time>
      </trkpt>
      <trkpt lat="49.63423" lon="-1.76139">
        <ele>165.48</ele>
        <time>2013-01-06T10:05:33Z</time>
      </trkpt>
      <trkpt lat="49.63452" lon="-1.76188">
        <ele>162.12</ele>
        <time>2013-01-06T10:05:37Z</time>
      </trkpt>
      <trkpt lat="49.63483" lon="-1.7624">
        <ele>158.75</ele>
        <time>2013-01-06T10:05:41Z</time>
      </trkpt>
      <trkpt lat="49.63491" lon="-1.76253">
        <ele>158.75</ele>
        <time>2013-01-06T10:05:42Z</time>
      </trkpt>
      <trkpt lat="49.63522" lon="-1.76306">
        <ele>155.87</ele>
        <time>2013-01-06T10:05:46Z</time>
      </trkpt>
      <trkpt lat="49.63537" lon="-1.76332">
        <ele>154.43</ele>
        <time>2013-01-06T10:05:48Z</time>
      </trkpt>
      <trkpt lat="49.63561" lon="-1.76373">
        <ele>150.1</ele>
        <time>2013-01-06T10:05:51Z</time>
      </trkpt>
      <trkpt lat="49.63569" lon="-1.76387">
        <ele>150.58</ele>
        <time>2013-01-06T10:05:52Z</time>
      </trkpt>
      <trkpt lat="49.63634" lon="-1.76496">
        <ele>147.22</ele>
        <time>2013-01-06T10:06:00Z</time>
      </trkpt>
      <trkpt lat="49.63649" lon="-1.76522">
        <ele>146.26</ele>
        <time>2013-01-06T10:06:02Z</time>
      </trkpt>
      <trkpt lat="49.63746" lon="-1.76673">
        <ele>145.78</ele>
        <time>2013-01-06T10:06:16Z</time>
      </trkpt>
      <trkpt lat="49.63803" lon="-1.76746">
        <ele>149.62</ele>
        <time>2013-01-06T10:06:26Z</time>
      </trkpt>
      <trkpt lat="49.63858" lon="-1.76813">
        <ele>152.99</ele>
        <time>2013-01-06T10:06:36Z</time>
      </trkpt>
      <trkpt lat="49.63917" lon="-1.76881">
        <ele>155.87</ele>
        <time>2013-01-06T10:06:50Z</time>
      </trkpt>
      <trkpt lat="49.63959" lon="-1.76932">
        <ele>157.31</ele>
        <time>2013-01-06T10:07:05Z</time>
      </trkpt>
      <trkpt lat="49.63993" lon="-1.76975">
        <ele>158.27</ele>
        <time>2013-01-06T10:07:18Z</time>
      </trkpt>
      <trkpt lat="49.64039" lon="-1.7703">
        <ele>158.75</ele>
        <time>2013-01-06T10:07:34Z</time>
      </trkpt>
      <trkpt lat="49.64064" lon="-1.77042">
        <ele>158.75</ele>
        <time>2013-01-06T10:07:43Z</time>
      </trkpt>
      <trkpt lat="49.64091" lon="-1.77027">
        <ele>157.79</ele>
        <time>2013-01-06T10:07:54Z</time>
      </trkpt>
      <trkpt lat="49.64135" lon="-1.77004">
        <ele>156.35</ele>
        <time>2013-01-06T10:08:08Z</time>
      </trkpt>
      <trkpt lat="49.642" lon="-1.76949">
        <ele>153.47</ele>
        <time>2013-01-06T10:08:23Z</time>
      </trkpt>
      <trkpt lat="49.64276" lon="-1.76879">
        <ele>150.1</ele>
        <time>2013-01-06T10:08:36Z</time>
      </trkpt>
      <trkpt lat="49.64286" lon="-1.76869">
        <ele>149.14</ele>
        <time>2013-01-06T10:08:38Z</time>
      </trkpt>
      <trkpt lat="49.64311" lon="-1.76855">
        <ele>146.26</ele>
        <time>2013-01-06T10:08:48Z</time>
      </trkpt>
      <trkpt lat="49.64314" lon="-1.76854">
        <ele>145.78</ele>
        <time>2013-01-06T10:08:50Z</time>
      </trkpt>
      <trkpt lat="49.64317" lon="-1.76852">
        <ele>146.26</ele>
        <time>2013-01-06T10:08:51Z</time>
      </trkpt>
      <trkpt lat="49.6432" lon="-1.76847">
        <ele>147.7</ele>
        <time>2013-01-06T10:08:59Z</time>
      </trkpt>
      <trkpt lat="49.6432" lon="-1.76845">
        <ele>147.22</ele>
        <time>2013-01-06T10:09:00Z</time>
      </trkpt>
      <trkpt lat="49.6432" lon="-1.76843">
        <ele>147.7</ele>
        <time>2013-01-06T10:09:01Z</time>
      </trkpt>
      <trkpt lat="49.64321" lon="-1.76842">
        <ele>147.7</ele>
        <time>2013-01-06T10:09:02Z</time>
      </trkpt>
      <trkpt lat="49.64323" lon="-1.76842">
        <ele>147.7</ele>
        <time>2013-01-06T10:09:03Z</time>
      </trkpt>
      <trkpt lat="49.64325" lon="-1.76841">
        <ele>147.7</ele>
        <time>2013-01-06T10:09:04Z</time>
      </trkpt>
      <trkpt lat="49.64327" lon="-1.76838">
        <ele>148.18</ele>
        <time>2013-01-06T10:09:05Z</time>
      </trkpt>
      <trkpt lat="49.64342" lon="-1.76832">
        <ele>146.74</ele>
        <time>2013-01-06T10:09:17Z</time>
      </trkpt>
      <trkpt lat="49.64348" lon="-1.76829">
        <ele>147.7</ele>
        <time>2013-01-06T10:09:21Z</time>
      </trkpt>
      <trkpt lat="49.6435" lon="-1.76828">
        <ele>147.7</ele>
        <time>2013-01-06T10:09:22Z</time>
      </trkpt>
      <trkpt lat="49.64393" lon="-1.76799">
        <ele>147.22</ele>
        <time>2013-01-06T10:09:39Z</time>
      </trkpt>
      <trkpt lat="49.64433" lon="-1.7676">
        <ele>148.66</ele>
        <time>2013-01-06T10:09:52Z</time>
      </trkpt>
      <trkpt lat="49.64492" lon="-1.7671">
        <ele>150.58</ele>
        <time>2013-01-06T10:10:09Z</time>
      </trkpt>
      <trkpt lat="49.64496" lon="-1.76706">
        <ele>150.58</ele>
        <time>2013-01-06T10:10:10Z</time>
      </trkpt>
      <trkpt lat="49.64499" lon="-1.76702">
        <ele>150.58</ele>
        <time>2013-01-06T10:10:11Z</time>
      </trkpt>
      <trkpt lat="49.64513" lon="-1.76688">
        <ele>150.58</ele>
        <time>2013-01-06T10:10:15Z</time>
      </trkpt>
      <trkpt lat="49.64517" lon="-1.76685">
        <ele>150.58</ele>
        <time>2013-01-06T10:10:16Z</time>
      </trkpt>
      <trkpt lat="49.6452" lon="-1.76681">
        <ele>150.58</ele>
        <time>2013-01-06T10:10:17Z</time>
      </trkpt>
      <trkpt lat="49.64523" lon="-1.76678">
        <ele>150.58</ele>
        <time>2013-01-06T10:10:18Z</time>
      </trkpt>
      <trkpt lat="49.64526" lon="-1.76675">
        <ele>150.58</ele>
        <time>2013-01-06T10:10:19Z</time>
      </trkpt>
      <trkpt lat="49.64551" lon="-1.76653">
        <ele>150.1</ele>
        <time>2013-01-06T10:10:27Z</time>
      </trkpt>
      <trkpt lat="49.64552" lon="-1.76647">
        <ele>150.58</ele>
        <time>2013-01-06T10:10:28Z</time>
      </trkpt>
      <trkpt lat="49.64553" lon="-1.76641">
        <ele>150.1</ele>
        <time>2013-01-06T10:10:29Z</time>
      </trkpt>
      <trkpt lat="49.64553" lon="-1.76635">
        <ele>150.1</ele>
        <time>2013-01-06T10:10:30Z</time>
      </trkpt>
      <trkpt lat="49.64553" lon="-1.76628">
        <ele>150.1</ele>
        <time>2013-01-06T10:10:31Z</time>
      </trkpt>
      <trkpt lat="49.64553" lon="-1.7655">
        <ele>150.58</ele>
        <time>2013-01-06T10:10:42Z</time>
      </trkpt>
      <trkpt lat="49.64554" lon="-1.76543">
        <ele>150.1</ele>
        <time>2013-01-06T10:10:43Z</time>
      </trkpt>
      <trkpt lat="49.64557" lon="-1.76537">
        <ele>150.58</ele>
        <time>2013-01-06T10:10:44Z</time>
      </trkpt>
      <trkpt lat="49.6456" lon="-1.76532">
        <ele>150.58</ele>
        <time>2013-01-06T10:10:45Z</time>
      </trkpt>
      <trkpt lat="49.64565" lon="-1.76528">
        <ele>150.58</ele>
        <time>2013-01-06T10:10:46Z</time>
      </trkpt>
      <trkpt lat="49.64569" lon="-1.76525">
        <ele>150.58</ele>
        <time>2013-01-06T10:10:47Z</time>
      </trkpt>
      <trkpt lat="49.64582" lon="-1.76516">
        <ele>150.1</ele>
        <time>2013-01-06T10:10:50Z</time>
      </trkpt>
      <trkpt lat="49.64624" lon="-1.76461">
        <ele>152.03</ele>
        <time>2013-01-06T10:11:01Z</time>
      </trkpt>
      <trkpt lat="49.64628" lon="-1.76454">
        <ele>152.51</ele>
        <time>2013-01-06T10:11:02Z</time>
      </trkpt>
      <trkpt lat="49.64665" lon="-1.76353">
        <ele>152.99</ele>
        <time>2013-01-06T10:11:17Z</time>
      </trkpt>
      <trkpt lat="49.64705" lon="-1.7625">
        <ele>152.03</ele>
        <time>2013-01-06T10:11:32Z</time>
      </trkpt>
      <trkpt lat="49.6476" lon="-1.76139">
        <ele>150.1</ele>
        <time>2013-01-06T10:11:48Z</time>
      </trkpt>
      <trkpt lat="49.64815" lon="-1.76004">
        <ele>147.22</ele>
        <time>2013-01-06T10:12:04Z</time>
      </trkpt>
      <trkpt lat="49.64849" lon="-1.75942">
        <ele>145.3</ele>
        <time>2013-01-06T10:12:11Z</time>
      </trkpt>
      <trkpt lat="49.64935" lon="-1.75868">
        <ele>142.41</ele>
        <time>2013-01-06T10:12:23Z</time>
      </trkpt>
      <trkpt lat="49.65033" lon="-1.75747">
        <ele>141.45</ele>
        <time>2013-01-06T10:12:37Z</time>
      </trkpt>
      <trkpt lat="49.65101" lon="-1.75644">
        <ele>138.09</ele>
        <time>2013-01-06T10:12:47Z</time>
      </trkpt>
      <trkpt lat="49.65154" lon="-1.75587">
        <ele>135.2</ele>
        <time>2013-01-06T10:12:53Z</time>
      </trkpt>
      <trkpt lat="49.65233" lon="-1.75463">
        <ele>132.8</ele>
        <time>2013-01-06T10:13:04Z</time>
      </trkpt>
      <trkpt lat="49.65279" lon="-1.75348">
        <ele>133.76</ele>
        <time>2013-01-06T10:13:15Z</time>
      </trkpt>
      <trkpt lat="49.65285" lon="-1.75336">
        <ele>134.72</ele>
        <time>2013-01-06T10:13:17Z</time>
      </trkpt>
      <trkpt lat="49.65359" lon="-1.75243">
        <ele>133.28</ele>
        <time>2013-01-06T10:13:32Z</time>
      </trkpt>
      <trkpt lat="49.65441" lon="-1.7515">
        <ele>130.4</ele>
        <time>2013-01-06T10:13:46Z</time>
      </trkpt>
      <trkpt lat="49.65521" lon="-1.75077">
        <ele>127.03</ele>
        <time>2013-01-06T10:13:56Z</time>
      </trkpt>
      <trkpt lat="49.65609" lon="-1.74951">
        <ele>123.67</ele>
        <time>2013-01-06T10:14:08Z</time>
      </trkpt>
      <trkpt lat="49.65616" lon="-1.74938">
        <ele>123.19</ele>
        <time>2013-01-06T10:14:09Z</time>
      </trkpt>
      <trkpt lat="49.65658" lon="-1.74866">
        <ele>120.3</ele>
        <time>2013-01-06T10:14:15Z</time>
      </trkpt>
      <trkpt lat="49.65771" lon="-1.74708">
        <ele>117.42</ele>
        <time>2013-01-06T10:14:30Z</time>
      </trkpt>
      <trkpt lat="49.65864" lon="-1.74598">
        <ele>115.01</ele>
        <time>2013-01-06T10:14:42Z</time>
      </trkpt>
      <trkpt lat="49.65872" lon="-1.74589">
        <ele>114.53</ele>
        <time>2013-01-06T10:14:43Z</time>
      </trkpt>
      <trkpt lat="49.65913" lon="-1.7454">
        <ele>112.13</ele>
        <time>2013-01-06T10:14:48Z</time>
      </trkpt>
      <trkpt lat="49.65968" lon="-1.74467">
        <ele>109.73</ele>
        <time>2013-01-06T10:14:55Z</time>
      </trkpt>
      <trkpt lat="49.65977" lon="-1.74458">
        <ele>109.73</ele>
        <time>2013-01-06T10:14:56Z</time>
      </trkpt>
      <trkpt lat="49.65986" lon="-1.74451">
        <ele>109.25</ele>
        <time>2013-01-06T10:14:57Z</time>
      </trkpt>
      <trkpt lat="49.66113" lon="-1.74351">
        <ele>108.29</ele>
        <time>2013-01-06T10:15:11Z</time>
      </trkpt>
      <trkpt lat="49.66181" lon="-1.74298">
        <ele>106.36</ele>
        <time>2013-01-06T10:15:20Z</time>
      </trkpt>
      <trkpt lat="49.66187" lon="-1.74293">
        <ele>106.36</ele>
        <time>2013-01-06T10:15:21Z</time>
      </trkpt>
      <trkpt lat="49.66192" lon="-1.74286">
        <ele>106.36</ele>
        <time>2013-01-06T10:15:22Z</time>
      </trkpt>
      <trkpt lat="49.6621" lon="-1.74261">
        <ele>105.4</ele>
        <time>2013-01-06T10:15:26Z</time>
      </trkpt>
      <trkpt lat="49.66217" lon="-1.74247">
        <ele>105.4</ele>
        <time>2013-01-06T10:15:28Z</time>
      </trkpt>
      <trkpt lat="49.66258" lon="-1.74184">
        <ele>104.92</ele>
        <time>2013-01-06T10:15:39Z</time>
      </trkpt>
      <trkpt lat="49.66261" lon="-1.7418">
        <ele>106.36</ele>
        <time>2013-01-06T10:15:40Z</time>
      </trkpt>
      <trkpt lat="49.66264" lon="-1.74175">
        <ele>106.36</ele>
        <time>2013-01-06T10:15:41Z</time>
      </trkpt>
      <trkpt lat="49.66268" lon="-1.74171">
        <ele>105.88</ele>
        <time>2013-01-06T10:15:42Z</time>
      </trkpt>
      <trkpt lat="49.6627" lon="-1.74165">
        <ele>106.36</ele>
        <time>2013-01-06T10:15:43Z</time>
      </trkpt>
      <trkpt lat="49.66273" lon="-1.7416">
        <ele>106.36</ele>
        <time>2013-01-06T10:15:44Z</time>
      </trkpt>
      <trkpt lat="49.66276" lon="-1.74154">
        <ele>106.84</ele>
        <time>2013-01-06T10:15:45Z</time>
      </trkpt>
      <trkpt lat="49.66304" lon="-1.74093">
        <ele>108.29</ele>
        <time>2013-01-06T10:15:57Z</time>
      </trkpt>
      <trkpt lat="49.66323" lon="-1.74052">
        <ele>107.81</ele>
        <time>2013-01-06T10:16:08Z</time>
      </trkpt>
      <trkpt lat="49.66352" lon="-1.73993">
        <ele>106.36</ele>
        <time>2013-01-06T10:16:19Z</time>
      </trkpt>
      <trkpt lat="49.66369" lon="-1.73953">
        <ele>105.88</ele>
        <time>2013-01-06T10:16:25Z</time>
      </trkpt>
      <trkpt lat="49.6638" lon="-1.73928">
        <ele>105.4</ele>
        <time>2013-01-06T10:16:29Z</time>
      </trkpt>
      <trkpt lat="49.66383" lon="-1.73922">
        <ele>104.92</ele>
        <time>2013-01-06T10:16:30Z</time>
      </trkpt>
      <trkpt lat="49.66396" lon="-1.73894">
        <ele>103.96</ele>
        <time>2013-01-06T10:16:38Z</time>
      </trkpt>
      <trkpt lat="49.66399" lon="-1.73891">
        <ele>103.48</ele>
        <time>2013-01-06T10:16:39Z</time>
      </trkpt>
      <trkpt lat="49.66401" lon="-1.73887">
        <ele>103.96</ele>
        <time>2013-01-06T10:16:40Z</time>
      </trkpt>
      <trkpt lat="49.66404" lon="-1.73883">
        <ele>103.96</ele>
        <time>2013-01-06T10:16:41Z</time>
      </trkpt>
      <trkpt lat="49.66407" lon="-1.73879">
        <ele>104.44</ele>
        <time>2013-01-06T10:16:42Z</time>
      </trkpt>
      <trkpt lat="49.66422" lon="-1.73856">
        <ele>103.96</ele>
        <time>2013-01-06T10:16:47Z</time>
      </trkpt>
      <trkpt lat="49.66426" lon="-1.73851">
        <ele>103.96</ele>
        <time>2013-01-06T10:16:48Z</time>
      </trkpt>
      <trkpt lat="49.6643" lon="-1.73847">
        <ele>103.96</ele>
        <time>2013-01-06T10:16:49Z</time>
      </trkpt>
      <trkpt lat="49.6646" lon="-1.73805">
        <ele>104.92</ele>
        <time>2013-01-06T10:16:58Z</time>
      </trkpt>
      <trkpt lat="49.66464" lon="-1.73799">
        <ele>105.4</ele>
        <time>2013-01-06T10:16:59Z</time>
      </trkpt>
      <trkpt lat="49.66477" lon="-1.73781">
        <ele>105.4</ele>
        <time>2013-01-06T10:17:03Z</time>
      </trkpt>
      <trkpt lat="49.66481" lon="-1.73776">
        <ele>105.88</ele>
        <time>2013-01-06T10:17:04Z</time>
      </trkpt>
      <trkpt lat="49.66484" lon="-1.73771">
        <ele>105.4</ele>
        <time>2013-01-06T10:17:05Z</time>
      </trkpt>
      <trkpt lat="49.66518" lon="-1.73733">
        <ele>103.96</ele>
        <time>2013-01-06T10:17:15Z</time>
      </trkpt>
      <trkpt lat="49.66549" lon="-1.73712">
        <ele>103</ele>
        <time>2013-01-06T10:17:26Z</time>
      </trkpt>
      <trkpt lat="49.66553" lon="-1.73708">
        <ele>103.48</ele>
        <time>2013-01-06T10:17:38Z</time>
      </trkpt>
      <trkpt lat="49.66554" lon="-1.73708">
        <ele>103.48</ele>
        <time>2013-01-06T10:18:08Z</time>
      </trkpt>
      <trkpt lat="49.66555" lon="-1.73709">
        <ele>103</ele>
        <time>2013-01-06T10:18:20Z</time>
      </trkpt>
      <trkpt lat="49.66555" lon="-1.73709">
        <ele>103.48</ele>
        <time>2013-01-06T10:18:25Z</time>
      </trkpt>
      <trkpt lat="49.66555" lon="-1.73707">
        <ele>103.48</ele>
        <time>2013-01-06T10:18:26Z</time>
      </trkpt>
      <trkpt lat="49.66551" lon="-1.73665">
        <ele>103.96</ele>
        <time>2013-01-06T10:18:32Z</time>
      </trkpt>
      <trkpt lat="49.66551" lon="-1.73656">
        <ele>103.48</ele>
        <time>2013-01-06T10:18:33Z</time>
      </trkpt>
      <trkpt lat="49.66551" lon="-1.73647">
        <ele>103.96</ele>
        <time>2013-01-06T10:18:34Z</time>
      </trkpt>
      <trkpt lat="49.66553" lon="-1.73637">
        <ele>103.96</ele>
        <time>2013-01-06T10:18:35Z</time>
      </trkpt>
      <trkpt lat="49.66554" lon="-1.73628">
        <ele>103.96</ele>
        <time>2013-01-06T10:18:36Z</time>
      </trkpt>
      <trkpt lat="49.66556" lon="-1.73619">
        <ele>103.96</ele>
        <time>2013-01-06T10:18:37Z</time>
      </trkpt>
      <trkpt lat="49.66558" lon="-1.7361">
        <ele>103.48</ele>
        <time>2013-01-06T10:18:38Z</time>
      </trkpt>
      <trkpt lat="49.66572" lon="-1.73556">
        <ele>102.52</ele>
        <time>2013-01-06T10:18:48Z</time>
      </trkpt>
      <trkpt lat="49.6658" lon="-1.73555">
        <ele>103</ele>
        <time>2013-01-06T10:19:02Z</time>
      </trkpt>
      <trkpt lat="49.66582" lon="-1.73555">
        <ele>103</ele>
        <time>2013-01-06T10:19:04Z</time>
      </trkpt>
      <trkpt lat="49.6659" lon="-1.73556">
        <ele>103.48</ele>
        <time>2013-01-06T10:19:12Z</time>
      </trkpt>
      <trkpt lat="49.66595" lon="-1.73551">
        <ele>103.96</ele>
        <time>2013-01-06T10:19:16Z</time>
      </trkpt>
      <trkpt lat="49.66596" lon="-1.73551">
        <ele>103.48</ele>
        <time>2013-01-06T10:19:17Z</time>
      </trkpt>
      <trkpt lat="49.66597" lon="-1.73551">
        <ele>103.96</ele>
        <time>2013-01-06T10:19:18Z</time>
      </trkpt>
      <trkpt lat="49.66598" lon="-1.73551">
        <ele>103.48</ele>
        <time>2013-01-06T10:19:19Z</time>
      </trkpt>
      <trkpt lat="49.666" lon="-1.73552">
        <ele>103.96</ele>
        <time>2013-01-06T10:19:20Z</time>
      </trkpt>
      <trkpt lat="49.66601" lon="-1.73553">
        <ele>103.96</ele>
        <time>2013-01-06T10:19:21Z</time>
      </trkpt>
      <trkpt lat="49.66604" lon="-1.73554">
        <ele>103.96</ele>
        <time>2013-01-06T10:19:22Z</time>
      </trkpt>
      <trkpt lat="49.66606" lon="-1.73555">
        <ele>103.96</ele>
        <time>2013-01-06T10:19:23Z</time>
      </trkpt>
      <trkpt lat="49.66609" lon="-1.73555">
        <ele>103.96</ele>
        <time>2013-01-06T10:19:24Z</time>
      </trkpt>
      <trkpt lat="49.66613" lon="-1.73555">
        <ele>103.96</ele>
        <time>2013-01-06T10:19:25Z</time>
      </trkpt>
      <trkpt lat="49.66652" lon="-1.73548">
        <ele>103.48</ele>
        <time>2013-01-06T10:19:38Z</time>
      </trkpt>
      <trkpt lat="49.66653" lon="-1.73546">
        <ele>103.48</ele>
        <time>2013-01-06T10:19:39Z</time>
      </trkpt>
      <trkpt lat="49.66654" lon="-1.73543">
        <ele>103</ele>
        <time>2013-01-06T10:19:41Z</time>
      </trkpt>
      <trkpt lat="49.66655" lon="-1.73543">
        <ele>103</ele>
        <time>2013-01-06T10:19:42Z</time>
      </trkpt>
      <trkpt lat="49.66656" lon="-1.73544">
        <ele>103</ele>
        <time>2013-01-06T10:19:43Z</time>
      </trkpt>
      <trkpt lat="49.66657" lon="-1.73545">
        <ele>103</ele>
        <time>2013-01-06T10:19:44Z</time>
      </trkpt>
      <trkpt lat="49.66656" lon="-1.73547">
        <ele>103</ele>
        <time>2013-01-06T10:19:45Z</time>
      </trkpt>
      <trkpt lat="49.6665" lon="-1.73553">
        <ele>103.96</ele>
        <time>2013-01-06T10:19:48Z</time>
      </trkpt>
      <trkpt lat="49.66617" lon="-1.73557">
        <ele>103.48</ele>
        <time>2013-01-06T10:20:00Z</time>
      </trkpt>
      <trkpt lat="49.66601" lon="-1.73556">
        <ele>103.96</ele>
        <time>2013-01-06T10:20:11Z</time>
      </trkpt>
      <trkpt lat="49.66598" lon="-1.73548">
        <ele>103.96</ele>
        <time>2013-01-06T10:20:21Z</time>
      </trkpt>
      <trkpt lat="49.66598" lon="-1.73547">
        <ele>103.48</ele>
        <time>2013-01-06T10:20:40Z</time>
      </trkpt>
      <trkpt lat="49.66598" lon="-1.73547">
        <ele>103.48</ele>
        <time>2013-01-06T10:20:56Z</time>
      </trkpt>
      <trkpt lat="49.66597" lon="-1.73548">
        <ele>103.96</ele>
        <time>2013-01-06T10:21:22Z</time>
      </trkpt>
      <trkpt lat="49.66598" lon="-1.73548">
        <ele>103.48</ele>
        <time>2013-01-06T10:21:38Z</time>
      </trkpt>
      <trkpt lat="49.66598" lon="-1.73548">
        <ele>103.96</ele>
        <time>2013-01-06T10:21:57Z</time>
      </trkpt>
      <trkpt lat="49.66598" lon="-1.73548">
        <ele>103.96</ele>
        <time>2013-01-06T10:22:19Z</time>
      </trkpt>
      <trkpt lat="49.66597" lon="-1.73548">
        <ele>103.96</ele>
        <time>2013-01-06T10:22:28Z</time>
      </trkpt>
      <trkpt lat="49.66597" lon="-1.73549">
        <ele>103.96</ele>
        <time>2013-01-06T10:22:41Z</time>
      </trkpt>
      <trkpt lat="49.66597" lon="-1.73549">
        <ele>103.96</ele>
        <time>2013-01-06T10:23:08Z</time>
      </trkpt>
      <trkpt lat="49.66598" lon="-1.7355">
        <ele>103.96</ele>
        <time>2013-01-06T10:23:26Z</time>
      </trkpt>
      <trkpt lat="49.66598" lon="-1.7355">
        <ele>103.96</ele>
        <time>2013-01-06T10:23:52Z</time>
      </trkpt>
      <trkpt lat="49.66598" lon="-1.7355">
        <ele>104.44</ele>
        <time>2013-01-06T10:24:20Z</time>
      </trkpt>
      <trkpt lat="49.66598" lon="-1.7355">
        <ele>104.44</ele>
        <time>2013-01-06T10:24:47Z</time>
      </trkpt>
      <trkpt lat="49.66599" lon="-1.73549">
        <ele>103.96</ele>
        <time>2013-01-06T10:25:13Z</time>
      </trkpt>
      <trkpt lat="49.66599" lon="-1.73546">
        <ele>104.44</ele>
        <time>2013-01-06T10:25:17Z</time>
      </trkpt>
      <trkpt lat="49.66601" lon="-1.73547">
        <ele>104.44</ele>
        <time>2013-01-06T10:25:19Z</time>
      </trkpt>
      <trkpt lat="49.66629" lon="-1.73557">
        <ele>104.44</ele>
        <time>2013-01-06T10:25:31Z</time>
      </trkpt>
      <trkpt lat="49.66668" lon="-1.7357">
        <ele>103</ele>
        <time>2013-01-06T10:25:44Z</time>
      </trkpt>
      <trkpt lat="49.66693" lon="-1.73637">
        <ele>100.6</ele>
        <time>2013-01-06T10:25:54Z</time>
      </trkpt>
      <trkpt lat="49.66696" lon="-1.73643">
        <ele>101.08</ele>
        <time>2013-01-06T10:25:55Z</time>
      </trkpt>
      <trkpt lat="49.66716" lon="-1.73687">
        <ele>100.11</ele>
        <time>2013-01-06T10:26:03Z</time>
      </trkpt>
      <trkpt lat="49.66719" lon="-1.73692">
        <ele>100.6</ele>
        <time>2013-01-06T10:26:04Z</time>
      </trkpt>
      <trkpt lat="49.66721" lon="-1.73698">
        <ele>100.11</ele>
        <time>2013-01-06T10:26:05Z</time>
      </trkpt>
      <trkpt lat="49.66739" lon="-1.73731">
        <ele>101.08</ele>
        <time>2013-01-06T10:26:12Z</time>
      </trkpt>
      <trkpt lat="49.66748" lon="-1.73746">
        <ele>100.11</ele>
        <time>2013-01-06T10:26:15Z</time>
      </trkpt>
      <trkpt lat="49.66755" lon="-1.73754">
        <ele>100.11</ele>
        <time>2013-01-06T10:26:17Z</time>
      </trkpt>
      <trkpt lat="49.66795" lon="-1.73787">
        <ele>99.15</ele>
        <time>2013-01-06T10:26:26Z</time>
      </trkpt>
      <trkpt lat="49.66799" lon="-1.73789">
        <ele>99.15</ele>
        <time>2013-01-06T10:26:27Z</time>
      </trkpt>
      <trkpt lat="49.66804" lon="-1.73791">
        <ele>99.15</ele>
        <time>2013-01-06T10:26:28Z</time>
      </trkpt>
      <trkpt lat="49.66809" lon="-1.73792">
        <ele>98.19</ele>
        <time>2013-01-06T10:26:29Z</time>
      </trkpt>
      <trkpt lat="49.66814" lon="-1.73791">
        <ele>98.19</ele>
        <time>2013-01-06T10:26:30Z</time>
      </trkpt>
      <trkpt lat="49.66819" lon="-1.73792">
        <ele>98.67</ele>
        <time>2013-01-06T10:26:31Z</time>
      </trkpt>
      <trkpt lat="49.66824" lon="-1.73794">
        <ele>98.19</ele>
        <time>2013-01-06T10:26:32Z</time>
      </trkpt>
      <trkpt lat="49.66829" lon="-1.73797">
        <ele>97.71</ele>
        <time>2013-01-06T10:26:33Z</time>
      </trkpt>
      <trkpt lat="49.66834" lon="-1.73801">
        <ele>97.23</ele>
        <time>2013-01-06T10:26:34Z</time>
      </trkpt>
      <trkpt lat="49.66839" lon="-1.73805">
        <ele>97.71</ele>
        <time>2013-01-06T10:26:35Z</time>
      </trkpt>
      <trkpt lat="49.66843" lon="-1.73809">
        <ele>96.27</ele>
        <time>2013-01-06T10:26:36Z</time>
      </trkpt>
      <trkpt lat="49.66853" lon="-1.73818">
        <ele>95.79</ele>
        <time>2013-01-06T10:26:38Z</time>
      </trkpt>
      <trkpt lat="49.66863" lon="-1.73826">
        <ele>94.35</ele>
        <time>2013-01-06T10:26:40Z</time>
      </trkpt>
      <trkpt lat="49.66891" lon="-1.73849">
        <ele>93.39</ele>
        <time>2013-01-06T10:26:46Z</time>
      </trkpt>
      <trkpt lat="49.66936" lon="-1.73893">
        <ele>92.9</ele>
        <time>2013-01-06T10:26:58Z</time>
      </trkpt>
      <trkpt lat="49.66948" lon="-1.73905">
        <ele>93.39</ele>
        <time>2013-01-06T10:27:02Z</time>
      </trkpt>
      <trkpt lat="49.6695" lon="-1.7391">
        <ele>93.39</ele>
        <time>2013-01-06T10:27:03Z</time>
      </trkpt>
      <trkpt lat="49.6695" lon="-1.73915">
        <ele>92.9</ele>
        <time>2013-01-06T10:27:04Z</time>
      </trkpt>
      <trkpt lat="49.66948" lon="-1.73943">
        <ele>92.9</ele>
        <time>2013-01-06T10:27:14Z</time>
      </trkpt>
      <trkpt lat="49.66948" lon="-1.73943">
        <ele>92.42</ele>
        <time>2013-01-06T10:27:30Z</time>
      </trkpt>
      <trkpt lat="49.66948" lon="-1.73944">
        <ele>91.94</ele>
        <time>2013-01-06T10:27:49Z</time>
      </trkpt>
      <trkpt lat="49.66948" lon="-1.73946">
        <ele>92.9</ele>
        <time>2013-01-06T10:28:05Z</time>
      </trkpt>
      <trkpt lat="49.66949" lon="-1.73948">
        <ele>92.42</ele>
        <time>2013-01-06T10:28:06Z</time>
      </trkpt>
      <trkpt lat="49.66949" lon="-1.73952">
        <ele>92.9</ele>
        <time>2013-01-06T10:28:07Z</time>
      </trkpt>
      <trkpt lat="49.66949" lon="-1.73956">
        <ele>92.42</ele>
        <time>2013-01-06T10:28:08Z</time>
      </trkpt>
      <trkpt lat="49.6695" lon="-1.7396">
        <ele>92.9</ele>
        <time>2013-01-06T10:28:09Z</time>
      </trkpt>
      <trkpt lat="49.66951" lon="-1.7398">
        <ele>92.9</ele>
        <time>2013-01-06T10:28:12Z</time>
      </trkpt>
      <trkpt lat="49.66954" lon="-1.7401">
        <ele>90.98</ele>
        <time>2013-01-06T10:28:16Z</time>
      </trkpt>
      <trkpt lat="49.66957" lon="-1.74019">
        <ele>90.98</ele>
        <time>2013-01-06T10:28:17Z</time>
      </trkpt>
      <trkpt lat="49.6696" lon="-1.74027">
        <ele>90.98</ele>
        <time>2013-01-06T10:28:18Z</time>
      </trkpt>
      <trkpt lat="49.66964" lon="-1.74033">
        <ele>90.02</ele>
        <time>2013-01-06T10:28:19Z</time>
      </trkpt>
      <trkpt lat="49.66968" lon="-1.74037">
        <ele>89.54</ele>
        <time>2013-01-06T10:28:20Z</time>
      </trkpt>
      <trkpt lat="49.66972" lon="-1.74041">
        <ele>90.02</ele>
        <time>2013-01-06T10:28:21Z</time>
      </trkpt>
      <trkpt lat="49.66976" lon="-1.74044">
        <ele>89.54</ele>
        <time>2013-01-06T10:28:22Z</time>
      </trkpt>
      <trkpt lat="49.67002" lon="-1.7407">
        <ele>89.54</ele>
        <time>2013-01-06T10:28:28Z</time>
      </trkpt>
      <trkpt lat="49.67006" lon="-1.74074">
        <ele>89.06</ele>
        <time>2013-01-06T10:28:29Z</time>
      </trkpt>
      <trkpt lat="49.6701" lon="-1.74078">
        <ele>89.06</ele>
        <time>2013-01-06T10:28:30Z</time>
      </trkpt>
      <trkpt lat="49.67026" lon="-1.74087">
        <ele>89.06</ele>
        <time>2013-01-06T10:28:33Z</time>
      </trkpt>
      <trkpt lat="49.67032" lon="-1.7409">
        <ele>89.06</ele>
        <time>2013-01-06T10:28:34Z</time>
      </trkpt>
      <trkpt lat="49.67037" lon="-1.74093">
        <ele>88.58</ele>
        <time>2013-01-06T10:28:35Z</time>
      </trkpt>
      <trkpt lat="49.67042" lon="-1.74098">
        <ele>88.1</ele>
        <time>2013-01-06T10:28:36Z</time>
      </trkpt>
      <trkpt lat="49.67045" lon="-1.74102">
        <ele>86.66</ele>
        <time>2013-01-06T10:28:37Z</time>
      </trkpt>
      <trkpt lat="49.6705" lon="-1.74107">
        <ele>86.18</ele>
        <time>2013-01-06T10:28:39Z</time>
      </trkpt>
      <trkpt lat="49.67051" lon="-1.74112">
        <ele>85.21</ele>
        <time>2013-01-06T10:28:40Z</time>
      </trkpt>
      <trkpt lat="49.67051" lon="-1.74116">
        <ele>84.73</ele>
        <time>2013-01-06T10:28:41Z</time>
      </trkpt>
      <trkpt lat="49.67052" lon="-1.74147">
        <ele>82.81</ele>
        <time>2013-01-06T10:28:51Z</time>
      </trkpt>
      <trkpt lat="49.67053" lon="-1.74161">
        <ele>81.37</ele>
        <time>2013-01-06T10:28:56Z</time>
      </trkpt>
      <trkpt lat="49.67056" lon="-1.74197">
        <ele>78.48</ele>
        <time>2013-01-06T10:29:03Z</time>
      </trkpt>
      <trkpt lat="49.67056" lon="-1.74204">
        <ele>78</ele>
        <time>2013-01-06T10:29:04Z</time>
      </trkpt>
      <trkpt lat="49.67057" lon="-1.74219">
        <ele>76.08</ele>
        <time>2013-01-06T10:29:06Z</time>
      </trkpt>
      <trkpt lat="49.67057" lon="-1.74226">
        <ele>75.6</ele>
        <time>2013-01-06T10:29:07Z</time>
      </trkpt>
      <trkpt lat="49.67059" lon="-1.74247">
        <ele>73.2</ele>
        <time>2013-01-06T10:29:12Z</time>
      </trkpt>
      <trkpt lat="49.67058" lon="-1.74248">
        <ele>72.72</ele>
        <time>2013-01-06T10:29:15Z</time>
      </trkpt>
      <trkpt lat="49.67059" lon="-1.74251">
        <ele>72.24</ele>
        <time>2013-01-06T10:29:16Z</time>
      </trkpt>
      <trkpt lat="49.6706" lon="-1.74253">
        <ele>72.24</ele>
        <time>2013-01-06T10:29:17Z</time>
      </trkpt>
      <trkpt lat="49.67061" lon="-1.74264">
        <ele>70.31</ele>
        <time>2013-01-06T10:29:27Z</time>
      </trkpt>
      <trkpt lat="49.67061" lon="-1.7427">
        <ele>70.31</ele>
        <time>2013-01-06T10:29:47Z</time>
      </trkpt>
      <trkpt lat="49.67061" lon="-1.7427">
        <ele>70.31</ele>
        <time>2013-01-06T10:29:48Z</time>
      </trkpt>
      <trkpt lat="49.6706" lon="-1.74273">
        <ele>70.31</ele>
        <time>2013-01-06T10:29:49Z</time>
      </trkpt>
      <trkpt lat="49.67058" lon="-1.74278">
        <ele>69.83</ele>
        <time>2013-01-06T10:29:50Z</time>
      </trkpt>
      <trkpt lat="49.67056" lon="-1.74283">
        <ele>69.35</ele>
        <time>2013-01-06T10:29:51Z</time>
      </trkpt>
      <trkpt lat="49.67053" lon="-1.74289">
        <ele>68.87</ele>
        <time>2013-01-06T10:29:52Z</time>
      </trkpt>
      <trkpt lat="49.6705" lon="-1.74294">
        <ele>67.91</ele>
        <time>2013-01-06T10:29:53Z</time>
      </trkpt>
      <trkpt lat="49.67045" lon="-1.74306">
        <ele>66.47</ele>
        <time>2013-01-06T10:29:55Z</time>
      </trkpt>
      <trkpt lat="49.67042" lon="-1.74313">
        <ele>65.99</ele>
        <time>2013-01-06T10:29:56Z</time>
      </trkpt>
      <trkpt lat="49.6704" lon="-1.7432">
        <ele>65.51</ele>
        <time>2013-01-06T10:29:57Z</time>
      </trkpt>
      <trkpt lat="49.67039" lon="-1.74327">
        <ele>64.07</ele>
        <time>2013-01-06T10:29:58Z</time>
      </trkpt>
      <trkpt lat="49.67038" lon="-1.74334">
        <ele>64.07</ele>
        <time>2013-01-06T10:29:59Z</time>
      </trkpt>
      <trkpt lat="49.67038" lon="-1.74339">
        <ele>63.58</ele>
        <time>2013-01-06T10:30:00Z</time>
      </trkpt>
      <trkpt lat="49.67039" lon="-1.74342">
        <ele>62.62</ele>
        <time>2013-01-06T10:30:01Z</time>
      </trkpt>
      <trkpt lat="49.67042" lon="-1.74345">
        <ele>62.14</ele>
        <time>2013-01-06T10:30:02Z</time>
      </trkpt>
      <trkpt lat="49.67045" lon="-1.74345">
        <ele>62.62</ele>
        <time>2013-01-06T10:30:03Z</time>
      </trkpt>
      <trkpt lat="49.6705" lon="-1.74345">
        <ele>62.14</ele>
        <time>2013-01-06T10:30:04Z</time>
      </trkpt>
      <trkpt lat="49.67055" lon="-1.74346">
        <ele>62.14</ele>
        <time>2013-01-06T10:30:05Z</time>
      </trkpt>
      <trkpt lat="49.67061" lon="-1.74348">
        <ele>61.66</ele>
        <time>2013-01-06T10:30:06Z</time>
      </trkpt>
      <trkpt lat="49.67104" lon="-1.74368">
        <ele>59.26</ele>
        <time>2013-01-06T10:30:13Z</time>
      </trkpt>
      <trkpt lat="49.6711" lon="-1.7437">
        <ele>57.82</ele>
        <time>2013-01-06T10:30:14Z</time>
      </trkpt>
      <trkpt lat="49.67115" lon="-1.74371">
        <ele>56.86</ele>
        <time>2013-01-06T10:30:15Z</time>
      </trkpt>
      <trkpt lat="49.67118" lon="-1.74372">
        <ele>56.37</ele>
        <time>2013-01-06T10:30:16Z</time>
      </trkpt>
      <trkpt lat="49.67123" lon="-1.74374">
        <ele>55.89</ele>
        <time>2013-01-06T10:30:18Z</time>
      </trkpt>
      <trkpt lat="49.67124" lon="-1.74375">
        <ele>54.93</ele>
        <time>2013-01-06T10:30:19Z</time>
      </trkpt>
      <trkpt lat="49.67125" lon="-1.74376">
        <ele>55.41</ele>
        <time>2013-01-06T10:30:20Z</time>
      </trkpt>
      <trkpt lat="49.67125" lon="-1.74387">
        <ele>51.57</ele>
        <time>2013-01-06T10:30:23Z</time>
      </trkpt>
      <trkpt lat="49.67127" lon="-1.74396">
        <ele>48.2</ele>
        <time>2013-01-06T10:30:25Z</time>
      </trkpt>
      <trkpt lat="49.67132" lon="-1.74409">
        <ele>44.84</ele>
        <time>2013-01-06T10:30:30Z</time>
      </trkpt>
      <trkpt lat="49.67135" lon="-1.7441">
        <ele>44.36</ele>
        <time>2013-01-06T10:30:31Z</time>
      </trkpt>
      <trkpt lat="49.67142" lon="-1.74411">
        <ele>42.92</ele>
        <time>2013-01-06T10:30:33Z</time>
      </trkpt>
      <trkpt lat="49.67157" lon="-1.74414">
        <ele>39.07</ele>
        <time>2013-01-06T10:30:37Z</time>
      </trkpt>
      <trkpt lat="49.67162" lon="-1.74416">
        <ele>38.59</ele>
        <time>2013-01-06T10:30:38Z</time>
      </trkpt>
      <trkpt lat="49.67171" lon="-1.74421">
        <ele>36.19</ele>
        <time>2013-01-06T10:30:40Z</time>
      </trkpt>
      <trkpt lat="49.67182" lon="-1.74426">
        <ele>34.26</ele>
        <time>2013-01-06T10:30:42Z</time>
      </trkpt>
      <trkpt lat="49.67188" lon="-1.74427">
        <ele>34.26</ele>
        <time>2013-01-06T10:30:43Z</time>
      </trkpt>
      <trkpt lat="49.67195" lon="-1.74426">
        <ele>33.3</ele>
        <time>2013-01-06T10:30:44Z</time>
      </trkpt>
      <trkpt lat="49.67202" lon="-1.74426">
        <ele>32.82</ele>
        <time>2013-01-06T10:30:45Z</time>
      </trkpt>
      <trkpt lat="49.67208" lon="-1.74424">
        <ele>32.34</ele>
        <time>2013-01-06T10:30:46Z</time>
      </trkpt>
      <trkpt lat="49.67215" lon="-1.74422">
        <ele>31.38</ele>
        <time>2013-01-06T10:30:47Z</time>
      </trkpt>
      <trkpt lat="49.6722" lon="-1.74419">
        <ele>30.9</ele>
        <time>2013-01-06T10:30:48Z</time>
      </trkpt>
      <trkpt lat="49.6723" lon="-1.74415">
        <ele>28.98</ele>
        <time>2013-01-06T10:30:50Z</time>
      </trkpt>
      <trkpt lat="49.67236" lon="-1.74414">
        <ele>28.5</ele>
        <time>2013-01-06T10:30:51Z</time>
      </trkpt>
      <trkpt lat="49.67264" lon="-1.74409">
        <ele>24.65</ele>
        <time>2013-01-06T10:30:55Z</time>
      </trkpt>
      <trkpt lat="49.67273" lon="-1.74404">
        <ele>24.17</ele>
        <time>2013-01-06T10:30:56Z</time>
      </trkpt>
      <trkpt lat="49.67304" lon="-1.74381">
        <ele>22.25</ele>
        <time>2013-01-06T10:31:00Z</time>
      </trkpt>
      <trkpt lat="49.67311" lon="-1.74379">
        <ele>22.25</ele>
        <time>2013-01-06T10:31:01Z</time>
      </trkpt>
      <trkpt lat="49.67393" lon="-1.74357">
        <ele>18.88</ele>
        <time>2013-01-06T10:31:13Z</time>
      </trkpt>
      <trkpt lat="49.67405" lon="-1.74353">
        <ele>17.92</ele>
        <time>2013-01-06T10:31:17Z</time>
      </trkpt>
      <trkpt lat="49.67407" lon="-1.74354">
        <ele>17.92</ele>
        <time>2013-01-06T10:31:18Z</time>
      </trkpt>
      <trkpt lat="49.67407" lon="-1.74354">
        <ele>17.44</ele>
        <time>2013-01-06T10:31:26Z</time>
      </trkpt>
      <trkpt lat="49.67409" lon="-1.74356">
        <ele>17.44</ele>
        <time>2013-01-06T10:31:41Z</time>
      </trkpt>
      <trkpt lat="49.67411" lon="-1.74357">
        <ele>16.96</ele>
        <time>2013-01-06T10:32:11Z</time>
      </trkpt>
      <trkpt lat="49.67411" lon="-1.74359">
        <ele>16.96</ele>
        <time>2013-01-06T10:32:43Z</time>
      </trkpt>
      <trkpt lat="49.6741" lon="-1.74357">
        <ele>16.96</ele>
        <time>2013-01-06T10:33:07Z</time>
      </trkpt>
      <trkpt lat="49.67412" lon="-1.74357">
        <ele>16.96</ele>
        <time>2013-01-06T10:33:35Z</time>
      </trkpt>
      <trkpt lat="49.67411" lon="-1.74358">
        <ele>17.44</ele>
        <time>2013-01-06T10:34:03Z</time>
      </trkpt>
      <trkpt lat="49.67411" lon="-1.74355">
        <ele>17.44</ele>
        <time>2013-01-06T10:34:34Z</time>
      </trkpt>
      <trkpt lat="49.67411" lon="-1.74357">
        <ele>16.96</ele>
        <time>2013-01-06T10:35:09Z</time>
      </trkpt>
      <trkpt lat="49.67411" lon="-1.74359">
        <ele>16.96</ele>
        <time>2013-01-06T10:35:46Z</time>
      </trkpt>
      <trkpt lat="49.67412" lon="-1.7436">
        <ele>17.44</ele>
        <time>2013-01-06T10:36:13Z</time>
      </trkpt>
      <trkpt lat="49.6741" lon="-1.74359">
        <ele>17.44</ele>
        <time>2013-01-06T10:36:28Z</time>
      </trkpt>
      <trkpt lat="49.6741" lon="-1.74358">
        <ele>17.44</ele>
        <time>2013-01-06T10:36:57Z</time>
      </trkpt>
      <trkpt lat="49.67411" lon="-1.74359">
        <ele>17.44</ele>
        <time>2013-01-06T10:37:31Z</time>
      </trkpt>
      <trkpt lat="49.67411" lon="-1.74359">
        <ele>17.44</ele>
        <time>2013-01-06T10:37:57Z</time>
      </trkpt>
      <trkpt lat="49.67411" lon="-1.74357">
        <ele>17.44</ele>
        <time>2013-01-06T10:38:14Z</time>
      </trkpt>
      <trkpt lat="49.6741" lon="-1.74355">
        <ele>17.92</ele>
        <time>2013-01-06T10:38:15Z</time>
      </trkpt>
      <trkpt lat="49.67409" lon="-1.74353">
        <ele>17.92</ele>
        <time>2013-01-06T10:38:16Z</time>
      </trkpt>
      <trkpt lat="49.67409" lon="-1.74351">
        <ele>18.4</ele>
        <time>2013-01-06T10:38:17Z</time>
      </trkpt>
      <trkpt lat="49.67409" lon="-1.74348">
        <ele>17.92</ele>
        <time>2013-01-06T10:38:18Z</time>
      </trkpt>
      <trkpt lat="49.6741" lon="-1.74342">
        <ele>17.92</ele>
        <time>2013-01-06T10:38:20Z</time>
      </trkpt>
      <trkpt lat="49.67409" lon="-1.7434">
        <ele>17.92</ele>
        <time>2013-01-06T10:38:21Z</time>
      </trkpt>
      <trkpt lat="49.67409" lon="-1.74337">
        <ele>17.92</ele>
        <time>2013-01-06T10:38:22Z</time>
      </trkpt>
      <trkpt lat="49.67406" lon="-1.74299">
        <ele>18.4</ele>
        <time>2013-01-06T10:38:29Z</time>
      </trkpt>
      <trkpt lat="49.67397" lon="-1.74252">
        <ele>18.4</ele>
        <time>2013-01-06T10:38:36Z</time>
      </trkpt>
      <trkpt lat="49.6739" lon="-1.74212">
        <ele>18.4</ele>
        <time>2013-01-06T10:38:42Z</time>
      </trkpt>
      <trkpt lat="49.67387" lon="-1.74198">
        <ele>18.88</ele>
        <time>2013-01-06T10:38:44Z</time>
      </trkpt>
      <trkpt lat="49.6737" lon="-1.74149">
        <ele>18.88</ele>
        <time>2013-01-06T10:38:55Z</time>
      </trkpt>
      <trkpt lat="49.67367" lon="-1.74145">
        <ele>18.88</ele>
        <time>2013-01-06T10:38:57Z</time>
      </trkpt>
      <trkpt lat="49.67367" lon="-1.74142">
        <ele>18.88</ele>
        <time>2013-01-06T10:38:58Z</time>
      </trkpt>
      <trkpt lat="49.67366" lon="-1.74139">
        <ele>18.88</ele>
        <time>2013-01-06T10:38:59Z</time>
      </trkpt>
      <trkpt lat="49.67365" lon="-1.74137">
        <ele>18.88</ele>
        <time>2013-01-06T10:39:00Z</time>
      </trkpt>
      <trkpt lat="49.67363" lon="-1.74134">
        <ele>18.88</ele>
        <time>2013-01-06T10:39:01Z</time>
      </trkpt>
      <trkpt lat="49.67361" lon="-1.74132">
        <ele>19.36</ele>
        <time>2013-01-06T10:39:02Z</time>
      </trkpt>
      <trkpt lat="49.67358" lon="-1.74132">
        <ele>19.36</ele>
        <time>2013-01-06T10:39:03Z</time>
      </trkpt>
      <trkpt lat="49.67356" lon="-1.74131">
        <ele>19.36</ele>
        <time>2013-01-06T10:39:04Z</time>
      </trkpt>
      <trkpt lat="49.67354" lon="-1.7413">
        <ele>19.84</ele>
        <time>2013-01-06T10:39:05Z</time>
      </trkpt>
      <trkpt lat="49.67354" lon="-1.74127">
        <ele>20.32</ele>
        <time>2013-01-06T10:39:07Z</time>
      </trkpt>
      <trkpt lat="49.67354" lon="-1.74125">
        <ele>20.32</ele>
        <time>2013-01-06T10:39:08Z</time>
      </trkpt>
      <trkpt lat="49.67354" lon="-1.74122">
        <ele>20.32</ele>
        <time>2013-01-06T10:39:09Z</time>
      </trkpt>
      <trkpt lat="49.67352" lon="-1.74114">
        <ele>20.81</ele>
        <time>2013-01-06T10:39:15Z</time>
      </trkpt>
      <trkpt lat="49.6735" lon="-1.74113">
        <ele>20.81</ele>
        <time>2013-01-06T10:39:16Z</time>
      </trkpt>
      <trkpt lat="49.67349" lon="-1.74111">
        <ele>20.81</ele>
        <time>2013-01-06T10:39:17Z</time>
      </trkpt>
      <trkpt lat="49.67347" lon="-1.74111">
        <ele>21.29</ele>
        <time>2013-01-06T10:39:18Z</time>
      </trkpt>
      <trkpt lat="49.67346" lon="-1.74111">
        <ele>20.81</ele>
        <time>2013-01-06T10:39:19Z</time>
      </trkpt>
      <trkpt lat="49.67345" lon="-1.74112">
        <ele>20.81</ele>
        <time>2013-01-06T10:39:20Z</time>
      </trkpt>
      <trkpt lat="49.67342" lon="-1.74113">
        <ele>21.29</ele>
        <time>2013-01-06T10:39:22Z</time>
      </trkpt>
      <trkpt lat="49.67342" lon="-1.74111">
        <ele>20.81</ele>
        <time>2013-01-06T10:39:23Z</time>
      </trkpt>
      <trkpt lat="49.67343" lon="-1.74109">
        <ele>20.32</ele>
        <time>2013-01-06T10:39:24Z</time>
      </trkpt>
      <trkpt lat="49.67345" lon="-1.74108">
        <ele>21.29</ele>
        <time>2013-01-06T10:39:25Z</time>
      </trkpt>
      <trkpt lat="49.67347" lon="-1.74108">
        <ele>20.81</ele>
        <time>2013-01-06T10:39:26Z</time>
      </trkpt>
      <trkpt lat="49.67349" lon="-1.74109">
        <ele>20.81</ele>
        <time>2013-01-06T10:39:27Z</time>
      </trkpt>
      <trkpt lat="49.6735" lon="-1.7411">
        <ele>20.81</ele>
        <time>2013-01-06T10:39:28Z</time>
      </trkpt>
      <trkpt lat="49.67351" lon="-1.7411">
        <ele>20.81</ele>
        <time>2013-01-06T10:39:29Z</time>
      </trkpt>
      <trkpt lat="49.67352" lon="-1.7411">
        <ele>20.81</ele>
        <time>2013-01-06T10:39:30Z</time>
      </trkpt>
      <trkpt lat="49.67365" lon="-1.74103">
        <ele>18.88</ele>
        <time>2013-01-06T10:39:36Z</time>
      </trkpt>
      <trkpt lat="49.67366" lon="-1.74099">
        <ele>18.88</ele>
        <time>2013-01-06T10:39:37Z</time>
      </trkpt>
      <trkpt lat="49.67366" lon="-1.74093">
        <ele>18.88</ele>
        <time>2013-01-06T10:39:38Z</time>
      </trkpt>
      <trkpt lat="49.67365" lon="-1.74086">
        <ele>18.88</ele>
        <time>2013-01-06T10:39:39Z</time>
      </trkpt>
      <trkpt lat="49.67364" lon="-1.74081">
        <ele>18.4</ele>
        <time>2013-01-06T10:39:40Z</time>
      </trkpt>
      <trkpt lat="49.67349" lon="-1.74026">
        <ele>19.36</ele>
        <time>2013-01-06T10:39:50Z</time>
      </trkpt>
      <trkpt lat="49.67318" lon="-1.73897">
        <ele>20.32</ele>
        <time>2013-01-06T10:40:06Z</time>
      </trkpt>
      <trkpt lat="49.67312" lon="-1.73874">
        <ele>20.32</ele>
        <time>2013-01-06T10:40:09Z</time>
      </trkpt>
      <trkpt lat="49.67307" lon="-1.73861">
        <ele>20.81</ele>
        <time>2013-01-06T10:40:11Z</time>
      </trkpt>
      <trkpt lat="49.67305" lon="-1.73855">
        <ele>20.32</ele>
        <time>2013-01-06T10:40:12Z</time>
      </trkpt>
      <trkpt lat="49.67279" lon="-1.7377">
        <ele>22.73</ele>
        <time>2013-01-06T10:40:23Z</time>
      </trkpt>
      <trkpt lat="49.67249" lon="-1.73687">
        <ele>24.17</ele>
        <time>2013-01-06T10:40:37Z</time>
      </trkpt>
      <trkpt lat="49.67232" lon="-1.73637">
        <ele>25.13</ele>
        <time>2013-01-06T10:40:46Z</time>
      </trkpt>
      <trkpt lat="49.67226" lon="-1.73616">
        <ele>25.61</ele>
        <time>2013-01-06T10:40:49Z</time>
      </trkpt>
      <trkpt lat="49.67196" lon="-1.73533">
        <ele>27.05</ele>
        <time>2013-01-06T10:41:03Z</time>
      </trkpt>
      <trkpt lat="49.67178" lon="-1.73486">
        <ele>27.53</ele>
        <time>2013-01-06T10:41:12Z</time>
      </trkpt>
      <trkpt lat="49.67179" lon="-1.73481">
        <ele>27.53</ele>
        <time>2013-01-06T10:41:13Z</time>
      </trkpt>
      <trkpt lat="49.67183" lon="-1.73476">
        <ele>27.05</ele>
        <time>2013-01-06T10:41:14Z</time>
      </trkpt>
      <trkpt lat="49.67187" lon="-1.73472">
        <ele>26.57</ele>
        <time>2013-01-06T10:41:15Z</time>
      </trkpt>
      <trkpt lat="49.67192" lon="-1.73468">
        <ele>26.09</ele>
        <time>2013-01-06T10:41:16Z</time>
      </trkpt>
      <trkpt lat="49.67197" lon="-1.73465">
        <ele>25.61</ele>
        <time>2013-01-06T10:41:17Z</time>
      </trkpt>
      <trkpt lat="49.67203" lon="-1.73461">
        <ele>25.13</ele>
        <time>2013-01-06T10:41:18Z</time>
      </trkpt>
      <trkpt lat="49.67228" lon="-1.73462">
        <ele>21.29</ele>
        <time>2013-01-06T10:41:26Z</time>
      </trkpt>
      <trkpt lat="49.67231" lon="-1.73461">
        <ele>21.29</ele>
        <time>2013-01-06T10:41:27Z</time>
      </trkpt>
      <trkpt lat="49.67235" lon="-1.7346">
        <ele>21.29</ele>
        <time>2013-01-06T10:41:28Z</time>
      </trkpt>
      <trkpt lat="49.67238" lon="-1.7346">
        <ele>20.81</ele>
        <time>2013-01-06T10:41:29Z</time>
      </trkpt>
      <trkpt lat="49.67241" lon="-1.73461">
        <ele>20.81</ele>
        <time>2013-01-06T10:41:30Z</time>
      </trkpt>
      <trkpt lat="49.67243" lon="-1.73462">
        <ele>19.84</ele>
        <time>2013-01-06T10:41:31Z</time>
      </trkpt>
      <trkpt lat="49.67244" lon="-1.73463">
        <ele>19.36</ele>
        <time>2013-01-06T10:41:32Z</time>
      </trkpt>
      <trkpt lat="49.67245" lon="-1.73464">
        <ele>19.36</ele>
        <time>2013-01-06T10:41:33Z</time>
      </trkpt>
      <trkpt lat="49.67247" lon="-1.73463">
        <ele>19.36</ele>
        <time>2013-01-06T10:41:36Z</time>
      </trkpt>
      <trkpt lat="49.67264" lon="-1.73455">
        <ele>16</ele>
        <time>2013-01-06T10:41:45Z</time>
      </trkpt>
      <trkpt lat="49.67265" lon="-1.73454">
        <ele>15.52</ele>
        <time>2013-01-06T10:41:46Z</time>
      </trkpt>
      <trkpt lat="49.67265" lon="-1.73452">
        <ele>15.52</ele>
        <time>2013-01-06T10:41:47Z</time>
      </trkpt>
      <trkpt lat="49.67264" lon="-1.73449">
        <ele>15.52</ele>
        <time>2013-01-06T10:41:50Z</time>
      </trkpt>
      <trkpt lat="49.67262" lon="-1.73441">
        <ele>15.04</ele>
        <time>2013-01-06T10:41:55Z</time>
      </trkpt>
      <trkpt lat="49.67263" lon="-1.7344">
        <ele>15.52</ele>
        <time>2013-01-06T10:41:56Z</time>
      </trkpt>
      <trkpt lat="49.67272" lon="-1.73429">
        <ele>15.52</ele>
        <time>2013-01-06T10:42:01Z</time>
      </trkpt>
      <trkpt lat="49.67273" lon="-1.73426">
        <ele>16</ele>
        <time>2013-01-06T10:42:02Z</time>
      </trkpt>
      <trkpt lat="49.67274" lon="-1.73424">
        <ele>15.52</ele>
        <time>2013-01-06T10:42:03Z</time>
      </trkpt>
      <trkpt lat="49.67277" lon="-1.73421">
        <ele>15.52</ele>
        <time>2013-01-06T10:42:04Z</time>
      </trkpt>
      <trkpt lat="49.67279" lon="-1.7342">
        <ele>15.04</ele>
        <time>2013-01-06T10:42:05Z</time>
      </trkpt>
      <trkpt lat="49.67299" lon="-1.7341">
        <ele>14.08</ele>
        <time>2013-01-06T10:42:17Z</time>
      </trkpt>
      <trkpt lat="49.67306" lon="-1.73405">
        <ele>13.12</ele>
        <time>2013-01-06T10:42:19Z</time>
      </trkpt>
      <trkpt lat="49.67315" lon="-1.73399">
        <ele>12.63</ele>
        <time>2013-01-06T10:42:21Z</time>
      </trkpt>
      <trkpt lat="49.67318" lon="-1.73396">
        <ele>12.15</ele>
        <time>2013-01-06T10:42:22Z</time>
      </trkpt>
      <trkpt lat="49.6732" lon="-1.73394">
        <ele>12.63</ele>
        <time>2013-01-06T10:42:23Z</time>
      </trkpt>
      <trkpt lat="49.67331" lon="-1.73389">
        <ele>11.67</ele>
        <time>2013-01-06T10:42:36Z</time>
      </trkpt>
      <trkpt lat="49.67334" lon="-1.73385">
        <ele>11.67</ele>
        <time>2013-01-06T10:42:42Z</time>
      </trkpt>
      <trkpt lat="49.67333" lon="-1.73383">
        <ele>11.67</ele>
        <time>2013-01-06T10:42:43Z</time>
      </trkpt>
      <trkpt lat="49.67329" lon="-1.7335">
        <ele>11.19</ele>
        <time>2013-01-06T10:42:51Z</time>
      </trkpt>
      <trkpt lat="49.67321" lon="-1.73288">
        <ele>12.15</ele>
        <time>2013-01-06T10:43:02Z</time>
      </trkpt>
      <trkpt lat="49.67314" lon="-1.73234">
        <ele>12.15</ele>
        <time>2013-01-06T10:43:13Z</time>
      </trkpt>
      <trkpt lat="49.67306" lon="-1.7319">
        <ele>12.15</ele>
        <time>2013-01-06T10:43:25Z</time>
      </trkpt>
      <trkpt lat="49.67307" lon="-1.73173">
        <ele>12.63</ele>
        <time>2013-01-06T10:43:40Z</time>
      </trkpt>
      <trkpt lat="49.67307" lon="-1.73172">
        <ele>12.63</ele>
        <time>2013-01-06T10:43:41Z</time>
      </trkpt>
      <trkpt lat="49.67307" lon="-1.7317">
        <ele>12.63</ele>
        <time>2013-01-06T10:43:42Z</time>
      </trkpt>
      <trkpt lat="49.67307" lon="-1.73168">
        <ele>12.15</ele>
        <time>2013-01-06T10:43:43Z</time>
      </trkpt>
      <trkpt lat="49.67306" lon="-1.73167">
        <ele>12.63</ele>
        <time>2013-01-06T10:43:44Z</time>
      </trkpt>
      <trkpt lat="49.67304" lon="-1.7317">
        <ele>12.63</ele>
        <time>2013-01-06T10:43:46Z</time>
      </trkpt>
      <trkpt lat="49.67304" lon="-1.73173">
        <ele>13.12</ele>
        <time>2013-01-06T10:43:47Z</time>
      </trkpt>
      <trkpt lat="49.67304" lon="-1.73176">
        <ele>13.6</ele>
        <time>2013-01-06T10:43:48Z</time>
      </trkpt>
      <trkpt lat="49.67303" lon="-1.73182">
        <ele>13.6</ele>
        <time>2013-01-06T10:43:51Z</time>
      </trkpt>
      <trkpt lat="49.673" lon="-1.73192">
        <ele>14.08</ele>
        <time>2013-01-06T10:43:57Z</time>
      </trkpt>
      <trkpt lat="49.67299" lon="-1.73193">
        <ele>13.6</ele>
        <time>2013-01-06T10:43:58Z</time>
      </trkpt>
      <trkpt lat="49.673" lon="-1.73195">
        <ele>13.6</ele>
        <time>2013-01-06T10:43:59Z</time>
      </trkpt>
      <trkpt lat="49.673" lon="-1.73196">
        <ele>14.08</ele>
        <time>2013-01-06T10:44:00Z</time>
      </trkpt>
      <trkpt lat="49.67299" lon="-1.73198">
        <ele>13.6</ele>
        <time>2013-01-06T10:44:01Z</time>
      </trkpt>
      <trkpt lat="49.67297" lon="-1.732">
        <ele>14.56</ele>
        <time>2013-01-06T10:44:02Z</time>
      </trkpt>
      <trkpt lat="49.67291" lon="-1.73203">
        <ele>15.04</ele>
        <time>2013-01-06T10:44:04Z</time>
      </trkpt>
      <trkpt lat="49.67275" lon="-1.73214">
        <ele>13.6</ele>
        <time>2013-01-06T10:44:11Z</time>
      </trkpt>
      <trkpt lat="49.67268" lon="-1.73204">
        <ele>14.08</ele>
        <time>2013-01-06T10:44:18Z</time>
      </trkpt>
      <trkpt lat="49.6728" lon="-1.73162">
        <ele>12.63</ele>
        <time>2013-01-06T10:44:31Z</time>
      </trkpt>
      <trkpt lat="49.67306" lon="-1.73125">
        <ele>12.15</ele>
        <time>2013-01-06T10:44:41Z</time>
      </trkpt>
      <trkpt lat="49.6732" lon="-1.73101">
        <ele>11.67</ele>
        <time>2013-01-06T10:44:46Z</time>
      </trkpt>
      <trkpt lat="49.67321" lon="-1.73095">
        <ele>11.67</ele>
        <time>2013-01-06T10:44:47Z</time>
      </trkpt>
      <trkpt lat="49.6732" lon="-1.73088">
        <ele>11.67</ele>
        <time>2013-01-06T10:44:48Z</time>
      </trkpt>
      <trkpt lat="49.6732" lon="-1.7308">
        <ele>11.67</ele>
        <time>2013-01-06T10:44:49Z</time>
      </trkpt>
      <trkpt lat="49.6732" lon="-1.73072">
        <ele>12.15</ele>
        <time>2013-01-06T10:44:50Z</time>
      </trkpt>
      <trkpt lat="49.67312" lon="-1.72945">
        <ele>11.19</ele>
        <time>2013-01-06T10:45:05Z</time>
      </trkpt>
      <trkpt lat="49.6731" lon="-1.72925">
        <ele>10.71</ele>
        <time>2013-01-06T10:45:09Z</time>
      </trkpt>
      <trkpt lat="49.67311" lon="-1.72922">
        <ele>11.19</ele>
        <time>2013-01-06T10:45:10Z</time>
      </trkpt>
      <trkpt lat="49.67314" lon="-1.72919">
        <ele>11.19</ele>
        <time>2013-01-06T10:45:11Z</time>
      </trkpt>
      <trkpt lat="49.67317" lon="-1.72917">
        <ele>10.71</ele>
        <time>2013-01-06T10:45:12Z</time>
      </trkpt>
      <trkpt lat="49.67322" lon="-1.72917">
        <ele>11.19</ele>
        <time>2013-01-06T10:45:13Z</time>
      </trkpt>
      <trkpt lat="49.67327" lon="-1.72917">
        <ele>10.71</ele>
        <time>2013-01-06T10:45:14Z</time>
      </trkpt>
      <trkpt lat="49.67389" lon="-1.72906">
        <ele>8.79</ele>
        <time>2013-01-06T10:45:27Z</time>
      </trkpt>
      <trkpt lat="49.67398" lon="-1.72904">
        <ele>8.79</ele>
        <time>2013-01-06T10:45:29Z</time>
      </trkpt>
      <trkpt lat="49.67461" lon="-1.72886">
        <ele>7.83</ele>
        <time>2013-01-06T10:45:41Z</time>
      </trkpt>
      <trkpt lat="49.67531" lon="-1.72877">
        <ele>7.35</ele>
        <time>2013-01-06T10:45:56Z</time>
      </trkpt>
      <trkpt lat="49.67535" lon="-1.72878">
        <ele>7.35</ele>
        <time>2013-01-06T10:45:57Z</time>
      </trkpt>
      <trkpt lat="49.67554" lon="-1.72879">
        <ele>7.35</ele>
        <time>2013-01-06T10:46:02Z</time>
      </trkpt>
      <trkpt lat="49.67559" lon="-1.7288">
        <ele>7.35</ele>
        <time>2013-01-06T10:46:03Z</time>
      </trkpt>
      <trkpt lat="49.6762" lon="-1.72903">
        <ele>6.87</ele>
        <time>2013-01-06T10:46:16Z</time>
      </trkpt>
      <trkpt lat="49.67639" lon="-1.72912">
        <ele>6.87</ele>
        <time>2013-01-06T10:46:20Z</time>
      </trkpt>
      <trkpt lat="49.67653" lon="-1.72916">
        <ele>6.87</ele>
        <time>2013-01-06T10:46:23Z</time>
      </trkpt>
      <trkpt lat="49.67658" lon="-1.72916">
        <ele>6.87</ele>
        <time>2013-01-06T10:46:24Z</time>
      </trkpt>
      <trkpt lat="49.67663" lon="-1.72915">
        <ele>6.87</ele>
        <time>2013-01-06T10:46:25Z</time>
      </trkpt>
      <trkpt lat="49.67668" lon="-1.72914">
        <ele>6.39</ele>
        <time>2013-01-06T10:46:26Z</time>
      </trkpt>
      <trkpt lat="49.67673" lon="-1.72912">
        <ele>6.39</ele>
        <time>2013-01-06T10:46:27Z</time>
      </trkpt>
      <trkpt lat="49.67709" lon="-1.72887">
        <ele>7.83</ele>
        <time>2013-01-06T10:46:39Z</time>
      </trkpt>
      <trkpt lat="49.67714" lon="-1.72881">
        <ele>7.83</ele>
        <time>2013-01-06T10:46:43Z</time>
      </trkpt>
      <trkpt lat="49.67715" lon="-1.72879">
        <ele>8.31</ele>
        <time>2013-01-06T10:46:44Z</time>
      </trkpt>
      <trkpt lat="49.67716" lon="-1.72876">
        <ele>8.31</ele>
        <time>2013-01-06T10:46:45Z</time>
      </trkpt>
      <trkpt lat="49.67719" lon="-1.7286">
        <ele>8.79</ele>
        <time>2013-01-06T10:46:52Z</time>
      </trkpt>
      <trkpt lat="49.6772" lon="-1.72859">
        <ele>8.79</ele>
        <time>2013-01-06T10:46:53Z</time>
      </trkpt>
      <trkpt lat="49.67721" lon="-1.72857">
        <ele>8.31</ele>
        <time>2013-01-06T10:46:54Z</time>
      </trkpt>
      <trkpt lat="49.67722" lon="-1.72855">
        <ele>8.31</ele>
        <time>2013-01-06T10:46:55Z</time>
      </trkpt>
      <trkpt lat="49.67724" lon="-1.72851">
        <ele>8.31</ele>
        <time>2013-01-06T10:46:56Z</time>
      </trkpt>
      <trkpt lat="49.67726" lon="-1.72847">
        <ele>7.83</ele>
        <time>2013-01-06T10:46:57Z</time>
      </trkpt>
      <trkpt lat="49.67727" lon="-1.72842">
        <ele>7.83</ele>
        <time>2013-01-06T10:46:58Z</time>
      </trkpt>
      <trkpt lat="49.67727" lon="-1.72837">
        <ele>7.83</ele>
        <time>2013-01-06T10:46:59Z</time>
      </trkpt>
      <trkpt lat="49.67728" lon="-1.72833">
        <ele>7.83</ele>
        <time>2013-01-06T10:47:00Z</time>
      </trkpt>
      <trkpt lat="49.67728" lon="-1.7283">
        <ele>7.83</ele>
        <time>2013-01-06T10:47:01Z</time>
      </trkpt>
      <trkpt lat="49.67729" lon="-1.72827">
        <ele>7.83</ele>
        <time>2013-01-06T10:47:02Z</time>
      </trkpt>
      <trkpt lat="49.67736" lon="-1.72775">
        <ele>7.83</ele>
        <time>2013-01-06T10:47:18Z</time>
      </trkpt>
      <trkpt lat="49.67742" lon="-1.72741">
        <ele>7.83</ele>
        <time>2013-01-06T10:47:30Z</time>
      </trkpt>
      <trkpt lat="49.67744" lon="-1.72728">
        <ele>8.31</ele>
        <time>2013-01-06T10:47:32Z</time>
      </trkpt>
      <trkpt lat="49.67758" lon="-1.72637">
        <ele>7.83</ele>
        <time>2013-01-06T10:47:46Z</time>
      </trkpt>
      <trkpt lat="49.67773" lon="-1.72537">
        <ele>7.83</ele>
        <time>2013-01-06T10:48:02Z</time>
      </trkpt>
      <trkpt lat="49.67787" lon="-1.72456">
        <ele>8.79</ele>
        <time>2013-01-06T10:48:17Z</time>
      </trkpt>
      <trkpt lat="49.67801" lon="-1.72395">
        <ele>8.31</ele>
        <time>2013-01-06T10:48:25Z</time>
      </trkpt>
      <trkpt lat="49.67802" lon="-1.72389">
        <ele>8.31</ele>
        <time>2013-01-06T10:48:26Z</time>
      </trkpt>
      <trkpt lat="49.67823" lon="-1.72319">
        <ele>7.83</ele>
        <time>2013-01-06T10:48:37Z</time>
      </trkpt>
      <trkpt lat="49.67851" lon="-1.72218">
        <ele>8.31</ele>
        <time>2013-01-06T10:48:53Z</time>
      </trkpt>
      <trkpt lat="49.67865" lon="-1.72165">
        <ele>7.83</ele>
        <time>2013-01-06T10:49:01Z</time>
      </trkpt>
      <trkpt lat="49.67915" lon="-1.72065">
        <ele>8.31</ele>
        <time>2013-01-06T10:49:18Z</time>
      </trkpt>
      <trkpt lat="49.67933" lon="-1.72029">
        <ele>7.83</ele>
        <time>2013-01-06T10:49:24Z</time>
      </trkpt>
      <trkpt lat="49.67937" lon="-1.72024">
        <ele>7.83</ele>
        <time>2013-01-06T10:49:25Z</time>
      </trkpt>
      <trkpt lat="49.67941" lon="-1.72021">
        <ele>7.83</ele>
        <time>2013-01-06T10:49:26Z</time>
      </trkpt>
      <trkpt lat="49.67945" lon="-1.72019">
        <ele>7.83</ele>
        <time>2013-01-06T10:49:27Z</time>
      </trkpt>
      <trkpt lat="49.6795" lon="-1.72017">
        <ele>7.83</ele>
        <time>2013-01-06T10:49:28Z</time>
      </trkpt>
      <trkpt lat="49.67954" lon="-1.72016">
        <ele>7.83</ele>
        <time>2013-01-06T10:49:29Z</time>
      </trkpt>
      <trkpt lat="49.67962" lon="-1.72017">
        <ele>7.83</ele>
        <time>2013-01-06T10:49:32Z</time>
      </trkpt>
      <trkpt lat="49.67965" lon="-1.72015">
        <ele>8.79</ele>
        <time>2013-01-06T10:49:33Z</time>
      </trkpt>
      <trkpt lat="49.67966" lon="-1.72012">
        <ele>8.79</ele>
        <time>2013-01-06T10:49:34Z</time>
      </trkpt>
      <trkpt lat="49.67966" lon="-1.72008">
        <ele>9.27</ele>
        <time>2013-01-06T10:49:35Z</time>
      </trkpt>
      <trkpt lat="49.67967" lon="-1.72004">
        <ele>9.27</ele>
        <time>2013-01-06T10:49:36Z</time>
      </trkpt>
      <trkpt lat="49.67971" lon="-1.7195">
        <ele>9.27</ele>
        <time>2013-01-06T10:49:48Z</time>
      </trkpt>
      <trkpt lat="49.6797" lon="-1.71936">
        <ele>9.75</ele>
        <time>2013-01-06T10:49:51Z</time>
      </trkpt>
      <trkpt lat="49.67969" lon="-1.71933">
        <ele>9.75</ele>
        <time>2013-01-06T10:49:52Z</time>
      </trkpt>
      <trkpt lat="49.6796" lon="-1.71926">
        <ele>8.31</ele>
        <time>2013-01-06T10:49:56Z</time>
      </trkpt>
      <trkpt lat="49.67957" lon="-1.71908">
        <ele>7.83</ele>
        <time>2013-01-06T10:50:00Z</time>
      </trkpt>
      <trkpt lat="49.67957" lon="-1.71901">
        <ele>7.83</ele>
        <time>2013-01-06T10:50:01Z</time>
      </trkpt>
      <trkpt lat="49.67958" lon="-1.71894">
        <ele>7.35</ele>
        <time>2013-01-06T10:50:02Z</time>
      </trkpt>
      <trkpt lat="49.67964" lon="-1.71841">
        <ele>7.83</ele>
        <time>2013-01-06T10:50:09Z</time>
      </trkpt>
      <trkpt lat="49.67965" lon="-1.71817">
        <ele>8.31</ele>
        <time>2013-01-06T10:50:12Z</time>
      </trkpt>
      <trkpt lat="49.67964" lon="-1.71801">
        <ele>7.83</ele>
        <time>2013-01-06T10:50:14Z</time>
      </trkpt>
      <trkpt lat="49.67963" lon="-1.71793">
        <ele>7.83</ele>
        <time>2013-01-06T10:50:15Z</time>
      </trkpt>
      <trkpt lat="49.67946" lon="-1.71709">
        <ele>7.83</ele>
        <time>2013-01-06T10:50:26Z</time>
      </trkpt>
      <trkpt lat="49.67943" lon="-1.71703">
        <ele>7.83</ele>
        <time>2013-01-06T10:50:27Z</time>
      </trkpt>
      <trkpt lat="49.6794" lon="-1.71697">
        <ele>8.31</ele>
        <time>2013-01-06T10:50:28Z</time>
      </trkpt>
      <trkpt lat="49.67936" lon="-1.71691">
        <ele>7.83</ele>
        <time>2013-01-06T10:50:29Z</time>
      </trkpt>
      <trkpt lat="49.67932" lon="-1.71686">
        <ele>8.31</ele>
        <time>2013-01-06T10:50:30Z</time>
      </trkpt>
      <trkpt lat="49.67911" lon="-1.71649">
        <ele>7.35</ele>
        <time>2013-01-06T10:50:38Z</time>
      </trkpt>
      <trkpt lat="49.67909" lon="-1.71647">
        <ele>8.31</ele>
        <time>2013-01-06T10:50:39Z</time>
      </trkpt>
      <trkpt lat="49.67906" lon="-1.71647">
        <ele>7.83</ele>
        <time>2013-01-06T10:50:40Z</time>
      </trkpt>
      <trkpt lat="49.6788" lon="-1.71651">
        <ele>5.91</ele>
        <time>2013-01-06T10:50:47Z</time>
      </trkpt>
      <trkpt lat="49.67878" lon="-1.71645">
        <ele>5.91</ele>
        <time>2013-01-06T10:50:52Z</time>
      </trkpt>
      <trkpt lat="49.67875" lon="-1.71623">
        <ele>6.39</ele>
        <time>2013-01-06T10:50:57Z</time>
      </trkpt>
      <trkpt lat="49.67873" lon="-1.71616">
        <ele>5.91</ele>
        <time>2013-01-06T10:50:58Z</time>
      </trkpt>
      <trkpt lat="49.6786" lon="-1.71556">
        <ele>6.39</ele>
        <time>2013-01-06T10:51:08Z</time>
      </trkpt>
      <trkpt lat="49.67854" lon="-1.71521">
        <ele>6.39</ele>
        <time>2013-01-06T10:51:17Z</time>
      </trkpt>
      <trkpt lat="49.67848" lon="-1.71504">
        <ele>6.87</ele>
        <time>2013-01-06T10:51:24Z</time>
      </trkpt>
      <trkpt lat="49.67846" lon="-1.71504">
        <ele>6.87</ele>
        <time>2013-01-06T10:51:25Z</time>
      </trkpt>
      <trkpt lat="49.67843" lon="-1.71505">
        <ele>6.87</ele>
        <time>2013-01-06T10:51:26Z</time>
      </trkpt>
      <trkpt lat="49.6784" lon="-1.71506">
        <ele>6.39</ele>
        <time>2013-01-06T10:51:27Z</time>
      </trkpt>
      <trkpt lat="49.67837" lon="-1.71507">
        <ele>6.39</ele>
        <time>2013-01-06T10:51:28Z</time>
      </trkpt>
      <trkpt lat="49.67826" lon="-1.71507">
        <ele>6.87</ele>
        <time>2013-01-06T10:51:32Z</time>
      </trkpt>
      <trkpt lat="49.67824" lon="-1.71503">
        <ele>6.87</ele>
        <time>2013-01-06T10:51:33Z</time>
      </trkpt>
      <trkpt lat="49.67822" lon="-1.71498">
        <ele>6.87</ele>
        <time>2013-01-06T10:51:34Z</time>
      </trkpt>
      <trkpt lat="49.6781" lon="-1.71436">
        <ele>6.87</ele>
        <time>2013-01-06T10:51:45Z</time>
      </trkpt>
      <trkpt lat="49.67806" lon="-1.71416">
        <ele>6.87</ele>
        <time>2013-01-06T10:51:49Z</time>
      </trkpt>
      <trkpt lat="49.67803" lon="-1.71414">
        <ele>7.35</ele>
        <time>2013-01-06T10:51:50Z</time>
      </trkpt>
      <trkpt lat="49.678" lon="-1.71413">
        <ele>7.83</ele>
        <time>2013-01-06T10:51:51Z</time>
      </trkpt>
      <trkpt lat="49.67797" lon="-1.71414">
        <ele>7.83</ele>
        <time>2013-01-06T10:51:52Z</time>
      </trkpt>
      <trkpt lat="49.67793" lon="-1.71416">
        <ele>7.83</ele>
        <time>2013-01-06T10:51:53Z</time>
      </trkpt>
      <trkpt lat="49.67789" lon="-1.71418">
        <ele>7.83</ele>
        <time>2013-01-06T10:51:54Z</time>
      </trkpt>
      <trkpt lat="49.67759" lon="-1.71436">
        <ele>7.35</ele>
        <time>2013-01-06T10:52:03Z</time>
      </trkpt>
      <trkpt lat="49.67758" lon="-1.71441">
        <ele>7.83</ele>
        <time>2013-01-06T10:52:04Z</time>
      </trkpt>
      <trkpt lat="49.67756" lon="-1.71447">
        <ele>7.35</ele>
        <time>2013-01-06T10:52:05Z</time>
      </trkpt>
      <trkpt lat="49.67754" lon="-1.71452">
        <ele>7.83</ele>
        <time>2013-01-06T10:52:06Z</time>
      </trkpt>
      <trkpt lat="49.67751" lon="-1.71456">
        <ele>8.31</ele>
        <time>2013-01-06T10:52:07Z</time>
      </trkpt>
      <trkpt lat="49.67747" lon="-1.71458">
        <ele>7.83</ele>
        <time>2013-01-06T10:52:08Z</time>
      </trkpt>
      <trkpt lat="49.67743" lon="-1.7146">
        <ele>7.35</ele>
        <time>2013-01-06T10:52:09Z</time>
      </trkpt>
      <trkpt lat="49.6774" lon="-1.71462">
        <ele>7.83</ele>
        <time>2013-01-06T10:52:10Z</time>
      </trkpt>
      <trkpt lat="49.67713" lon="-1.71472">
        <ele>7.35</ele>
        <time>2013-01-06T10:52:19Z</time>
      </trkpt>
      <trkpt lat="49.6771" lon="-1.71471">
        <ele>7.83</ele>
        <time>2013-01-06T10:52:20Z</time>
      </trkpt>
      <trkpt lat="49.67708" lon="-1.71468">
        <ele>6.87</ele>
        <time>2013-01-06T10:52:21Z</time>
      </trkpt>
      <trkpt lat="49.67706" lon="-1.71465">
        <ele>6.87</ele>
        <time>2013-01-06T10:52:22Z</time>
      </trkpt>
      <trkpt lat="49.67705" lon="-1.71461">
        <ele>6.87</ele>
        <time>2013-01-06T10:52:23Z</time>
      </trkpt>
      <trkpt lat="49.67704" lon="-1.71457">
        <ele>6.87</ele>
        <time>2013-01-06T10:52:24Z</time>
      </trkpt>
      <trkpt lat="49.67697" lon="-1.71425">
        <ele>6.87</ele>
        <time>2013-01-06T10:52:36Z</time>
      </trkpt>
      <trkpt lat="49.67697" lon="-1.71423">
        <ele>6.87</ele>
        <time>2013-01-06T10:52:37Z</time>
      </trkpt>
      <trkpt lat="49.67697" lon="-1.7142">
        <ele>7.35</ele>
        <time>2013-01-06T10:52:38Z</time>
      </trkpt>
      <trkpt lat="49.67696" lon="-1.71415">
        <ele>7.35</ele>
        <time>2013-01-06T10:52:39Z</time>
      </trkpt>
      <trkpt lat="49.67694" lon="-1.71411">
        <ele>7.35</ele>
        <time>2013-01-06T10:52:40Z</time>
      </trkpt>
      <trkpt lat="49.67692" lon="-1.71405">
        <ele>7.83</ele>
        <time>2013-01-06T10:52:41Z</time>
      </trkpt>
      <trkpt lat="49.6769" lon="-1.71398">
        <ele>7.83</ele>
        <time>2013-01-06T10:52:42Z</time>
      </trkpt>
      <trkpt lat="49.67685" lon="-1.71378">
        <ele>7.83</ele>
        <time>2013-01-06T10:52:45Z</time>
      </trkpt>
      <trkpt lat="49.67682" lon="-1.71371">
        <ele>7.83</ele>
        <time>2013-01-06T10:52:46Z</time>
      </trkpt>
      <trkpt lat="49.67681" lon="-1.71364">
        <ele>8.31</ele>
        <time>2013-01-06T10:52:47Z</time>
      </trkpt>
      <trkpt lat="49.67655" lon="-1.71261">
        <ele>7.35</ele>
        <time>2013-01-06T10:53:03Z</time>
      </trkpt>
      <trkpt lat="49.6764" lon="-1.71196">
        <ele>8.31</ele>
        <time>2013-01-06T10:53:17Z</time>
      </trkpt>
      <trkpt lat="49.67633" lon="-1.71186">
        <ele>8.79</ele>
        <time>2013-01-06T10:53:21Z</time>
      </trkpt>
      <trkpt lat="49.67629" lon="-1.71187">
        <ele>8.79</ele>
        <time>2013-01-06T10:53:22Z</time>
      </trkpt>
      <trkpt lat="49.67626" lon="-1.71189">
        <ele>8.79</ele>
        <time>2013-01-06T10:53:23Z</time>
      </trkpt>
      <trkpt lat="49.67621" lon="-1.71191">
        <ele>8.31</ele>
        <time>2013-01-06T10:53:24Z</time>
      </trkpt>
      <trkpt lat="49.67617" lon="-1.71192">
        <ele>8.31</ele>
        <time>2013-01-06T10:53:25Z</time>
      </trkpt>
      <trkpt lat="49.67612" lon="-1.71193">
        <ele>8.31</ele>
        <time>2013-01-06T10:53:26Z</time>
      </trkpt>
      <trkpt lat="49.67608" lon="-1.71192">
        <ele>8.31</ele>
        <time>2013-01-06T10:53:27Z</time>
      </trkpt>
      <trkpt lat="49.67603" lon="-1.71191">
        <ele>8.31</ele>
        <time>2013-01-06T10:53:28Z</time>
      </trkpt>
      <trkpt lat="49.67534" lon="-1.7115">
        <ele>7.83</ele>
        <time>2013-01-06T10:53:44Z</time>
      </trkpt>
      <trkpt lat="49.67499" lon="-1.7112">
        <ele>8.79</ele>
        <time>2013-01-06T10:53:54Z</time>
      </trkpt>
      <trkpt lat="49.67459" lon="-1.71083">
        <ele>8.79</ele>
        <time>2013-01-06T10:54:08Z</time>
      </trkpt>
      <trkpt lat="49.67432" lon="-1.71049">
        <ele>9.27</ele>
        <time>2013-01-06T10:54:22Z</time>
      </trkpt>
      <trkpt lat="49.67391" lon="-1.70986">
        <ele>9.27</ele>
        <time>2013-01-06T10:54:36Z</time>
      </trkpt>
      <trkpt lat="49.67381" lon="-1.70977">
        <ele>9.27</ele>
        <time>2013-01-06T10:54:39Z</time>
      </trkpt>
      <trkpt lat="49.67377" lon="-1.70974">
        <ele>8.79</ele>
        <time>2013-01-06T10:54:40Z</time>
      </trkpt>
      <trkpt lat="49.67373" lon="-1.70971">
        <ele>8.79</ele>
        <time>2013-01-06T10:54:41Z</time>
      </trkpt>
      <trkpt lat="49.67327" lon="-1.70954">
        <ele>8.79</ele>
        <time>2013-01-06T10:54:54Z</time>
      </trkpt>
      <trkpt lat="49.67278" lon="-1.70916">
        <ele>8.31</ele>
        <time>2013-01-06T10:55:09Z</time>
      </trkpt>
      <trkpt lat="49.67257" lon="-1.70894">
        <ele>8.31</ele>
        <time>2013-01-06T10:55:16Z</time>
      </trkpt>
      <trkpt lat="49.6724" lon="-1.70853">
        <ele>8.79</ele>
        <time>2013-01-06T10:55:24Z</time>
      </trkpt>
      <trkpt lat="49.67227" lon="-1.70819">
        <ele>9.27</ele>
        <time>2013-01-06T10:55:30Z</time>
      </trkpt>
      <trkpt lat="49.67223" lon="-1.70814">
        <ele>8.79</ele>
        <time>2013-01-06T10:55:31Z</time>
      </trkpt>
      <trkpt lat="49.6722" lon="-1.70808">
        <ele>8.79</ele>
        <time>2013-01-06T10:55:32Z</time>
      </trkpt>
      <trkpt lat="49.67185" lon="-1.70758">
        <ele>9.27</ele>
        <time>2013-01-06T10:55:44Z</time>
      </trkpt>
      <trkpt lat="49.67164" lon="-1.70731">
        <ele>9.27</ele>
        <time>2013-01-06T10:55:52Z</time>
      </trkpt>
      <trkpt lat="49.67163" lon="-1.70724">
        <ele>8.79</ele>
        <time>2013-01-06T10:55:53Z</time>
      </trkpt>
      <trkpt lat="49.67163" lon="-1.70718">
        <ele>9.27</ele>
        <time>2013-01-06T10:55:54Z</time>
      </trkpt>
      <trkpt lat="49.67162" lon="-1.70713">
        <ele>9.75</ele>
        <time>2013-01-06T10:55:55Z</time>
      </trkpt>
      <trkpt lat="49.67161" lon="-1.70709">
        <ele>9.27</ele>
        <time>2013-01-06T10:55:56Z</time>
      </trkpt>
      <trkpt lat="49.6716" lon="-1.70704">
        <ele>9.27</ele>
        <time>2013-01-06T10:55:57Z</time>
      </trkpt>
      <trkpt lat="49.67158" lon="-1.70698">
        <ele>8.79</ele>
        <time>2013-01-06T10:55:58Z</time>
      </trkpt>
      <trkpt lat="49.67144" lon="-1.70663">
        <ele>8.79</ele>
        <time>2013-01-06T10:56:04Z</time>
      </trkpt>
      <trkpt lat="49.67137" lon="-1.70643">
        <ele>8.31</ele>
        <time>2013-01-06T10:56:07Z</time>
      </trkpt>
      <trkpt lat="49.67135" lon="-1.70635">
        <ele>7.83</ele>
        <time>2013-01-06T10:56:08Z</time>
      </trkpt>
      <trkpt lat="49.67129" lon="-1.70609">
        <ele>8.79</ele>
        <time>2013-01-06T10:56:12Z</time>
      </trkpt>
      <trkpt lat="49.67128" lon="-1.70603">
        <ele>8.31</ele>
        <time>2013-01-06T10:56:13Z</time>
      </trkpt>
      <trkpt lat="49.67102" lon="-1.7052">
        <ele>9.27</ele>
        <time>2013-01-06T10:56:28Z</time>
      </trkpt>
      <trkpt lat="49.67076" lon="-1.70455">
        <ele>8.31</ele>
        <time>2013-01-06T10:56:41Z</time>
      </trkpt>
      <trkpt lat="49.67074" lon="-1.7045">
        <ele>8.31</ele>
        <time>2013-01-06T10:56:42Z</time>
      </trkpt>
      <trkpt lat="49.67048" lon="-1.70341">
        <ele>8.31</ele>
        <time>2013-01-06T10:56:59Z</time>
      </trkpt>
      <trkpt lat="49.67043" lon="-1.70324">
        <ele>8.79</ele>
        <time>2013-01-06T10:57:02Z</time>
      </trkpt>
      <trkpt lat="49.67031" lon="-1.7028">
        <ele>8.31</ele>
        <time>2013-01-06T10:57:09Z</time>
      </trkpt>
      <trkpt lat="49.67029" lon="-1.70274">
        <ele>8.31</ele>
        <time>2013-01-06T10:57:10Z</time>
      </trkpt>
      <trkpt lat="49.67027" lon="-1.70269">
        <ele>8.79</ele>
        <time>2013-01-06T10:57:11Z</time>
      </trkpt>
      <trkpt lat="49.67025" lon="-1.70263">
        <ele>8.79</ele>
        <time>2013-01-06T10:57:12Z</time>
      </trkpt>
      <trkpt lat="49.67024" lon="-1.70257">
        <ele>8.79</ele>
        <time>2013-01-06T10:57:13Z</time>
      </trkpt>
      <trkpt lat="49.67022" lon="-1.7025">
        <ele>8.79</ele>
        <time>2013-01-06T10:57:14Z</time>
      </trkpt>
      <trkpt lat="49.67006" lon="-1.7018">
        <ele>8.79</ele>
        <time>2013-01-06T10:57:25Z</time>
      </trkpt>
      <trkpt lat="49.66987" lon="-1.70064">
        <ele>9.75</ele>
        <time>2013-01-06T10:57:42Z</time>
      </trkpt>
      <trkpt lat="49.66978" lon="-1.69979">
        <ele>9.75</ele>
        <time>2013-01-06T10:57:55Z</time>
      </trkpt>
      <trkpt lat="49.66978" lon="-1.69972">
        <ele>9.75</ele>
        <time>2013-01-06T10:57:56Z</time>
      </trkpt>
      <trkpt lat="49.66979" lon="-1.69965">
        <ele>9.75</ele>
        <time>2013-01-06T10:57:57Z</time>
      </trkpt>
      <trkpt lat="49.6698" lon="-1.69959">
        <ele>9.75</ele>
        <time>2013-01-06T10:57:58Z</time>
      </trkpt>
      <trkpt lat="49.66982" lon="-1.69954">
        <ele>9.75</ele>
        <time>2013-01-06T10:57:59Z</time>
      </trkpt>
      <trkpt lat="49.66982" lon="-1.69949">
        <ele>9.75</ele>
        <time>2013-01-06T10:58:00Z</time>
      </trkpt>
      <trkpt lat="49.66981" lon="-1.69942">
        <ele>10.23</ele>
        <time>2013-01-06T10:58:01Z</time>
      </trkpt>
      <trkpt lat="49.6698" lon="-1.69935">
        <ele>10.23</ele>
        <time>2013-01-06T10:58:02Z</time>
      </trkpt>
      <trkpt lat="49.66978" lon="-1.69928">
        <ele>9.75</ele>
        <time>2013-01-06T10:58:03Z</time>
      </trkpt>
      <trkpt lat="49.66975" lon="-1.69922">
        <ele>10.23</ele>
        <time>2013-01-06T10:58:04Z</time>
      </trkpt>
      <trkpt lat="49.66973" lon="-1.69915">
        <ele>10.71</ele>
        <time>2013-01-06T10:58:05Z</time>
      </trkpt>
      <trkpt lat="49.66972" lon="-1.69907">
        <ele>10.23</ele>
        <time>2013-01-06T10:58:06Z</time>
      </trkpt>
      <trkpt lat="49.66966" lon="-1.69875">
        <ele>10.23</ele>
        <time>2013-01-06T10:58:15Z</time>
      </trkpt>
      <trkpt lat="49.66966" lon="-1.69876">
        <ele>9.75</ele>
        <time>2013-01-06T10:58:32Z</time>
      </trkpt>
      <trkpt lat="49.66966" lon="-1.69876">
        <ele>9.75</ele>
        <time>2013-01-06T10:58:58Z</time>
      </trkpt>
      <trkpt lat="49.66966" lon="-1.69871">
        <ele>10.23</ele>
        <time>2013-01-06T10:59:17Z</time>
      </trkpt>
      <trkpt lat="49.66966" lon="-1.69869">
        <ele>9.75</ele>
        <time>2013-01-06T10:59:18Z</time>
      </trkpt>
      <trkpt lat="49.66968" lon="-1.69868">
        <ele>9.75</ele>
        <time>2013-01-06T10:59:19Z</time>
      </trkpt>
      <trkpt lat="49.66969" lon="-1.69869">
        <ele>9.75</ele>
        <time>2013-01-06T10:59:20Z</time>
      </trkpt>
      <trkpt lat="49.66971" lon="-1.69872">
        <ele>9.27</ele>
        <time>2013-01-06T10:59:21Z</time>
      </trkpt>
      <trkpt lat="49.66971" lon="-1.69874">
        <ele>9.75</ele>
        <time>2013-01-06T10:59:22Z</time>
      </trkpt>
      <trkpt lat="49.66971" lon="-1.69877">
        <ele>9.75</ele>
        <time>2013-01-06T10:59:23Z</time>
      </trkpt>
      <trkpt lat="49.66971" lon="-1.6988">
        <ele>9.75</ele>
        <time>2013-01-06T10:59:24Z</time>
      </trkpt>
      <trkpt lat="49.66971" lon="-1.69883">
        <ele>10.23</ele>
        <time>2013-01-06T10:59:25Z</time>
      </trkpt>
      <trkpt lat="49.66971" lon="-1.69888">
        <ele>9.75</ele>
        <time>2013-01-06T10:59:26Z</time>
      </trkpt>
      <trkpt lat="49.66971" lon="-1.69892">
        <ele>10.23</ele>
        <time>2013-01-06T10:59:27Z</time>
      </trkpt>
      <trkpt lat="49.66979" lon="-1.69944">
        <ele>9.75</ele>
        <time>2013-01-06T10:59:39Z</time>
      </trkpt>
      <trkpt lat="49.66981" lon="-1.69953">
        <ele>10.23</ele>
        <time>2013-01-06T10:59:41Z</time>
      </trkpt>
      <trkpt lat="49.66981" lon="-1.69957">
        <ele>10.23</ele>
        <time>2013-01-06T10:59:42Z</time>
      </trkpt>
      <trkpt lat="49.6698" lon="-1.6996">
        <ele>9.75</ele>
        <time>2013-01-06T10:59:43Z</time>
      </trkpt>
      <trkpt lat="49.66978" lon="-1.69967">
        <ele>10.23</ele>
        <time>2013-01-06T10:59:46Z</time>
      </trkpt>
      <trkpt lat="49.66981" lon="-1.69967">
        <ele>9.27</ele>
        <time>2013-01-06T10:59:55Z</time>
      </trkpt>
      <trkpt lat="49.66982" lon="-1.69967">
        <ele>9.75</ele>
        <time>2013-01-06T10:59:56Z</time>
      </trkpt>
      <trkpt lat="49.66983" lon="-1.69969">
        <ele>9.75</ele>
        <time>2013-01-06T10:59:59Z</time>
      </trkpt>
      <trkpt lat="49.66983" lon="-1.69971">
        <ele>9.75</ele>
        <time>2013-01-06T11:00:00Z</time>
      </trkpt>
      <trkpt lat="49.66983" lon="-1.69973">
        <ele>9.27</ele>
        <time>2013-01-06T11:00:01Z</time>
      </trkpt>
      <trkpt lat="49.66984" lon="-1.69989">
        <ele>9.75</ele>
        <time>2013-01-06T11:00:12Z</time>
      </trkpt>
      <trkpt lat="49.66984" lon="-1.69989">
        <ele>9.27</ele>
        <time>2013-01-06T11:00:13Z</time>
      </trkpt>
      <trkpt lat="49.66978" lon="-1.69985">
        <ele>9.27</ele>
        <time>2013-01-06T11:00:23Z</time>
      </trkpt>
      <trkpt lat="49.66978" lon="-1.69983">
        <ele>9.27</ele>
        <time>2013-01-06T11:00:33Z</time>
      </trkpt>
      <trkpt lat="49.66978" lon="-1.6998">
        <ele>9.27</ele>
        <time>2013-01-06T11:00:57Z</time>
      </trkpt>
      <trkpt lat="49.66978" lon="-1.69978">
        <ele>9.27</ele>
        <time>2013-01-06T11:01:00Z</time>
      </trkpt>
      <trkpt lat="49.66978" lon="-1.69976">
        <ele>9.27</ele>
        <time>2013-01-06T11:01:01Z</time>
      </trkpt>
      <trkpt lat="49.66979" lon="-1.69969">
        <ele>9.27</ele>
        <time>2013-01-06T11:01:08Z</time>
      </trkpt>
      <trkpt lat="49.66978" lon="-1.69971">
        <ele>9.27</ele>
        <time>2013-01-06T11:01:10Z</time>
      </trkpt>
      <trkpt lat="49.66976" lon="-1.69971">
        <ele>9.75</ele>
        <time>2013-01-06T11:01:11Z</time>
      </trkpt>
      <trkpt lat="49.66974" lon="-1.69969">
        <ele>9.75</ele>
        <time>2013-01-06T11:01:12Z</time>
      </trkpt>
      <trkpt lat="49.66971" lon="-1.69967">
        <ele>9.75</ele>
        <time>2013-01-06T11:01:13Z</time>
      </trkpt>
      <trkpt lat="49.66968" lon="-1.69965">
        <ele>10.23</ele>
        <time>2013-01-06T11:01:14Z</time>
      </trkpt>
      <trkpt lat="49.66965" lon="-1.69963">
        <ele>9.75</ele>
        <time>2013-01-06T11:01:15Z</time>
      </trkpt>
      <trkpt lat="49.66962" lon="-1.69961">
        <ele>9.75</ele>
        <time>2013-01-06T11:01:16Z</time>
      </trkpt>
      <trkpt lat="49.66959" lon="-1.6996">
        <ele>10.23</ele>
        <time>2013-01-06T11:01:17Z</time>
      </trkpt>
      <trkpt lat="49.66956" lon="-1.69961">
        <ele>10.23</ele>
        <time>2013-01-06T11:01:18Z</time>
      </trkpt>
      <trkpt lat="49.66953" lon="-1.69962">
        <ele>10.71</ele>
        <time>2013-01-06T11:01:19Z</time>
      </trkpt>
      <trkpt lat="49.6695" lon="-1.69963">
        <ele>10.71</ele>
        <time>2013-01-06T11:01:20Z</time>
      </trkpt>
      <trkpt lat="49.66949" lon="-1.69963">
        <ele>10.23</ele>
        <time>2013-01-06T11:01:21Z</time>
      </trkpt>
      <trkpt lat="49.66947" lon="-1.69962">
        <ele>9.75</ele>
        <time>2013-01-06T11:01:26Z</time>
      </trkpt>
      <trkpt lat="49.66947" lon="-1.6996">
        <ele>10.23</ele>
        <time>2013-01-06T11:01:40Z</time>
      </trkpt>
      <trkpt lat="49.66948" lon="-1.69962">
        <ele>9.75</ele>
        <time>2013-01-06T11:02:08Z</time>
      </trkpt>
      <trkpt lat="49.66947" lon="-1.69962">
        <ele>9.75</ele>
        <time>2013-01-06T11:02:30Z</time>
      </trkpt>
      <trkpt lat="49.66948" lon="-1.69962">
        <ele>9.75</ele>
        <time>2013-01-06T11:02:31Z</time>
      </trkpt>
      <trkpt lat="49.66974" lon="-1.69974">
        <ele>9.75</ele>
        <time>2013-01-06T11:02:44Z</time>
      </trkpt>
      <trkpt lat="49.66977" lon="-1.69981">
        <ele>9.75</ele>
        <time>2013-01-06T11:02:53Z</time>
      </trkpt>
      <trkpt lat="49.66978" lon="-1.69982">
        <ele>9.75</ele>
        <time>2013-01-06T11:02:54Z</time>
      </trkpt>
      <trkpt lat="49.66981" lon="-1.69988">
        <ele>9.75</ele>
        <time>2013-01-06T11:02:59Z</time>
      </trkpt>
      <trkpt lat="49.66985" lon="-1.69981">
        <ele>10.23</ele>
        <time>2013-01-06T11:03:04Z</time>
      </trkpt>
      <trkpt lat="49.66982" lon="-1.69963">
        <ele>10.23</ele>
        <time>2013-01-06T11:03:12Z</time>
      </trkpt>
      <trkpt lat="49.66974" lon="-1.69931">
        <ele>9.75</ele>
        <time>2013-01-06T11:03:22Z</time>
      </trkpt>
      <trkpt lat="49.66973" lon="-1.69927">
        <ele>10.23</ele>
        <time>2013-01-06T11:03:23Z</time>
      </trkpt>
      <trkpt lat="49.6697" lon="-1.69914">
        <ele>10.23</ele>
        <time>2013-01-06T11:03:28Z</time>
      </trkpt>
      <trkpt lat="49.66967" lon="-1.69873">
        <ele>10.23</ele>
        <time>2013-01-06T11:03:43Z</time>
      </trkpt>
      <trkpt lat="49.66962" lon="-1.69811">
        <ele>9.75</ele>
        <time>2013-01-06T11:04:01Z</time>
      </trkpt>
      <trkpt lat="49.6696" lon="-1.69737">
        <ele>9.75</ele>
        <time>2013-01-06T11:04:16Z</time>
      </trkpt>
      <trkpt lat="49.6696" lon="-1.69678">
        <ele>9.27</ele>
        <time>2013-01-06T11:04:30Z</time>
      </trkpt>
      <trkpt lat="49.66974" lon="-1.69641">
        <ele>10.23</ele>
        <time>2013-01-06T11:04:41Z</time>
      </trkpt>
      <trkpt lat="49.66996" lon="-1.69571">
        <ele>10.23</ele>
        <time>2013-01-06T11:04:55Z</time>
      </trkpt>
      <trkpt lat="49.67014" lon="-1.69481">
        <ele>10.23</ele>
        <time>2013-01-06T11:05:11Z</time>
      </trkpt>
      <trkpt lat="49.67046" lon="-1.69387">
        <ele>9.75</ele>
        <time>2013-01-06T11:05:26Z</time>
      </trkpt>
      <trkpt lat="49.67091" lon="-1.69278">
        <ele>9.75</ele>
        <time>2013-01-06T11:05:44Z</time>
      </trkpt>
      <trkpt lat="49.67096" lon="-1.69265">
        <ele>10.23</ele>
        <time>2013-01-06T11:05:46Z</time>
      </trkpt>
      <trkpt lat="49.67126" lon="-1.6918">
        <ele>9.75</ele>
        <time>2013-01-06T11:06:00Z</time>
      </trkpt>
      <trkpt lat="49.67155" lon="-1.6909">
        <ele>10.23</ele>
        <time>2013-01-06T11:06:14Z</time>
      </trkpt>
      <trkpt lat="49.6719" lon="-1.68974">
        <ele>9.75</ele>
        <time>2013-01-06T11:06:32Z</time>
      </trkpt>
      <trkpt lat="49.67206" lon="-1.68925">
        <ele>10.23</ele>
        <time>2013-01-06T11:06:39Z</time>
      </trkpt>
      <trkpt lat="49.67253" lon="-1.68822">
        <ele>9.75</ele>
        <time>2013-01-06T11:06:54Z</time>
      </trkpt>
      <trkpt lat="49.67279" lon="-1.68768">
        <ele>9.27</ele>
        <time>2013-01-06T11:07:02Z</time>
      </trkpt>
      <trkpt lat="49.67283" lon="-1.68763">
        <ele>9.75</ele>
        <time>2013-01-06T11:07:03Z</time>
      </trkpt>
      <trkpt lat="49.67288" lon="-1.68757">
        <ele>9.75</ele>
        <time>2013-01-06T11:07:04Z</time>
      </trkpt>
      <trkpt lat="49.67296" lon="-1.68746">
        <ele>8.79</ele>
        <time>2013-01-06T11:07:06Z</time>
      </trkpt>
      <trkpt lat="49.67299" lon="-1.68738">
        <ele>8.79</ele>
        <time>2013-01-06T11:07:07Z</time>
      </trkpt>
      <trkpt lat="49.67301" lon="-1.6873">
        <ele>8.79</ele>
        <time>2013-01-06T11:07:08Z</time>
      </trkpt>
      <trkpt lat="49.67301" lon="-1.68722">
        <ele>8.79</ele>
        <time>2013-01-06T11:07:09Z</time>
      </trkpt>
      <trkpt lat="49.673" lon="-1.68714">
        <ele>8.79</ele>
        <time>2013-01-06T11:07:10Z</time>
      </trkpt>
      <trkpt lat="49.67297" lon="-1.68708">
        <ele>8.79</ele>
        <time>2013-01-06T11:07:11Z</time>
      </trkpt>
      <trkpt lat="49.67294" lon="-1.68703">
        <ele>8.31</ele>
        <time>2013-01-06T11:07:12Z</time>
      </trkpt>
      <trkpt lat="49.67282" lon="-1.68687">
        <ele>8.31</ele>
        <time>2013-01-06T11:07:16Z</time>
      </trkpt>
      <trkpt lat="49.6724" lon="-1.68632">
        <ele>8.31</ele>
        <time>2013-01-06T11:07:30Z</time>
      </trkpt>
      <trkpt lat="49.67193" lon="-1.68577">
        <ele>8.79</ele>
        <time>2013-01-06T11:07:44Z</time>
      </trkpt>
      <trkpt lat="49.67145" lon="-1.6855">
        <ele>8.31</ele>
        <time>2013-01-06T11:07:57Z</time>
      </trkpt>
      <trkpt lat="49.67137" lon="-1.68547">
        <ele>8.79</ele>
        <time>2013-01-06T11:07:59Z</time>
      </trkpt>
      <trkpt lat="49.67133" lon="-1.68543">
        <ele>8.31</ele>
        <time>2013-01-06T11:08:00Z</time>
      </trkpt>
      <trkpt lat="49.6713" lon="-1.68538">
        <ele>9.27</ele>
        <time>2013-01-06T11:08:01Z</time>
      </trkpt>
      <trkpt lat="49.67127" lon="-1.68532">
        <ele>8.31</ele>
        <time>2013-01-06T11:08:02Z</time>
      </trkpt>
      <trkpt lat="49.67125" lon="-1.68525">
        <ele>8.79</ele>
        <time>2013-01-06T11:08:03Z</time>
      </trkpt>
      <trkpt lat="49.67124" lon="-1.68519">
        <ele>8.31</ele>
        <time>2013-01-06T11:08:04Z</time>
      </trkpt>
      <trkpt lat="49.67112" lon="-1.68438">
        <ele>8.31</ele>
        <time>2013-01-06T11:08:17Z</time>
      </trkpt>
      <trkpt lat="49.67101" lon="-1.68385">
        <ele>8.31</ele>
        <time>2013-01-06T11:08:25Z</time>
      </trkpt>
      <trkpt lat="49.67099" lon="-1.68379">
        <ele>8.79</ele>
        <time>2013-01-06T11:08:26Z</time>
      </trkpt>
      <trkpt lat="49.67083" lon="-1.68339">
        <ele>8.31</ele>
        <time>2013-01-06T11:08:33Z</time>
      </trkpt>
      <trkpt lat="49.6708" lon="-1.68334">
        <ele>8.79</ele>
        <time>2013-01-06T11:08:34Z</time>
      </trkpt>
      <trkpt lat="49.67029" lon="-1.68264">
        <ele>7.83</ele>
        <time>2013-01-06T11:08:48Z</time>
      </trkpt>
      <trkpt lat="49.67025" lon="-1.6826">
        <ele>8.31</ele>
        <time>2013-01-06T11:08:49Z</time>
      </trkpt>
      <trkpt lat="49.67021" lon="-1.68257">
        <ele>7.83</ele>
        <time>2013-01-06T11:08:50Z</time>
      </trkpt>
      <trkpt lat="49.67016" lon="-1.68255">
        <ele>8.79</ele>
        <time>2013-01-06T11:08:51Z</time>
      </trkpt>
      <trkpt lat="49.67012" lon="-1.68252">
        <ele>8.31</ele>
        <time>2013-01-06T11:08:52Z</time>
      </trkpt>
      <trkpt lat="49.66945" lon="-1.68214">
        <ele>8.79</ele>
        <time>2013-01-06T11:09:08Z</time>
      </trkpt>
      <trkpt lat="49.66941" lon="-1.68214">
        <ele>8.79</ele>
        <time>2013-01-06T11:09:09Z</time>
      </trkpt>
      <trkpt lat="49.6691" lon="-1.68219">
        <ele>8.79</ele>
        <time>2013-01-06T11:09:21Z</time>
      </trkpt>
      <trkpt lat="49.66892" lon="-1.6825">
        <ele>9.27</ele>
        <time>2013-01-06T11:09:32Z</time>
      </trkpt>
      <trkpt lat="49.66855" lon="-1.68308">
        <ele>9.75</ele>
        <time>2013-01-06T11:09:44Z</time>
      </trkpt>
      <trkpt lat="49.66787" lon="-1.68407">
        <ele>10.23</ele>
        <time>2013-01-06T11:10:03Z</time>
      </trkpt>
      <trkpt lat="49.66755" lon="-1.68435">
        <ele>10.71</ele>
        <time>2013-01-06T11:10:11Z</time>
      </trkpt>
      <trkpt lat="49.66751" lon="-1.68436">
        <ele>10.71</ele>
        <time>2013-01-06T11:10:12Z</time>
      </trkpt>
      <trkpt lat="49.66721" lon="-1.68441">
        <ele>10.71</ele>
        <time>2013-01-06T11:10:20Z</time>
      </trkpt>
      <trkpt lat="49.66646" lon="-1.68452">
        <ele>11.19</ele>
        <time>2013-01-06T11:10:37Z</time>
      </trkpt>
      <trkpt lat="49.66612" lon="-1.68447">
        <ele>11.19</ele>
        <time>2013-01-06T11:10:45Z</time>
      </trkpt>
      <trkpt lat="49.66608" lon="-1.68445">
        <ele>10.71</ele>
        <time>2013-01-06T11:10:46Z</time>
      </trkpt>
      <trkpt lat="49.66561" lon="-1.68404">
        <ele>11.19</ele>
        <time>2013-01-06T11:10:58Z</time>
      </trkpt>
      <trkpt lat="49.66558" lon="-1.684">
        <ele>11.19</ele>
        <time>2013-01-06T11:10:59Z</time>
      </trkpt>
      <trkpt lat="49.66505" lon="-1.68351">
        <ele>11.19</ele>
        <time>2013-01-06T11:11:12Z</time>
      </trkpt>
      <trkpt lat="49.66422" lon="-1.68279">
        <ele>11.67</ele>
        <time>2013-01-06T11:11:31Z</time>
      </trkpt>
      <trkpt lat="49.66383" lon="-1.68225">
        <ele>10.71</ele>
        <time>2013-01-06T11:11:41Z</time>
      </trkpt>
      <trkpt lat="49.66334" lon="-1.68151">
        <ele>9.27</ele>
        <time>2013-01-06T11:11:54Z</time>
      </trkpt>
      <trkpt lat="49.66329" lon="-1.68147">
        <ele>9.27</ele>
        <time>2013-01-06T11:11:55Z</time>
      </trkpt>
      <trkpt lat="49.66268" lon="-1.68082">
        <ele>8.31</ele>
        <time>2013-01-06T11:12:09Z</time>
      </trkpt>
      <trkpt lat="49.66263" lon="-1.6808">
        <ele>8.31</ele>
        <time>2013-01-06T11:12:10Z</time>
      </trkpt>
      <trkpt lat="49.66254" lon="-1.68074">
        <ele>8.79</ele>
        <time>2013-01-06T11:12:12Z</time>
      </trkpt>
      <trkpt lat="49.6625" lon="-1.68071">
        <ele>8.79</ele>
        <time>2013-01-06T11:12:13Z</time>
      </trkpt>
      <trkpt lat="49.66214" lon="-1.68037">
        <ele>8.79</ele>
        <time>2013-01-06T11:12:23Z</time>
      </trkpt>
      <trkpt lat="49.66211" lon="-1.68033">
        <ele>8.31</ele>
        <time>2013-01-06T11:12:24Z</time>
      </trkpt>
      <trkpt lat="49.66209" lon="-1.68029">
        <ele>8.79</ele>
        <time>2013-01-06T11:12:25Z</time>
      </trkpt>
      <trkpt lat="49.66207" lon="-1.68025">
        <ele>8.79</ele>
        <time>2013-01-06T11:12:26Z</time>
      </trkpt>
      <trkpt lat="49.66205" lon="-1.68021">
        <ele>8.31</ele>
        <time>2013-01-06T11:12:27Z</time>
      </trkpt>
      <trkpt lat="49.66207" lon="-1.67996">
        <ele>8.31</ele>
        <time>2013-01-06T11:12:32Z</time>
      </trkpt>
      <trkpt lat="49.66215" lon="-1.67975">
        <ele>8.79</ele>
        <time>2013-01-06T11:12:36Z</time>
      </trkpt>
      <trkpt lat="49.66215" lon="-1.67969">
        <ele>9.27</ele>
        <time>2013-01-06T11:12:37Z</time>
      </trkpt>
      <trkpt lat="49.66213" lon="-1.67962">
        <ele>9.27</ele>
        <time>2013-01-06T11:12:38Z</time>
      </trkpt>
      <trkpt lat="49.66211" lon="-1.67956">
        <ele>9.27</ele>
        <time>2013-01-06T11:12:39Z</time>
      </trkpt>
      <trkpt lat="49.66209" lon="-1.67951">
        <ele>9.27</ele>
        <time>2013-01-06T11:12:40Z</time>
      </trkpt>
      <trkpt lat="49.66205" lon="-1.67946">
        <ele>9.27</ele>
        <time>2013-01-06T11:12:41Z</time>
      </trkpt>
      <trkpt lat="49.6614" lon="-1.67841">
        <ele>10.23</ele>
        <time>2013-01-06T11:13:00Z</time>
      </trkpt>
      <trkpt lat="49.66066" lon="-1.67715">
        <ele>9.75</ele>
        <time>2013-01-06T11:13:22Z</time>
      </trkpt>
      <trkpt lat="49.65993" lon="-1.67593">
        <ele>10.23</ele>
        <time>2013-01-06T11:13:42Z</time>
      </trkpt>
      <trkpt lat="49.65907" lon="-1.67445">
        <ele>9.75</ele>
        <time>2013-01-06T11:14:06Z</time>
      </trkpt>
      <trkpt lat="49.65832" lon="-1.67317">
        <ele>9.27</ele>
        <time>2013-01-06T11:14:27Z</time>
      </trkpt>
      <trkpt lat="49.65783" lon="-1.67197">
        <ele>9.75</ele>
        <time>2013-01-06T11:14:44Z</time>
      </trkpt>
      <trkpt lat="49.65768" lon="-1.67044">
        <ele>9.27</ele>
        <time>2013-01-06T11:15:03Z</time>
      </trkpt>
      <trkpt lat="49.65771" lon="-1.66989">
        <ele>8.79</ele>
        <time>2013-01-06T11:15:10Z</time>
      </trkpt>
      <trkpt lat="49.65787" lon="-1.66909">
        <ele>8.79</ele>
        <time>2013-01-06T11:15:24Z</time>
      </trkpt>
      <trkpt lat="49.65788" lon="-1.66896">
        <ele>8.31</ele>
        <time>2013-01-06T11:15:28Z</time>
      </trkpt>
      <trkpt lat="49.65787" lon="-1.66893">
        <ele>8.31</ele>
        <time>2013-01-06T11:15:29Z</time>
      </trkpt>
      <trkpt lat="49.65784" lon="-1.66892">
        <ele>8.31</ele>
        <time>2013-01-06T11:15:30Z</time>
      </trkpt>
      <trkpt lat="49.6578" lon="-1.66891">
        <ele>8.31</ele>
        <time>2013-01-06T11:15:31Z</time>
      </trkpt>
      <trkpt lat="49.65777" lon="-1.6689">
        <ele>8.31</ele>
        <time>2013-01-06T11:15:32Z</time>
      </trkpt>
      <trkpt lat="49.65773" lon="-1.6689">
        <ele>8.31</ele>
        <time>2013-01-06T11:15:33Z</time>
      </trkpt>
      <trkpt lat="49.65751" lon="-1.6689">
        <ele>10.71</ele>
        <time>2013-01-06T11:15:41Z</time>
      </trkpt>
      <trkpt lat="49.65748" lon="-1.66891">
        <ele>11.19</ele>
        <time>2013-01-06T11:15:43Z</time>
      </trkpt>
      <trkpt lat="49.65747" lon="-1.66893">
        <ele>10.71</ele>
        <time>2013-01-06T11:15:44Z</time>
      </trkpt>
      <trkpt lat="49.65746" lon="-1.66895">
        <ele>11.19</ele>
        <time>2013-01-06T11:15:45Z</time>
      </trkpt>
      <trkpt lat="49.65745" lon="-1.66898">
        <ele>11.19</ele>
        <time>2013-01-06T11:15:46Z</time>
      </trkpt>
      <trkpt lat="49.65745" lon="-1.66901">
        <ele>10.71</ele>
        <time>2013-01-06T11:15:47Z</time>
      </trkpt>
      <trkpt lat="49.65744" lon="-1.66904">
        <ele>10.71</ele>
        <time>2013-01-06T11:15:48Z</time>
      </trkpt>
      <trkpt lat="49.65741" lon="-1.66918">
        <ele>11.19</ele>
        <time>2013-01-06T11:15:53Z</time>
      </trkpt>
      <trkpt lat="49.6574" lon="-1.66919">
        <ele>10.71</ele>
        <time>2013-01-06T11:15:54Z</time>
      </trkpt>
      <trkpt lat="49.65739" lon="-1.6692">
        <ele>10.71</ele>
        <time>2013-01-06T11:15:55Z</time>
      </trkpt>
      <trkpt lat="49.65736" lon="-1.6692">
        <ele>10.71</ele>
        <time>2013-01-06T11:16:06Z</time>
      </trkpt>
      <trkpt lat="49.65704" lon="-1.66923">
        <ele>10.71</ele>
        <time>2013-01-06T11:16:17Z</time>
      </trkpt>
      <trkpt lat="49.65703" lon="-1.66927">
        <ele>10.71</ele>
        <time>2013-01-06T11:16:18Z</time>
      </trkpt>
      <trkpt lat="49.65703" lon="-1.66932">
        <ele>10.71</ele>
        <time>2013-01-06T11:16:19Z</time>
      </trkpt>
      <trkpt lat="49.65703" lon="-1.66938">
        <ele>10.71</ele>
        <time>2013-01-06T11:16:20Z</time>
      </trkpt>
      <trkpt lat="49.65703" lon="-1.66943">
        <ele>10.71</ele>
        <time>2013-01-06T11:16:21Z</time>
      </trkpt>
      <trkpt lat="49.65701" lon="-1.66977">
        <ele>10.71</ele>
        <time>2013-01-06T11:16:27Z</time>
      </trkpt>
      <trkpt lat="49.65699" lon="-1.6698">
        <ele>10.71</ele>
        <time>2013-01-06T11:16:28Z</time>
      </trkpt>
      <trkpt lat="49.65695" lon="-1.66982">
        <ele>10.71</ele>
        <time>2013-01-06T11:16:29Z</time>
      </trkpt>
      <trkpt lat="49.65692" lon="-1.66983">
        <ele>11.67</ele>
        <time>2013-01-06T11:16:30Z</time>
      </trkpt>
      <trkpt lat="49.65689" lon="-1.66984">
        <ele>11.67</ele>
        <time>2013-01-06T11:16:31Z</time>
      </trkpt>
      <trkpt lat="49.65686" lon="-1.66986">
        <ele>11.19</ele>
        <time>2013-01-06T11:16:32Z</time>
      </trkpt>
      <trkpt lat="49.65683" lon="-1.66988">
        <ele>11.67</ele>
        <time>2013-01-06T11:16:33Z</time>
      </trkpt>
      <trkpt lat="49.6563" lon="-1.67029">
        <ele>12.63</ele>
        <time>2013-01-06T11:16:48Z</time>
      </trkpt>
      <trkpt lat="49.65627" lon="-1.67034">
        <ele>12.15</ele>
        <time>2013-01-06T11:16:49Z</time>
      </trkpt>
      <trkpt lat="49.65617" lon="-1.67048">
        <ele>11.67</ele>
        <time>2013-01-06T11:16:52Z</time>
      </trkpt>
      <trkpt lat="49.65613" lon="-1.67052">
        <ele>11.67</ele>
        <time>2013-01-06T11:16:53Z</time>
      </trkpt>
      <trkpt lat="49.65608" lon="-1.67056">
        <ele>11.19</ele>
        <time>2013-01-06T11:16:54Z</time>
      </trkpt>
      <trkpt lat="49.65604" lon="-1.67059">
        <ele>11.67</ele>
        <time>2013-01-06T11:16:55Z</time>
      </trkpt>
      <trkpt lat="49.656" lon="-1.67061">
        <ele>12.15</ele>
        <time>2013-01-06T11:16:56Z</time>
      </trkpt>
      <trkpt lat="49.65595" lon="-1.67064">
        <ele>11.67</ele>
        <time>2013-01-06T11:16:57Z</time>
      </trkpt>
      <trkpt lat="49.65591" lon="-1.67066">
        <ele>12.15</ele>
        <time>2013-01-06T11:16:58Z</time>
      </trkpt>
      <trkpt lat="49.65573" lon="-1.67076">
        <ele>11.67</ele>
        <time>2013-01-06T11:17:02Z</time>
      </trkpt>
      <trkpt lat="49.65569" lon="-1.67079">
        <ele>11.19</ele>
        <time>2013-01-06T11:17:03Z</time>
      </trkpt>
      <trkpt lat="49.65565" lon="-1.67083">
        <ele>11.67</ele>
        <time>2013-01-06T11:17:04Z</time>
      </trkpt>
      <trkpt lat="49.65561" lon="-1.67088">
        <ele>12.15</ele>
        <time>2013-01-06T11:17:05Z</time>
      </trkpt>
      <trkpt lat="49.65558" lon="-1.67093">
        <ele>11.19</ele>
        <time>2013-01-06T11:17:06Z</time>
      </trkpt>
      <trkpt lat="49.6555" lon="-1.67103">
        <ele>11.19</ele>
        <time>2013-01-06T11:17:08Z</time>
      </trkpt>
      <trkpt lat="49.65546" lon="-1.67106">
        <ele>10.71</ele>
        <time>2013-01-06T11:17:09Z</time>
      </trkpt>
      <trkpt lat="49.65541" lon="-1.67108">
        <ele>10.71</ele>
        <time>2013-01-06T11:17:10Z</time>
      </trkpt>
      <trkpt lat="49.65536" lon="-1.67108">
        <ele>10.71</ele>
        <time>2013-01-06T11:17:11Z</time>
      </trkpt>
      <trkpt lat="49.65532" lon="-1.67106">
        <ele>11.19</ele>
        <time>2013-01-06T11:17:12Z</time>
      </trkpt>
      <trkpt lat="49.65528" lon="-1.67102">
        <ele>10.71</ele>
        <time>2013-01-06T11:17:13Z</time>
      </trkpt>
      <trkpt lat="49.65525" lon="-1.67099">
        <ele>11.19</ele>
        <time>2013-01-06T11:17:14Z</time>
      </trkpt>
      <trkpt lat="49.65522" lon="-1.67095">
        <ele>11.67</ele>
        <time>2013-01-06T11:17:15Z</time>
      </trkpt>
      <trkpt lat="49.65501" lon="-1.67098">
        <ele>11.67</ele>
        <time>2013-01-06T11:17:23Z</time>
      </trkpt>
      <trkpt lat="49.65484" lon="-1.67126">
        <ele>12.15</ele>
        <time>2013-01-06T11:17:31Z</time>
      </trkpt>
      <trkpt lat="49.65481" lon="-1.67127">
        <ele>12.15</ele>
        <time>2013-01-06T11:17:32Z</time>
      </trkpt>
      <trkpt lat="49.65478" lon="-1.67128">
        <ele>12.63</ele>
        <time>2013-01-06T11:17:33Z</time>
      </trkpt>
      <trkpt lat="49.65475" lon="-1.67129">
        <ele>12.15</ele>
        <time>2013-01-06T11:17:34Z</time>
      </trkpt>
      <trkpt lat="49.65472" lon="-1.67129">
        <ele>12.63</ele>
        <time>2013-01-06T11:17:35Z</time>
      </trkpt>
      <trkpt lat="49.65469" lon="-1.6713">
        <ele>12.63</ele>
        <time>2013-01-06T11:17:36Z</time>
      </trkpt>
      <trkpt lat="49.6544" lon="-1.67115">
        <ele>13.12</ele>
        <time>2013-01-06T11:17:46Z</time>
      </trkpt>
      <trkpt lat="49.65437" lon="-1.67119">
        <ele>13.12</ele>
        <time>2013-01-06T11:17:47Z</time>
      </trkpt>
      <trkpt lat="49.65436" lon="-1.67124">
        <ele>12.63</ele>
        <time>2013-01-06T11:17:48Z</time>
      </trkpt>
      <trkpt lat="49.65427" lon="-1.67177">
        <ele>12.63</ele>
        <time>2013-01-06T11:17:59Z</time>
      </trkpt>
      <trkpt lat="49.65427" lon="-1.67178">
        <ele>13.12</ele>
        <time>2013-01-06T11:18:00Z</time>
      </trkpt>
      <trkpt lat="49.65413" lon="-1.67172">
        <ele>13.6</ele>
        <time>2013-01-06T11:18:09Z</time>
      </trkpt>
      <trkpt lat="49.65414" lon="-1.67171">
        <ele>13.12</ele>
        <time>2013-01-06T11:18:11Z</time>
      </trkpt>
      <trkpt lat="49.65415" lon="-1.67172">
        <ele>13.12</ele>
        <time>2013-01-06T11:18:12Z</time>
      </trkpt>
      <trkpt lat="49.65416" lon="-1.67172">
        <ele>13.12</ele>
        <time>2013-01-06T11:18:15Z</time>
      </trkpt>
      <trkpt lat="49.65415" lon="-1.67172">
        <ele>13.12</ele>
        <time>2013-01-06T11:18:21Z</time>
      </trkpt>
      <trkpt lat="49.65415" lon="-1.67173">
        <ele>13.12</ele>
        <time>2013-01-06T11:18:22Z</time>
      </trkpt>
      <trkpt lat="49.65415" lon="-1.67175">
        <ele>13.12</ele>
        <time>2013-01-06T11:18:24Z</time>
      </trkpt>
      <trkpt lat="49.65414" lon="-1.67174">
        <ele>13.12</ele>
        <time>2013-01-06T11:18:25Z</time>
      </trkpt>
      <trkpt lat="49.65412" lon="-1.67173">
        <ele>13.6</ele>
        <time>2013-01-06T11:18:26Z</time>
      </trkpt>
      <trkpt lat="49.65396" lon="-1.67163">
        <ele>14.56</ele>
        <time>2013-01-06T11:18:31Z</time>
      </trkpt>
      <trkpt lat="49.65391" lon="-1.67161">
        <ele>15.04</ele>
        <time>2013-01-06T11:18:32Z</time>
      </trkpt>
      <trkpt lat="49.65358" lon="-1.6715">
        <ele>16.48</ele>
        <time>2013-01-06T11:18:43Z</time>
      </trkpt>
      <trkpt lat="49.65314" lon="-1.67134">
        <ele>17.92</ele>
        <time>2013-01-06T11:18:57Z</time>
      </trkpt>
      <trkpt lat="49.65308" lon="-1.67133">
        <ele>18.4</ele>
        <time>2013-01-06T11:18:59Z</time>
      </trkpt>
      <trkpt lat="49.65265" lon="-1.67122">
        <ele>19.36</ele>
        <time>2013-01-06T11:19:13Z</time>
      </trkpt>
      <trkpt lat="49.65239" lon="-1.67137">
        <ele>21.29</ele>
        <time>2013-01-06T11:19:22Z</time>
      </trkpt>
      <trkpt lat="49.65205" lon="-1.67141">
        <ele>22.73</ele>
        <time>2013-01-06T11:19:32Z</time>
      </trkpt>
      <trkpt lat="49.65186" lon="-1.67134">
        <ele>22.73</ele>
        <time>2013-01-06T11:19:37Z</time>
      </trkpt>
      <trkpt lat="49.65182" lon="-1.67133">
        <ele>23.21</ele>
        <time>2013-01-06T11:19:38Z</time>
      </trkpt>
      <trkpt lat="49.65178" lon="-1.67132">
        <ele>23.21</ele>
        <time>2013-01-06T11:19:39Z</time>
      </trkpt>
      <trkpt lat="49.65135" lon="-1.67118">
        <ele>26.09</ele>
        <time>2013-01-06T11:19:52Z</time>
      </trkpt>
      <trkpt lat="49.65095" lon="-1.67092">
        <ele>27.53</ele>
        <time>2013-01-06T11:20:05Z</time>
      </trkpt>
      <trkpt lat="49.65046" lon="-1.67058">
        <ele>28.98</ele>
        <time>2013-01-06T11:20:19Z</time>
      </trkpt>
      <trkpt lat="49.65042" lon="-1.67054">
        <ele>28.98</ele>
        <time>2013-01-06T11:20:20Z</time>
      </trkpt>
      <trkpt lat="49.6501" lon="-1.67034">
        <ele>29.46</ele>
        <time>2013-01-06T11:20:28Z</time>
      </trkpt>
      <trkpt lat="49.64971" lon="-1.67001">
        <ele>29.46</ele>
        <time>2013-01-06T11:20:40Z</time>
      </trkpt>
      <trkpt lat="49.6496" lon="-1.66991">
        <ele>28.98</ele>
        <time>2013-01-06T11:20:43Z</time>
      </trkpt>
      <trkpt lat="49.64955" lon="-1.66989">
        <ele>28.98</ele>
        <time>2013-01-06T11:20:44Z</time>
      </trkpt>
      <trkpt lat="49.64951" lon="-1.66988">
        <ele>28.98</ele>
        <time>2013-01-06T11:20:45Z</time>
      </trkpt>
      <trkpt lat="49.64946" lon="-1.6699">
        <ele>28.98</ele>
        <time>2013-01-06T11:20:46Z</time>
      </trkpt>
      <trkpt lat="49.64941" lon="-1.66992">
        <ele>28.98</ele>
        <time>2013-01-06T11:20:47Z</time>
      </trkpt>
      <trkpt lat="49.64923" lon="-1.67003">
        <ele>28.5</ele>
        <time>2013-01-06T11:20:51Z</time>
      </trkpt>
      <trkpt lat="49.64919" lon="-1.67007">
        <ele>28.5</ele>
        <time>2013-01-06T11:20:52Z</time>
      </trkpt>
      <trkpt lat="49.64915" lon="-1.67011">
        <ele>28.5</ele>
        <time>2013-01-06T11:20:53Z</time>
      </trkpt>
      <trkpt lat="49.64902" lon="-1.67029">
        <ele>28.02</ele>
        <time>2013-01-06T11:20:57Z</time>
      </trkpt>
      <trkpt lat="49.64893" lon="-1.67036">
        <ele>28.5</ele>
        <time>2013-01-06T11:20:59Z</time>
      </trkpt>
      <trkpt lat="49.64865" lon="-1.67061">
        <ele>28.5</ele>
        <time>2013-01-06T11:21:06Z</time>
      </trkpt>
      <trkpt lat="49.64861" lon="-1.67064">
        <ele>28.5</ele>
        <time>2013-01-06T11:21:07Z</time>
      </trkpt>
      <trkpt lat="49.64852" lon="-1.67075">
        <ele>28.5</ele>
        <time>2013-01-06T11:21:10Z</time>
      </trkpt>
      <trkpt lat="49.64849" lon="-1.6708">
        <ele>28.5</ele>
        <time>2013-01-06T11:21:11Z</time>
      </trkpt>
      <trkpt lat="49.64846" lon="-1.67085">
        <ele>28.98</ele>
        <time>2013-01-06T11:21:12Z</time>
      </trkpt>
      <trkpt lat="49.64844" lon="-1.6709">
        <ele>28.98</ele>
        <time>2013-01-06T11:21:13Z</time>
      </trkpt>
      <trkpt lat="49.64842" lon="-1.67095">
        <ele>28.98</ele>
        <time>2013-01-06T11:21:14Z</time>
      </trkpt>
      <trkpt lat="49.6484" lon="-1.671">
        <ele>29.46</ele>
        <time>2013-01-06T11:21:15Z</time>
      </trkpt>
      <trkpt lat="49.64834" lon="-1.67123">
        <ele>31.86</ele>
        <time>2013-01-06T11:21:20Z</time>
      </trkpt>
      <trkpt lat="49.64811" lon="-1.67145">
        <ele>33.78</ele>
        <time>2013-01-06T11:21:30Z</time>
      </trkpt>
      <trkpt lat="49.64784" lon="-1.6716">
        <ele>34.26</ele>
        <time>2013-01-06T11:21:41Z</time>
      </trkpt>
      <trkpt lat="49.64773" lon="-1.67152">
        <ele>35.71</ele>
        <time>2013-01-06T11:21:47Z</time>
      </trkpt>
      <trkpt lat="49.64773" lon="-1.67149">
        <ele>35.71</ele>
        <time>2013-01-06T11:21:48Z</time>
      </trkpt>
      <trkpt lat="49.64773" lon="-1.67147">
        <ele>35.71</ele>
        <time>2013-01-06T11:21:49Z</time>
      </trkpt>
      <trkpt lat="49.64774" lon="-1.67144">
        <ele>35.71</ele>
        <time>2013-01-06T11:21:50Z</time>
      </trkpt>
      <trkpt lat="49.64775" lon="-1.67142">
        <ele>35.71</ele>
        <time>2013-01-06T11:21:51Z</time>
      </trkpt>
      <trkpt lat="49.64782" lon="-1.67115">
        <ele>35.71</ele>
        <time>2013-01-06T11:22:00Z</time>
      </trkpt>
      <trkpt lat="49.64782" lon="-1.67112">
        <ele>35.71</ele>
        <time>2013-01-06T11:22:01Z</time>
      </trkpt>
      <trkpt lat="49.64781" lon="-1.67109">
        <ele>36.19</ele>
        <time>2013-01-06T11:22:02Z</time>
      </trkpt>
      <trkpt lat="49.6478" lon="-1.67106">
        <ele>35.71</ele>
        <time>2013-01-06T11:22:03Z</time>
      </trkpt>
      <trkpt lat="49.64779" lon="-1.67103">
        <ele>36.19</ele>
        <time>2013-01-06T11:22:04Z</time>
      </trkpt>
      <trkpt lat="49.64779" lon="-1.67101">
        <ele>36.19</ele>
        <time>2013-01-06T11:22:05Z</time>
      </trkpt>
      <trkpt lat="49.64767" lon="-1.67082">
        <ele>36.67</ele>
        <time>2013-01-06T11:22:16Z</time>
      </trkpt>
      <trkpt lat="49.64745" lon="-1.67076">
        <ele>37.63</ele>
        <time>2013-01-06T11:22:27Z</time>
      </trkpt>
      <trkpt lat="49.64705" lon="-1.67112">
        <ele>38.11</ele>
        <time>2013-01-06T11:22:41Z</time>
      </trkpt>
      <trkpt lat="49.64688" lon="-1.67144">
        <ele>38.11</ele>
        <time>2013-01-06T11:22:48Z</time>
      </trkpt>
      <trkpt lat="49.64673" lon="-1.67178">
        <ele>38.11</ele>
        <time>2013-01-06T11:22:59Z</time>
      </trkpt>
      <trkpt lat="49.64672" lon="-1.67183">
        <ele>38.11</ele>
        <time>2013-01-06T11:23:12Z</time>
      </trkpt>
      <trkpt lat="49.64661" lon="-1.67223">
        <ele>38.59</ele>
        <time>2013-01-06T11:23:22Z</time>
      </trkpt>
      <trkpt lat="49.64642" lon="-1.67303">
        <ele>39.55</ele>
        <time>2013-01-06T11:23:36Z</time>
      </trkpt>
      <trkpt lat="49.64619" lon="-1.67387">
        <ele>40.03</ele>
        <time>2013-01-06T11:23:52Z</time>
      </trkpt>
      <trkpt lat="49.64588" lon="-1.67402">
        <ele>43.4</ele>
        <time>2013-01-06T11:24:03Z</time>
      </trkpt>
      <trkpt lat="49.64562" lon="-1.67398">
        <ele>45.32</ele>
        <time>2013-01-06T11:24:13Z</time>
      </trkpt>
      <trkpt lat="49.64527" lon="-1.67376">
        <ele>47.72</ele>
        <time>2013-01-06T11:24:29Z</time>
      </trkpt>
      <trkpt lat="49.64502" lon="-1.67352">
        <ele>50.61</ele>
        <time>2013-01-06T11:24:42Z</time>
      </trkpt>
      <trkpt lat="49.64476" lon="-1.6733">
        <ele>53.49</ele>
        <time>2013-01-06T11:24:54Z</time>
      </trkpt>
      <trkpt lat="49.64455" lon="-1.67317">
        <ele>55.89</ele>
        <time>2013-01-06T11:25:05Z</time>
      </trkpt>
      <trkpt lat="49.64454" lon="-1.67318">
        <ele>55.41</ele>
        <time>2013-01-06T11:25:06Z</time>
      </trkpt>
      <trkpt lat="49.64453" lon="-1.67319">
        <ele>56.37</ele>
        <time>2013-01-06T11:25:07Z</time>
      </trkpt>
      <trkpt lat="49.64451" lon="-1.67319">
        <ele>55.89</ele>
        <time>2013-01-06T11:25:08Z</time>
      </trkpt>
      <trkpt lat="49.64449" lon="-1.67318">
        <ele>55.41</ele>
        <time>2013-01-06T11:25:20Z</time>
      </trkpt>
      <trkpt lat="49.64425" lon="-1.67308">
        <ele>55.41</ele>
        <time>2013-01-06T11:25:30Z</time>
      </trkpt>
      <trkpt lat="49.64381" lon="-1.67299">
        <ele>56.37</ele>
        <time>2013-01-06T11:25:42Z</time>
      </trkpt>
      <trkpt lat="49.64353" lon="-1.67294">
        <ele>59.74</ele>
        <time>2013-01-06T11:25:50Z</time>
      </trkpt>
      <trkpt lat="49.64324" lon="-1.67292">
        <ele>62.62</ele>
        <time>2013-01-06T11:25:58Z</time>
      </trkpt>
      <trkpt lat="49.6431" lon="-1.6729">
        <ele>64.07</ele>
        <time>2013-01-06T11:26:02Z</time>
      </trkpt>
      <trkpt lat="49.64306" lon="-1.6729">
        <ele>64.07</ele>
        <time>2013-01-06T11:26:03Z</time>
      </trkpt>
      <trkpt lat="49.64303" lon="-1.67289">
        <ele>64.07</ele>
        <time>2013-01-06T11:26:04Z</time>
      </trkpt>
      <trkpt lat="49.64272" lon="-1.67282">
        <ele>64.55</ele>
        <time>2013-01-06T11:26:16Z</time>
      </trkpt>
      <trkpt lat="49.64236" lon="-1.67283">
        <ele>65.51</ele>
        <time>2013-01-06T11:26:29Z</time>
      </trkpt>
      <trkpt lat="49.64205" lon="-1.67278">
        <ele>67.43</ele>
        <time>2013-01-06T11:26:42Z</time>
      </trkpt>
      <trkpt lat="49.64179" lon="-1.67275">
        <ele>69.35</ele>
        <time>2013-01-06T11:26:53Z</time>
      </trkpt>
      <trkpt lat="49.64144" lon="-1.67268">
        <ele>69.83</ele>
        <time>2013-01-06T11:27:07Z</time>
      </trkpt>
      <trkpt lat="49.64115" lon="-1.67253">
        <ele>68.39</ele>
        <time>2013-01-06T11:27:15Z</time>
      </trkpt>
      <trkpt lat="49.64102" lon="-1.67244">
        <ele>66.47</ele>
        <time>2013-01-06T11:27:18Z</time>
      </trkpt>
      <trkpt lat="49.64101" lon="-1.67239">
        <ele>66.47</ele>
        <time>2013-01-06T11:27:19Z</time>
      </trkpt>
      <trkpt lat="49.64102" lon="-1.67233">
        <ele>66.95</ele>
        <time>2013-01-06T11:27:20Z</time>
      </trkpt>
      <trkpt lat="49.64104" lon="-1.67228">
        <ele>67.43</ele>
        <time>2013-01-06T11:27:21Z</time>
      </trkpt>
      <trkpt lat="49.64106" lon="-1.67222">
        <ele>67.91</ele>
        <time>2013-01-06T11:27:22Z</time>
      </trkpt>
      <trkpt lat="49.64108" lon="-1.67216">
        <ele>68.39</ele>
        <time>2013-01-06T11:27:23Z</time>
      </trkpt>
      <trkpt lat="49.64109" lon="-1.6721">
        <ele>68.39</ele>
        <time>2013-01-06T11:27:24Z</time>
      </trkpt>
      <trkpt lat="49.64111" lon="-1.67205">
        <ele>69.35</ele>
        <time>2013-01-06T11:27:25Z</time>
      </trkpt>
      <trkpt lat="49.64112" lon="-1.672">
        <ele>69.35</ele>
        <time>2013-01-06T11:27:26Z</time>
      </trkpt>
      <trkpt lat="49.64132" lon="-1.67128">
        <ele>72.24</ele>
        <time>2013-01-06T11:27:39Z</time>
      </trkpt>
      <trkpt lat="49.64147" lon="-1.6705">
        <ele>74.16</ele>
        <time>2013-01-06T11:27:56Z</time>
      </trkpt>
      <trkpt lat="49.64145" lon="-1.67047">
        <ele>74.16</ele>
        <time>2013-01-06T11:27:57Z</time>
      </trkpt>
      <trkpt lat="49.64132" lon="-1.67029">
        <ele>75.6</ele>
        <time>2013-01-06T11:28:03Z</time>
      </trkpt>
      <trkpt lat="49.64132" lon="-1.67024">
        <ele>75.6</ele>
        <time>2013-01-06T11:28:04Z</time>
      </trkpt>
      <trkpt lat="49.64141" lon="-1.66968">
        <ele>76.56</ele>
        <time>2013-01-06T11:28:15Z</time>
      </trkpt>
      <trkpt lat="49.64131" lon="-1.66945">
        <ele>76.56</ele>
        <time>2013-01-06T11:28:20Z</time>
      </trkpt>
      <trkpt lat="49.64129" lon="-1.6694">
        <ele>77.52</ele>
        <time>2013-01-06T11:28:21Z</time>
      </trkpt>
      <trkpt lat="49.64129" lon="-1.66935">
        <ele>77.52</ele>
        <time>2013-01-06T11:28:22Z</time>
      </trkpt>
      <trkpt lat="49.64129" lon="-1.6693">
        <ele>77.52</ele>
        <time>2013-01-06T11:28:23Z</time>
      </trkpt>
      <trkpt lat="49.64131" lon="-1.66926">
        <ele>77.52</ele>
        <time>2013-01-06T11:28:24Z</time>
      </trkpt>
      <trkpt lat="49.64132" lon="-1.66921">
        <ele>78</ele>
        <time>2013-01-06T11:28:25Z</time>
      </trkpt>
      <trkpt lat="49.64126" lon="-1.66857">
        <ele>78.48</ele>
        <time>2013-01-06T11:28:36Z</time>
      </trkpt>
      <trkpt lat="49.64125" lon="-1.6685">
        <ele>78</ele>
        <time>2013-01-06T11:28:37Z</time>
      </trkpt>
      <trkpt lat="49.64125" lon="-1.66844">
        <ele>78</ele>
        <time>2013-01-06T11:28:38Z</time>
      </trkpt>
      <trkpt lat="49.64125" lon="-1.6683">
        <ele>78.48</ele>
        <time>2013-01-06T11:28:40Z</time>
      </trkpt>
      <trkpt lat="49.64126" lon="-1.66824">
        <ele>78</ele>
        <time>2013-01-06T11:28:41Z</time>
      </trkpt>
      <trkpt lat="49.6414" lon="-1.66707">
        <ele>78.97</ele>
        <time>2013-01-06T11:28:57Z</time>
      </trkpt>
      <trkpt lat="49.64153" lon="-1.66621">
        <ele>80.41</ele>
        <time>2013-01-06T11:29:10Z</time>
      </trkpt>
      <trkpt lat="49.64152" lon="-1.66615">
        <ele>80.89</ele>
        <time>2013-01-06T11:29:11Z</time>
      </trkpt>
      <trkpt lat="49.6415" lon="-1.66611">
        <ele>80.89</ele>
        <time>2013-01-06T11:29:12Z</time>
      </trkpt>
      <trkpt lat="49.64149" lon="-1.66605">
        <ele>80.89</ele>
        <time>2013-01-06T11:29:15Z</time>
      </trkpt>
      <trkpt lat="49.64135" lon="-1.66588">
        <ele>80.41</ele>
        <time>2013-01-06T11:29:22Z</time>
      </trkpt>
      <trkpt lat="49.64126" lon="-1.6656">
        <ele>80.89</ele>
        <time>2013-01-06T11:29:29Z</time>
      </trkpt>
      <trkpt lat="49.6412" lon="-1.66556">
        <ele>79.93</ele>
        <time>2013-01-06T11:29:40Z</time>
      </trkpt>
    </trkseg>
  </trk>
</gpx>